[[{"header":{"parameterUnit":"m.s-1","parameterCategory":1,"la1":30.6,"la2":28.766,"lo1":-90.7593,"lo2":-88.6598,"dy":0.0162,"dx":0.0183,"nx":116,"ny":114,"refTime":"2023-06-22T12:00:00:Z","depth":0,"parameterNumber":2,"parameterNumberName":"U-component_of_WINDS"},"data":[0.0,0.0,0.0,0.0,0.0,0.0,0.0,0.0,0.0,0.0,0.0,0.0,0.0,0.0,0.0,0.0,0.0,0.0,0.0,0.0,0.0,0.0,0.0,0.0,0.0,0.0,0.0,0.0,0.0,0.0,0.0,0.0,0.0,0.0,0.0,0.0,0.0,0.0,0.0,0.0,0.0,0.0,0.0,0.0,0.0,0.0,0.0,0.0,0.0,0.0,0.0,0.0,0.0,0.0,0.0,0.0,0.0,0.0,0.0,0.0,0.0,0.0,0.0,0.0,0.0,0.0,0.0,0.0,0.0,0.0,0.0,0.0,0.0,0.0,0.0,0.0,0.0,0.0,0.0,0.0,0.0,0.0,0.0,0.0,0.0,0.0,0.0,0.0,0.0,0.0,0.0,0.0,0.0,0.0,0.0,0.0,0.0,0.0,0.0,0.0,0.0,0.0,0.0,0.0,0.0,0.0,0.0,0.0,0.0,0.0,0.0,0.0,0.0,0.0,0.0,0.0,0.0,0.0,0.0,0.0,0.0,0.0,0.0,0.0,0.0,0.0,0.0,0.0,0.0,0.0,0.0,0.0,0.0,0.0,0.0,0.0,0.0,0.0,0.0,0.0,0.0,0.0,0.0,0.0,0.0,0.0,0.0,0.0,0.0,0.0,0.0,0.0,0.0,0.0,0.0,0.0,0.0,0.0,0.0,0.0,0.0,0.0,0.0,0.0,0.0,0.0,0.0,0.0,0.0,0.0,0.0,0.0,0.0,0.0,0.0,0.0,0.0,0.0,0.0,0.0,0.0,0.0,0.0,0.0,0.0,0.0,0.0,0.0,0.0,0.0,0.0,0.0,0.0,0.0,0.0,0.0,0.0,0.0,0.0,0.0,0.0,0.0,0.0,0.0,0.0,0.0,0.0,0.0,0.0,0.0,0.0,0.0,0.0,0.0,0.0,0.0,0.0,0.0,0.0,0.0,0.0,0.0,0.0,0.0,0.0,0.0,0.0,0.0,0.0,0.0,0.0,0.0,0.0,0.0,0.0,0.0,0.0,0.0,0.0,0.0,0.0,0.0,0.0,0.0,0.0,0.0,0.0,0.0,0.0,0.0,0.0,0.0,0.0,0.0,0.0,0.0,0.0,0.0,0.0,0.0,0.0,0.0,0.0,0.0,0.0,0.0,0.0,0.0,0.0,0.0,0.0,0.0,0.0,0.0,0.0,0.0,0.0,0.0,0.0,0.0,0.0,0.0,0.0,0.0,0.0,0.0,0.0,0.0,0.0,0.0,0.0,0.0,0.0,0.0,0.0,0.0,0.0,0.0,0.0,0.0,0.0,0.0,0.0,0.0,0.0,0.0,0.0,0.0,0.0,0.0,0.0,0.0,0.0,0.0,0.0,0.0,0.0,0.0,0.0,0.0,0.0,0.0,0.0,0.0,0.0,0.0,0.0,0.0,0.0,0.0,0.0,0.0,0.0,0.0,0.0,0.0,0.0,0.0,0.0,0.0,0.0,0.0,0.0,0.0,0.0,0.0,0.0,0.0,0.0,0.0,0.0,0.0,0.0,0.0,0.0,0.0,0.0,0.0,0.0,0.0,0.0,0.0,0.0,0.0,0.0,0.0,0.0,0.0,0.0,0.0,0.0,0.0,0.0,0.0,0.0,0.0,0.0,0.0,0.0,0.0,0.0,0.0,0.0,0.0,0.0,0.0,0.0,0.0,0.0,0.0,0.0,0.0,0.0,0.0,0.0,0.0,0.0,0.0,0.0,0.0,0.0,0.0,0.0,0.0,0.0,0.0,0.0,0.0,0.0,0.0,0.0,0.0,0.0,0.0,0.0,0.0,0.0,0.0,0.0,0.0,0.0,0.0,0.0,0.0,0.0,0.0,0.0,0.0,0.0,0.0,0.0,0.0,0.0,0.0,0.0,0.0,0.0,0.0,0.0,0.0,0.0,0.0,0.0,0.0,0.0,0.0,0.0,0.0,0.0,0.0,0.0,0.0,0.0,0.0,0.0,0.0,0.0,0.0,0.0,0.0,0.0,0.0,0.0,0.0,0.0,0.0,0.0,0.0,0.0,0.0,0.0,0.0,0.0,0.0,0.0,0.0,0.0,0.0,0.0,0.0,0.0,0.0,0.0,0.0,0.0,0.0,0.0,0.0,0.0,0.0,0.0,0.0,0.0,0.0,0.0,0.0,0.0,0.0,0.0,0.0,0.0,0.0,0.0,0.0,0.0,0.0,0.0,0.0,0.0,0.0,0.0,0.0,0.0,0.0,0.0,0.0,0.0,0.0,0.0,0.0,0.0,0.0,0.0,0.0,0.0,0.0,0.0,0.0,0.0,0.0,0.0,0.0,0.0,0.0,0.0,0.0,0.0,0.0,0.0,0.0,0.0,0.0,0.0,0.0,0.0,0.0,0.0,0.0,0.0,0.0,0.0,0.0,0.0,0.0,0.0,0.0,0.0,0.0,0.0,0.0,0.0,0.0,0.0,0.0,0.0,0.0,0.0,0.0,0.0,0.0,0.0,0.0,0.0,0.0,0.0,0.0,0.0,0.0,0.0,0.0,0.0,0.0,0.0,0.0,0.0,0.0,0.0,0.0,0.0,0.0,0.0,0.0,0.0,0.0,0.0,0.0,0.0,0.0,0.0,0.0,0.0,0.0,0.0,0.0,0.0,0.0,0.0,0.0,0.0,0.0,0.0,0.0,0.0,0.0,0.0,0.0,0.0,0.0,0.0,0.0,0.0,0.0,0.0,0.0,0.0,0.0,0.0,0.0,0.0,0.0,0.0,0.0,0.0,0.0,0.0,0.0,0.0,0.0,0.0,0.0,0.0,0.0,0.0,0.0,0.0,0.0,0.0,0.0,0.0,0.0,0.0,0.0,0.0,0.0,0.0,0.0,0.0,0.0,0.0,0.0,0.0,0.0,0.0,0.0,0.0,0.0,0.0,0.0,0.0,0.0,0.0,0.0,0.0,0.0,0.0,0.0,0.0,0.0,0.0,0.0,0.0,0.0,0.0,0.0,0.0,0.0,0.0,0.0,0.0,0.0,0.0,0.0,0.0,0.0,0.0,0.0,0.0,0.0,0.0,0.0,0.0,0.0,0.0,0.0,0.0,0.0,0.0,0.0,0.0,0.0,0.0,0.0,0.0,0.0,0.0,0.0,0.0,0.0,0.0,0.0,0.0,0.0,0.0,0.0,0.0,0.0,0.0,0.0,0.0,0.0,0.0,0.0,0.0,0.0,0.0,0.0,0.0,0.0,0.0,0.0,0.0,0.0,0.0,0.0,0.0,0.0,0.0,0.0,0.0,0.0,0.0,0.0,0.0,0.0,0.0,0.0,0.0,0.0,0.0,0.0,0.0,0.0,0.0,0.0,0.0,0.0,0.0,0.0,0.0,0.0,0.0,0.0,0.0,0.0,0.0,0.0,0.0,0.0,0.0,0.0,0.0,0.0,0.0,0.0,0.0,0.0,0.0,0.0,0.0,0.0,0.0,0.0,0.0,0.0,0.0,0.0,0.0,0.0,0.0,0.0,0.0,0.0,0.0,0.0,0.0,0.0,0.0,0.0,0.0,0.0,0.0,0.0,0.0,0.0,0.0,0.0,0.0,0.0,0.0,0.0,0.0,0.0,0.0,0.0,0.0,0.0,0.0,0.0,0.0,0.0,0.0,0.0,0.0,0.0,0.0,0.0,0.0,0.0,0.0,0.0,0.0,0.0,0.0,0.0,0.0,0.0,0.0,0.0,0.0,0.0,0.0,0.0,0.0,0.0,0.0,0.0,0.0,0.0,0.0,0.0,0.0,0.0,0.0,0.0,0.0,0.0,0.0,0.0,0.0,0.0,0.0,0.0,0.0,0.0,0.0,0.0,0.0,0.0,0.0,0.0,0.0,0.0,0.0,0.0,0.0,0.0,0.0,0.0,0.0,0.0,0.0,0.0,0.0,0.0,0.0,0.0,0.0,0.0,0.0,0.0,0.0,0.0,0.0,0.0,0.0,0.0,0.0,0.0,0.0,0.0,0.0,0.0,0.0,0.0,0.0,0.0,0.0,0.0,0.0,0.0,0.0,0.0,0.0,0.0,0.0,0.0,0.0,0.0,0.0,0.0,0.0,0.0,0.0,0.0,0.0,0.0,0.0,0.0,0.0,0.0,0.0,0.0,0.0,0.0,0.0,0.0,0.0,0.0,0.0,0.0,0.0,0.0,0.0,0.0,0.0,0.0,0.0,0.0,0.0,0.0,0.0,0.0,0.0,0.0,0.0,0.0,0.0,0.0,0.0,0.0,0.0,0.0,0.0,0.0,0.0,0.0,0.0,0.0,0.0,0.0,0.0,0.0,0.0,0.0,0.0,0.0,0.0,0.0,0.0,0.0,0.0,0.0,0.0,0.0,0.0,0.0,0.0,0.0,0.0,0.0,0.0,0.0,0.0,0.0,0.0,0.0,0.0,0.0,0.0,0.0,0.0,0.0,0.0,0.0,0.0,0.0,0.0,0.0,0.0,0.0,0.0,0.0,0.0,0.0,0.0,0.0,0.0,0.0,0.0,0.0,0.0,0.0,0.0,0.0,0.0,0.0,0.0,0.0,0.0,0.0,0.0,0.0,0.0,0.0,0.0,0.0,0.0,0.0,0.0,0.0,0.0,0.0,0.0,0.0,0.0,0.0,0.0,0.0,0.0,0.0,0.0,0.0,0.0,0.0,0.0,0.0,0.0,0.0,0.0,0.0,0.0,0.0,0.0,0.0,0.0,0.0,0.0,0.0,0.0,0.0,0.0,0.0,0.0,0.0,0.0,0.0,0.0,0.0,0.0,0.0,0.0,0.0,0.0,0.0,0.0,0.0,0.0,0.0,0.0,0.0,0.0,0.0,0.0,0.0,0.0,0.0,0.0,0.0,0.0,0.0,0.0,0.0,0.0,0.0,0.0,0.0,0.0,0.0,0.0,0.0,0.0,0.0,0.0,0.0,0.0,0.0,0.0,0.0,0.0,0.0,0.0,0.0,0.0,0.0,0.0,0.0,0.0,0.0,0.0,0.0,0.0,0.0,0.0,0.0,0.0,0.0,0.0,0.0,0.0,0.0,0.0,0.0,0.0,0.0,0.0,0.0,0.0,0.0,0.0,0.0,0.0,0.0,0.0,0.0,0.0,0.0,0.0,0.0,0.0,0.0,0.0,0.0,0.0,0.0,0.0,0.0,0.0,0.0,0.0,0.0,0.0,0.0,0.0,0.0,0.0,0.0,0.0,0.0,0.0,0.0,0.0,0.0,0.0,0.0,0.0,0.0,0.0,0.0,0.0,0.0,0.0,0.0,0.0,0.0,0.0,0.0,0.0,0.0,0.0,0.0,0.0,0.0,0.0,0.0,0.0,0.0,0.0,0.0,0.0,0.0,0.0,0.0,0.0,0.0,0.0,0.0,0.0,0.0,0.0,0.0,0.0,0.0,0.0,0.0,0.0,0.0,0.0,0.0,0.0,0.0,0.0,0.0,0.0,0.0,0.0,0.0,0.0,0.0,0.0,0.0,0.0,0.0,0.0,0.0,0.0,0.0,0.0,0.0,0.0,0.0,0.0,0.0,0.0,0.0,0.0,0.0,0.0,0.0,0.0,0.0,0.0,0.0,0.0,0.0,0.0,0.0,0.0,0.0,0.0,0.0,0.0,0.0,0.0,0.0,0.0,0.0,0.0,0.0,0.0,0.0,0.0,0.0,0.0,0.0,0.0,0.0,0.0,0.0,0.0,0.0,0.0,0.0,0.0,0.0,0.0,0.0,0.0,0.0,0.0,0.0,0.0,0.0,0.0,0.0,0.0,0.0,0.0,0.0,0.0,0.0,0.0,0.0,0.0,0.0,0.0,0.0,0.0,0.0,0.0,0.0,0.0,0.0,0.0,0.0,0.0,0.0,0.0,0.0,0.0,0.0,0.0,0.0,0.0,0.0,0.0,0.0,0.0,0.0,0.0,0.0,0.0,0.0,0.0,0.0,0.0,0.0,0.0,0.0,0.0,0.0,0.0,0.0,0.0,0.0,0.0,0.0,0.0,0.0,0.0,0.0,0.0,0.0,0.0,0.0,0.0,0.0,0.0,0.0,0.0,0.0,-4.8103,-4.7913,0.0,0.0,0.0,0.0,0.0,0.0,0.0,0.0,0.0,0.0,0.0,0.0,0.0,0.0,0.0,0.0,0.0,0.0,0.0,0.0,0.0,0.0,0.0,0.0,0.0,0.0,0.0,0.0,0.0,0.0,0.0,0.0,0.0,0.0,0.0,0.0,0.0,0.0,0.0,0.0,0.0,0.0,0.0,0.0,0.0,0.0,0.0,0.0,0.0,0.0,0.0,0.0,0.0,0.0,0.0,0.0,0.0,0.0,0.0,0.0,0.0,0.0,0.0,0.0,0.0,0.0,0.0,0.0,0.0,0.0,0.0,0.0,0.0,0.0,0.0,0.0,0.0,0.0,0.0,0.0,0.0,0.0,0.0,0.0,0.0,0.0,0.0,0.0,0.0,0.0,0.0,0.0,0.0,0.0,0.0,0.0,0.0,0.0,0.0,0.0,0.0,0.0,0.0,0.0,0.0,0.0,0.0,0.0,0.0,0.0,0.0,0.0,0.0,0.0,-4.8976,-4.8821,0.0,0.0,0.0,0.0,0.0,0.0,0.0,0.0,0.0,0.0,0.0,0.0,0.0,0.0,0.0,0.0,0.0,0.0,0.0,0.0,0.0,0.0,0.0,0.0,0.0,0.0,0.0,0.0,0.0,0.0,0.0,0.0,0.0,0.0,0.0,0.0,0.0,0.0,0.0,0.0,0.0,0.0,0.0,0.0,0.0,0.0,0.0,0.0,0.0,0.0,0.0,0.0,0.0,0.0,0.0,0.0,0.0,0.0,0.0,0.0,0.0,0.0,0.0,0.0,0.0,0.0,0.0,0.0,0.0,0.0,0.0,0.0,0.0,0.0,0.0,0.0,0.0,0.0,0.0,0.0,0.0,0.0,0.0,0.0,0.0,0.0,0.0,0.0,0.0,0.0,0.0,0.0,0.0,0.0,0.0,0.0,0.0,0.0,0.0,0.0,0.0,0.0,0.0,0.0,0.0,0.0,0.0,0.0,-5.0666,-5.0994,-5.0976,-5.0718,-5.0597,-5.0597,-5.0597,-5.0297,-4.9732,-4.8959,0.0,0.0,0.0,0.0,0.0,0.0,0.0,0.0,0.0,0.0,0.0,0.0,0.0,0.0,0.0,0.0,0.0,0.0,0.0,0.0,0.0,0.0,0.0,0.0,0.0,0.0,0.0,0.0,0.0,0.0,0.0,0.0,0.0,0.0,0.0,0.0,0.0,0.0,-3.6049,-3.6852,-3.6866,-3.6274,0.0,0.0,0.0,0.0,0.0,0.0,0.0,0.0,0.0,0.0,0.0,0.0,0.0,0.0,0.0,0.0,0.0,0.0,0.0,0.0,0.0,0.0,0.0,0.0,0.0,0.0,0.0,0.0,0.0,0.0,0.0,0.0,0.0,0.0,0.0,0.0,0.0,0.0,0.0,0.0,0.0,0.0,0.0,0.0,-4.6488,-4.6645,0.0,0.0,0.0,0.0,0.0,0.0,0.0,0.0,0.0,0.0,0.0,0.0,0.0,-5.0718,-5.0804,-5.2873,-5.4184,-5.4687,-5.4822,-5.4874,-5.4839,-5.3546,-5.2959,-5.2959,-5.2959,0.0,-4.8927,-4.829,0.0,0.0,0.0,0.0,0.0,0.0,0.0,0.0,0.0,0.0,0.0,0.0,0.0,0.0,0.0,0.0,0.0,0.0,0.0,0.0,0.0,0.0,0.0,0.0,0.0,0.0,0.0,0.0,0.0,0.0,0.0,0.0,0.0,0.0,0.0,0.0,-3.4837,-3.5301,-3.5637,-3.6022,-3.5875,-3.5332,-3.5123,-3.4878,-3.4575,-3.4119,0.0,0.0,0.0,0.0,0.0,0.0,0.0,0.0,0.0,0.0,0.0,0.0,0.0,0.0,0.0,0.0,0.0,0.0,0.0,0.0,0.0,0.0,0.0,0.0,0.0,0.0,0.0,0.0,0.0,0.0,0.0,0.0,0.0,0.0,0.0,0.0,0.0,0.0,0.0,-4.5915,-4.771,-4.6465,-4.7752,-4.8127,0.0,0.0,0.0,0.0,0.0,0.0,0.0,0.0,0.0,-5.0207,-5.1314,-5.1825,-5.1705,-5.358,-5.446,-5.4374,-5.4787,-5.4994,-5.4977,-5.4322,-5.4029,-5.4046,-5.4477,-5.3408,-5.1269,-4.976,-4.8258,-4.6616,0.0,0.0,0.0,0.0,-4.2011,-4.1933,0.0,0.0,0.0,0.0,0.0,0.0,0.0,0.0,0.0,0.0,0.0,0.0,0.0,0.0,0.0,-3.3636,0.0,0.0,0.0,0.0,0.0,0.0,0.0,0.0,0.0,0.0,0.0,0.0,-3.4209,-3.4573,-3.511,-3.53,-3.5043,-3.4428,-3.4057,-3.3725,-3.3396,-3.3523,-3.2513,0.0,0.0,0.0,0.0,0.0,0.0,0.0,0.0,0.0,0.0,0.0,0.0,0.0,0.0,0.0,0.0,0.0,0.0,0.0,0.0,0.0,0.0,0.0,0.0,0.0,0.0,0.0,0.0,0.0,0.0,0.0,0.0,0.0,0.0,0.0,0.0,0.0,0.0,-4.761,-4.8709,-4.6472,-4.846,-4.9071,0.0,0.0,0.0,0.0,0.0,0.0,-4.9951,-5.0673,-5.1355,-5.1869,-5.2839,-5.3251,-5.3049,-5.4425,-5.4908,-5.4563,-5.4718,-5.4908,-5.5081,-5.4684,-5.4408,-5.4253,-5.4805,-5.431,-5.2919,-5.095,-4.9289,-4.7754,-4.5154,-4.3849,-4.3396,-4.3286,-4.3125,-4.306,0.0,0.0,0.0,0.0,0.0,0.0,0.0,0.0,0.0,0.0,0.0,0.0,0.0,0.0,-3.225,-3.3856,-3.4163,-3.4366,0.0,0.0,0.0,0.0,0.0,0.0,0.0,0.0,0.0,-3.3159,-3.3934,-3.4304,-3.4367,-3.5063,-3.4808,-3.3748,-3.3858,-3.3317,-3.2306,-3.2353,-3.133,-2.976,0.0,0.0,0.0,0.0,0.0,0.0,0.0,0.0,0.0,0.0,0.0,0.0,0.0,0.0,0.0,0.0,0.0,0.0,0.0,0.0,0.0,0.0,0.0,0.0,0.0,0.0,0.0,0.0,0.0,0.0,0.0,0.0,0.0,0.0,0.0,0.0,0.0,0.0,0.0,-4.7583,-5.0004,0.0,0.0,0.0,0.0,-4.9556,-5.0346,-5.1054,-5.1633,-5.2385,-5.3009,-5.3463,-5.4936,-5.562,-5.5443,-5.6271,-5.7012,-5.7667,-5.6236,-5.5943,-5.6633,-5.5184,-5.4132,-5.346,-5.3494,-5.3032,-5.2152,-5.0774,-4.9336,-4.7688,-4.4624,-4.3431,-4.3396,-4.3396,-4.3322,-4.3212,0.0,0.0,0.0,0.0,0.0,0.0,0.0,0.0,0.0,0.0,0.0,0.0,0.0,-3.141,-3.2214,-3.3671,-3.372,-3.3891,-3.4463,0.0,0.0,0.0,0.0,0.0,0.0,0.0,-3.2839,-3.2593,-3.2866,-3.2782,-3.2329,-3.275,-3.2586,-3.1916,-3.2131,-3.1586,-3.0591,-3.1396,-3.0698,-2.9037,-2.9434,-2.9039,0.0,0.0,0.0,0.0,0.0,0.0,0.0,0.0,0.0,0.0,0.0,0.0,0.0,0.0,0.0,0.0,0.0,0.0,0.0,0.0,0.0,0.0,0.0,0.0,0.0,0.0,0.0,0.0,0.0,0.0,0.0,0.0,0.0,0.0,0.0,0.0,0.0,-4.9802,-5.1926,0.0,-5.0916,-5.1013,-5.1189,-5.1189,-5.2365,-5.3408,-5.4139,-5.4437,-5.4839,-5.5379,-5.5955,-5.5852,-5.5084,-5.5828,-5.604,-5.5719,-5.5167,-5.5046,-5.5305,-5.4753,-5.4098,-5.3408,-5.3408,-5.2709,-5.1435,-5.0008,-4.9126,-4.8408,-4.5888,-4.4942,-4.4942,-4.4942,-4.4535,-4.3979,0.0,0.0,0.0,0.0,0.0,0.0,0.0,0.0,0.0,0.0,0.0,-3.1024,-3.1099,-3.1323,-3.1996,-3.3248,-3.325,-3.3448,-3.4,0.0,0.0,0.0,0.0,0.0,0.0,-3.2402,-3.2201,-3.2199,-3.2029,-3.1615,-3.1008,-3.1182,-3.0937,-3.0385,-3.0458,-2.9927,-2.9028,-2.9753,-2.9319,-2.8145,-2.8317,-2.7857,-2.7024,0.0,0.0,0.0,0.0,0.0,0.0,0.0,0.0,0.0,0.0,0.0,0.0,0.0,0.0,0.0,0.0,0.0,0.0,0.0,0.0,0.0,0.0,0.0,0.0,0.0,0.0,0.0,0.0,0.0,0.0,0.0,0.0,0.0,0.0,-4.9677,-5.1237,-5.0575,-5.298,-5.3998,-5.219,-5.2706,-5.319,-5.319,-5.4366,-5.5437,-5.6245,-5.628,-5.6435,-5.6772,-5.679,-5.6268,-5.5178,-5.5663,-5.543,-5.4512,-5.4512,-5.4374,-5.4132,-5.4132,-5.358,-5.2632,-5.2632,-5.1782,-5.0304,-4.8842,-4.8117,-4.7768,-4.6342,-4.5665,-4.5444,-4.5444,-4.4878,-4.4091,0.0,0.0,0.0,0.0,0.0,0.0,0.0,0.0,0.0,0.0,-3.0986,-3.1061,-3.1272,-3.131,-3.1666,-3.2569,-3.2863,-3.3017,-3.3086,-3.3241,0.0,0.0,0.0,0.0,-3.2501,-3.14,-3.118,-3.195,-3.1407,-3.0945,-3.052,-3.0535,-3.0101,-2.9344,-2.9026,-2.8454,-2.7769,-2.7481,-2.7189,-2.6969,-2.751,-2.6771,-2.542,0.0,0.0,0.0,0.0,0.0,0.0,0.0,0.0,0.0,0.0,0.0,0.0,0.0,0.0,0.0,0.0,0.0,0.0,0.0,0.0,0.0,0.0,0.0,0.0,0.0,0.0,0.0,0.0,0.0,0.0,0.0,0.0,0.0,-4.7272,-4.9389,-5.0645,-4.9925,-5.3173,-5.4595,-5.232,-5.4156,-5.549,-5.5543,-5.621,-5.6947,-5.7772,-5.7807,-5.7745,-5.7625,-5.7625,-5.7053,-5.5906,-5.5906,-5.543,-5.4512,-5.4512,-5.4115,-5.3408,-5.3408,-5.2563,-5.1114,-5.1097,-5.0223,-4.8737,-4.7326,-4.6372,-4.5724,-4.573,-4.5317,-4.4685,-4.4685,-4.4224,-4.3491,0.0,0.0,0.0,0.0,0.0,0.0,0.0,0.0,0.0,0.0,-3.0986,-3.1024,-3.1099,-3.1198,-3.1456,-3.1809,-3.2111,-3.2304,-3.2435,0.0,0.0,0.0,0.0,0.0,-3.1135,-3.0917,-3.0726,-3.0553,-3.0217,-2.9695,-2.9076,-2.8976,-2.8813,-2.8592,-2.8251,-2.7776,-2.7182,-2.668,-2.5869,-2.5091,-2.6208,-2.6109,-2.5265,0.0,0.0,0.0,0.0,0.0,0.0,0.0,0.0,0.0,0.0,0.0,0.0,0.0,0.0,0.0,0.0,0.0,0.0,0.0,0.0,0.0,0.0,0.0,0.0,0.0,0.0,0.0,0.0,0.0,0.0,0.0,-4.6023,-4.7732,-4.8855,-5.0565,-5.2032,-5.2927,-5.398,-5.4612,-5.4559,-5.4595,-5.5104,-5.621,-5.649,-5.6947,-5.7772,-5.7807,-5.7776,-5.7745,-5.7763,-5.7223,-5.6112,-5.6112,-5.5556,-5.4512,-5.4512,-5.4115,-5.3408,-5.3408,-5.2563,-5.108,-5.0545,-4.9184,-4.731,-4.6374,-4.5326,-4.4267,-4.4281,-4.4129,-4.3955,-4.3955,-4.3375,-4.2426,0.0,0.0,0.0,0.0,0.0,0.0,0.0,0.0,0.0,0.0,-3.0986,-3.0986,-3.0986,-3.0876,-3.0844,-3.0905,-3.095,-3.1055,-3.1221,0.0,0.0,0.0,0.0,-2.9547,-3.033,-2.9669,-2.9508,-2.9817,-2.9212,-2.8612,-2.8033,-2.7949,-2.7645,-2.7165,-2.6849,-2.6352,-2.5716,-2.4963,-2.4229,-2.3638,-2.4306,-2.4472,-2.4276,-2.3829,-2.3647,-2.3669,-2.3809,-2.3888,-2.4044,-2.5168,0.0,0.0,0.0,0.0,0.0,0.0,0.0,0.0,0.0,0.0,0.0,0.0,0.0,0.0,0.0,0.0,0.0,0.0,0.0,0.0,0.0,0.0,0.0,0.0,-4.6803,-4.8415,-4.9978,-5.0961,-5.1997,-5.3208,-5.4208,-5.4735,-5.4559,-5.4981,-5.5507,-5.6104,-5.6736,-5.7316,-5.779,-5.8123,-5.8,-5.7316,-5.7614,-5.7127,-5.5688,-5.6018,-5.5636,-5.4512,-5.4201,-5.3649,-5.2891,-5.227,-5.1304,-5.0085,-4.9061,-4.775,-4.6247,-4.5268,-4.4237,-4.3327,0.0,0.0,0.0,0.0,-4.2331,-4.1632,0.0,0.0,0.0,0.0,0.0,0.0,0.0,0.0,0.0,0.0,0.0,-3.0986,-3.0986,-3.0477,-3.0074,-3.0009,-2.9759,-2.9663,0.0,0.0,0.0,-2.9377,-2.874,-2.8783,-2.9614,-2.8113,-2.7976,-2.9348,-2.8332,-2.7695,-2.7401,-2.7284,-2.6657,-2.5632,-2.5231,-2.4617,-2.3852,-2.2942,-2.2474,-2.2355,-2.2165,-2.2433,-2.2918,-2.2898,-2.2883,-2.29,-2.3232,-2.3426,-2.3613,-2.4408,0.0,0.0,0.0,0.0,0.0,0.0,0.0,0.0,0.0,0.0,0.0,0.0,0.0,0.0,0.0,0.0,0.0,0.0,0.0,0.0,0.0,0.0,0.0,0.0,-4.7495,-4.9047,-5.0539,-5.0838,-5.1171,-5.1926,-5.3857,-5.4612,-5.3313,-5.4946,-5.5946,-5.5665,-5.6894,-5.7667,-5.7667,-5.8527,0.0,0.0,0.0,-5.6777,-5.49,-5.5566,-5.5341,-5.4115,-5.346,-5.2684,-5.1757,-5.0476,-4.9441,-4.8592,-4.7197,-4.6193,-4.5471,-4.4151,-4.3185,-4.2631,-4.3248,-4.3105,-4.2489,-4.1825,-4.1358,-4.1008,0.0,0.0,0.0,0.0,0.0,0.0,0.0,0.0,0.0,-3.0736,-3.0911,-3.0986,-3.0986,-3.0477,-2.9918,-2.9483,-2.9551,-2.9486,0.0,0.0,-2.8504,-2.7778,-2.73,-2.714,-2.7334,-2.7314,-2.7458,-2.7745,-2.7569,-2.7463,-2.7376,-2.6566,-2.6084,-2.5797,-2.461,-2.3607,-2.2806,-2.2416,-2.1486,-2.0308,-2.0702,-2.1478,-2.2411,-2.2136,-2.2021,-2.2031,-2.1935,-2.2226,-2.2787,-2.3694,-2.4633,-2.5459,-2.5432,0.0,0.0,0.0,0.0,0.0,0.0,0.0,0.0,0.0,0.0,0.0,0.0,0.0,0.0,0.0,0.0,0.0,0.0,0.0,0.0,-4.5965,-4.7495,-4.8854,-4.9785,-5.0487,-5.1171,-5.1926,-5.2418,-5.2822,-5.3183,-5.3015,-5.3875,-5.621,-5.6666,-5.6824,-5.6824,-5.8211,-5.8,-5.5788,-5.6438,-5.5954,-5.4134,-5.4273,-5.3467,-5.177,-5.1614,0.0,-4.9447,-4.9154,-4.862,-4.7817,-4.6431,-4.5467,-4.4787,-4.3385,-4.2414,-4.1825,-4.1952,-4.192,-4.1778,-4.1636,-4.111,-4.052,0.0,0.0,0.0,0.0,0.0,0.0,0.0,0.0,0.0,0.0,-3.0723,-3.0719,-3.0433,-2.9973,-2.947,-2.8917,-2.8765,0.0,0.0,-2.8302,-2.7848,-2.6952,-2.6707,-2.6523,-2.6334,-2.6375,-2.6575,-2.6901,-2.6546,-2.6405,-2.639,-2.565,-2.5094,-2.4696,-2.3904,-2.29,-2.1779,-2.1344,-2.0445,-1.9359,-1.9509,-1.992,-2.0472,-2.0758,-2.1002,-2.1195,-2.1183,-2.1451,-2.1967,-2.3145,-2.4004,-2.472,-2.5466,-2.5877,-2.6154,0.0,0.0,0.0,0.0,0.0,0.0,0.0,0.0,0.0,0.0,0.0,0.0,0.0,0.0,-4.1959,-4.3062,0.0,-4.4995,-4.6533,-4.7783,-4.8679,-4.9047,-5.0136,-5.1031,-5.1417,-5.1786,-5.2172,-5.2558,-5.2593,-5.3559,-5.5876,-5.6052,-5.621,-5.6578,-5.7017,-5.6543,-5.4963,-5.4893,-5.4203,-5.2747,-5.2747,-5.2009,-5.0545,-5.0119,-4.9533,-4.8758,-4.8034,-4.7309,-4.6573,-4.5175,-4.4225,-4.3571,-4.2541,-4.19,-4.1588,-4.1588,-4.1588,-4.1588,-4.1588,-4.1269,-4.0772,0.0,0.0,0.0,0.0,0.0,0.0,0.0,0.0,0.0,0.0,0.0,-3.0466,-2.9951,-2.9499,-2.8917,0.0,0.0,0.0,0.0,-2.7934,-2.7546,-2.644,-2.6448,-2.6258,-2.5783,-2.555,-2.5716,-2.6312,-2.5773,-2.5441,-2.5356,-2.4846,-2.4267,-2.3577,-2.3135,-2.2182,-2.0901,-2.0193,-1.9474,-1.8785,-1.8577,-1.8494,-1.865,-1.9368,-1.999,-2.0498,-2.0611,-2.0912,-2.1371,-2.2481,-2.3262,-2.3996,-2.5279,-2.5972,-2.6287,-2.6526,-2.7038,0.0,0.0,0.0,0.0,0.0,0.0,0.0,0.0,-3.6591,-3.8112,-3.993,-4.1335,-4.261,-4.3788,-4.4449,-4.5356,-4.6908,-4.7836,-4.8345,-4.8293,-4.9539,-5.0452,-5.0452,-5.1242,-5.1803,-5.1803,-5.2365,-5.3436,-5.5156,-5.5279,-5.5543,-5.6122,-5.5753,-5.4998,-5.3892,-5.3418,-5.2551,-5.1192,-5.1459,-5.0847,-4.9367,-4.8838,-4.843,-4.8103,-4.6896,-4.6066,-4.549,-4.4102,-4.3061,-4.2365,-4.1802,-4.1588,-4.1588,-4.1588,-4.1588,-4.1588,-4.1588,-4.1411,-4.1105,0.0,0.0,0.0,0.0,0.0,0.0,0.0,0.0,0.0,0.0,0.0,0.0,0.0,0.0,0.0,0.0,0.0,0.0,-2.7523,-2.7723,-2.7307,-2.6113,-2.6233,-2.5898,-2.4934,-2.5118,-2.5355,-2.5605,-2.5783,-2.5645,-2.5203,-2.4614,-2.4082,-2.3547,-2.2206,-2.1144,-2.0333,-1.9497,-1.8721,-1.811,-1.8091,-1.8216,-1.8469,-1.8644,-1.9241,-1.9973,-1.9788,-2.0383,-2.1212,-2.1317,-2.2678,-2.4326,-2.4303,-2.5485,-2.6647,-2.5756,0.0,-2.7132,-2.7894,-2.9261,-3.1161,-3.4046,-3.4374,-3.5201,0.0,-4.0507,-4.0691,-4.2713,-4.3871,-4.4589,-4.4746,-4.5442,-4.6077,-4.6302,-4.7011,-4.752,-4.752,-4.8293,-4.8854,-4.8854,-5.0136,-5.1013,-5.1013,-5.1084,-5.2067,-5.4279,-5.4437,-5.4472,-5.4559,-5.5174,-5.4478,-5.232,-5.2857,-5.2099,-4.9771,-5.0976,-5.0105,-4.7155,-4.7617,-4.7103,-4.5776,-4.5604,-4.5491,-4.5341,-4.4059,-4.2816,-4.172,-4.1621,-4.1588,-4.1588,-4.1588,-4.1588,-4.1588,-4.1588,-4.1225,-4.0718,0.0,0.0,0.0,0.0,0.0,0.0,0.0,0.0,0.0,0.0,0.0,0.0,0.0,0.0,0.0,0.0,0.0,0.0,-2.749,-2.759,-2.7289,-2.657,-2.6276,-2.5847,-2.5287,-2.5067,-2.5047,-2.5216,-2.5135,-2.486,-2.4368,-2.3837,-2.3244,-2.2573,-2.1553,-2.0602,-1.965,-1.9,-1.8317,-1.7701,-1.7701,-1.7781,-1.7903,-1.8203,-1.8735,-1.9387,-1.9554,-1.9966,0.0,0.0,-2.268,-2.3764,-2.4908,-2.5814,-2.6358,-2.6058,-2.6781,0.0,-2.8952,-3.0978,-3.3004,-3.3904,-3.5187,-3.6912,-3.9513,-4.0305,-4.0989,-4.2666,-4.4013,-4.491,-4.491,-4.5615,-4.6196,-4.6196,-4.6888,-4.7239,-4.6783,-4.7766,-4.838,-4.7941,-4.9965,-5.1237,-5.0945,-5.1582,-5.2828,-5.4869,-5.4173,-5.4226,-5.556,-5.4279,-5.3243,-5.2699,-5.1708,-5.0398,-4.8819,-4.8878,-4.7968,-4.6091,-4.6287,-4.6017,-4.5397,-4.5397,-4.5194,-4.4824,-4.3529,-4.2663,-4.2142,-4.1737,-4.1588,-4.1541,-4.1162,-4.1257,-4.1588,-4.1588,-4.1415,-4.1162,0.0,0.0,0.0,0.0,0.0,0.0,0.0,0.0,0.0,0.0,0.0,0.0,0.0,0.0,0.0,0.0,0.0,0.0,0.0,-2.7222,-2.703,-2.6764,-2.6192,0.0,-2.5501,-2.5103,-2.4882,-2.4892,-2.4446,-2.4012,-2.3522,-2.3025,-2.2402,-2.1671,-2.0996,-2.0182,-1.9266,-1.8677,-1.809,-1.7505,-1.7505,-1.747,-1.7474,-1.8091,-1.8449,-1.8653,-1.9153,-1.9599,0.0,0.0,-2.2222,-2.3095,-2.4742,-2.5646,-2.6142,-2.6381,-2.7432,-2.872,-2.964,-3.1803,-3.383,-3.3796,-3.5664,-3.7868,-3.92,-4.0193,-4.1172,-4.2452,-4.3881,-4.491,-4.491,-4.5615,-4.6196,-4.6196,-4.6695,-4.6871,-4.6284,-4.7161,-4.7766,-4.7432,-4.9677,-5.1122,-5.0779,-5.2216,-5.3673,-5.4988,-5.3919,-5.3805,-5.5244,-5.3225,-5.2172,-5.2569,-5.0707,-4.9284,-4.8382,-4.7666,-4.6743,-4.5658,-4.57,-4.5604,-4.5397,-4.5397,-4.4961,-4.4157,-4.3259,-4.2632,-4.2253,-4.1611,-4.132,-4.1257,-4.0561,-4.0719,-4.1288,-4.1083,-4.1146,-4.1241,0.0,0.0,0.0,0.0,0.0,0.0,0.0,0.0,0.0,0.0,0.0,0.0,0.0,0.0,0.0,0.0,0.0,0.0,0.0,-2.6461,-2.6231,-2.642,-2.5838,-2.5422,-2.5229,-2.5219,-2.5017,-2.462,-2.3946,-2.3386,-2.2919,-2.2267,-2.169,-2.119,-2.0463,-1.9835,-1.9276,-1.8596,-1.8008,-1.7505,-1.7505,-1.7392,-1.7351,-1.8511,-1.8373,-1.7647,-1.8445,0.0,0.0,0.0,-2.0872,-2.2407,-2.2937,-2.4487,0.0,-2.6518,-2.7868,-2.9289,-2.9306,-3.0816,-3.2795,-3.4607,-3.5938,-3.7561,-4.0402,-4.1318,-4.1866,-4.2857,-4.4054,-4.491,-4.491,-4.5615,-4.6196,-4.6196,-4.6214,-4.6232,-4.6196,-4.6249,-4.6547,-4.7309,-4.8987,-5.015,-5.0401,-5.2572,-5.3991,-5.4036,-5.3517,-5.2874,-5.219,-5.2067,-5.1698,-5.0978,-5.0145,-4.9328,-4.8608,-4.8233,-4.73,-4.5812,-4.6306,-4.6138,-4.5397,-4.5397,-4.4708,-4.3542,-4.3482,-4.2754,-4.1574,-4.0893,-4.0625,-4.0561,-3.9819,-3.9977,-4.0546,-3.9835,-4.0024,-4.0625,0.0,0.0,0.0,0.0,0.0,0.0,0.0,0.0,0.0,0.0,0.0,0.0,0.0,0.0,0.0,0.0,0.0,0.0,0.0,-2.6496,-2.6739,-2.6809,-2.5973,-2.5511,-2.5598,-2.4945,-2.4373,-2.3943,-2.3695,-2.3118,-2.2249,-2.2002,-2.1514,-2.0764,-1.9802,-1.9144,-1.87,-1.7774,-1.7572,-1.785,-1.7304,-1.737,-1.7878,-1.854,-1.871,-1.8681,0.0,0.0,0.0,0.0,0.0,-2.251,-2.3651,-2.4708,-2.5848,-2.7129,-2.8473,-2.9676,-3.0537,-3.1913,-3.352,-3.5256,-3.6621,-3.8109,-4.0261,-4.1211,-4.1821,-4.2611,-4.3526,-4.4175,-4.4175,-4.4886,-4.5484,-4.5484,-4.5881,-4.6389,-4.6923,-4.7762,-4.859,-4.9305,-5.195,-5.3745,-5.3781,-5.4004,-5.3881,-5.3248,-5.3051,-5.2882,-5.2797,-5.1821,-5.1154,-5.0891,-4.9592,-4.8556,-4.7801,-4.7054,-4.6402,-4.5812,-4.5788,-4.5656,-4.5397,-4.5005,-4.4586,-4.4095,-4.2749,-4.1949,-4.1451,-4.0341,-3.9866,-3.985,-3.9598,-3.9645,-3.9835,-3.9598,-3.9092,-3.8602,0.0,0.0,0.0,0.0,0.0,0.0,0.0,0.0,0.0,0.0,0.0,0.0,0.0,0.0,0.0,0.0,0.0,0.0,0.0,0.0,-2.6082,-2.6082,-2.5523,-2.5345,-2.5576,-2.4939,-2.4402,-2.3997,-2.3581,-2.2837,-2.1771,-2.1406,-2.088,-2.0226,-1.966,-1.9248,-1.8897,-1.7902,-1.7769,-1.8154,-1.7656,-1.773,-1.8338,-1.9324,-1.9616,0.0,0.0,0.0,0.0,0.0,-2.1923,-2.2677,-2.3956,-2.5243,-2.648,-2.7657,-2.9086,-3.0451,-3.1286,-3.274,-3.4307,-3.5363,-3.6718,-3.8178,-3.9818,-4.0623,-4.1299,-4.225,-4.3049,-4.3613,-4.3613,-4.4429,-4.5098,-4.5098,-4.5705,-4.6639,-4.7925,-4.8585,-4.9585,-5.1347,-5.3417,-5.4923,-5.5453,-5.5175,-5.4667,-5.3947,-5.3478,-5.3078,-5.2779,-5.1575,-5.075,-5.0469,-4.9205,-4.8152,-4.7397,-4.6458,-4.5897,-4.5736,-4.5502,-4.5397,-4.5371,-4.4769,-4.4238,-4.3709,-4.2179,-4.1249,-4.0713,-3.961,-3.9281,-3.9455,-3.8965,-3.9076,-3.9408,-3.8681,-3.8318,-3.8191,0.0,0.0,0.0,0.0,0.0,0.0,0.0,0.0,0.0,0.0,0.0,0.0,0.0,0.0,0.0,0.0,0.0,0.0,0.0,0.0,0.0,-2.4516,-2.4648,-2.4882,-2.5215,-2.5177,-2.4996,-2.4686,-2.3574,-2.2536,-2.1607,-2.061,-1.9987,-1.9679,-1.9987,-2.0002,-1.9765,-1.8898,-1.854,-1.8511,-1.8485,-1.8501,-1.8773,-2.0736,0.0,0.0,0.0,0.0,0.0,0.0,-2.2115,-2.3017,-2.3917,-2.5948,-2.8032,-2.8059,-2.9664,-3.1509,-3.1567,-3.3238,-3.4972,-3.5033,-3.6242,-3.7828,-3.9139,-3.972,-4.0366,-4.1725,-4.269,-4.323,-4.3257,-4.4276,-4.5133,-4.5203,-4.5863,-4.7104,-4.9216,-4.8894,-4.9749,-5.322,-5.3489,-5.3989,-5.5456,-5.6115,-5.6322,-5.6031,-5.4773,-5.3451,-5.213,-5.1365,-5.0575,-4.9794,-4.8942,-4.8152,-4.7397,-4.6458,-4.5846,-4.5607,-4.5476,-4.5397,-4.5371,-4.4769,-4.3771,-4.2464,-4.1787,-4.0713,-3.9408,-3.8776,-3.8855,-3.9266,-3.8017,-3.8318,-3.9218,-3.7182,-3.7671,-3.9155,0.0,0.0,0.0,0.0,0.0,0.0,0.0,0.0,0.0,0.0,0.0,0.0,0.0,0.0,0.0,0.0,0.0,0.0,0.0,0.0,0.0,0.0,0.0,0.0,0.0,0.0,0.0,0.0,0.0,-2.2856,-2.1947,-2.115,-2.0738,-2.0634,-2.032,-2.0137,-2.0063,-1.9435,-1.9583,-2.0208,0.0,-1.9821,-2.0567,0.0,0.0,0.0,0.0,0.0,0.0,0.0,-2.3176,-2.4829,-2.5467,-2.6833,-2.8302,-2.8765,-2.9947,-3.1338,-3.2299,-3.3457,-3.4625,-3.5454,-3.6276,-3.7233,-3.8463,-3.9386,-4.0155,-4.0768,-4.1728,-4.2489,-4.2796,-4.4073,-4.5484,-4.6625,-4.7941,-4.9325,-5.0838,-5.221,-5.3347,-5.4038,-5.5981,-5.7196,-5.701,-5.767,-5.7891,-5.7436,-5.5626,-5.4056,-5.2948,-5.2155,-5.1365,-5.061,-4.924,-4.8152,-4.7397,-4.6357,-4.5838,-4.5761,-4.5502,-4.5397,-4.5371,-4.4769,-4.3771,-4.2464,-4.1787,-4.0456,-3.8744,-3.8586,-3.8318,-3.8017,-3.8175,-3.846,-3.8634,-3.7591,-3.7212,-3.6977,0.0,0.0,0.0,0.0,0.0,0.0,0.0,0.0,0.0,0.0,0.0,0.0,0.0,0.0,0.0,0.0,0.0,0.0,0.0,0.0,0.0,0.0,0.0,0.0,0.0,0.0,0.0,0.0,0.0,0.0,0.0,-2.1577,-2.121,-2.0726,-2.0594,-2.0601,-2.0705,0.0,0.0,0.0,0.0,0.0,0.0,0.0,0.0,0.0,0.0,0.0,0.0,0.0,-2.5078,-2.6242,-2.7085,-2.8152,-2.9154,-2.9491,-3.0768,-3.2241,-3.3042,-3.4218,-3.5393,-3.6072,-3.6646,-3.7229,-3.791,-3.8739,-3.9459,-3.9922,-4.0778,-4.1562,-4.2057,-4.3759,-4.5484,-4.6677,-4.8451,-5.0363,-5.2232,-5.352,-5.4638,-5.5591,-5.7161,-5.8141,-5.8048,-5.8438,-5.8489,-5.7928,-5.6254,-5.4741,-5.3609,-5.2267,-5.0996,-4.9872,-4.8661,-4.7661,-4.6888,-4.6174,-4.5795,-4.5812,-4.5528,-4.5397,-4.5353,-4.4412,-4.3267,-4.1951,-4.1004,-3.9622,-3.8065,-3.8065,-3.8002,-3.7938,-3.8017,-3.8239,-3.8397,-3.7385,-3.6959,-3.669,0.0,0.0,0.0,0.0,0.0,0.0,0.0,0.0,0.0,0.0,0.0,0.0,0.0,0.0,0.0,0.0,0.0,0.0,0.0,0.0,0.0,0.0,0.0,0.0,0.0,0.0,0.0,0.0,0.0,0.0,0.0,0.0,0.0,0.0,0.0,0.0,0.0,0.0,0.0,0.0,0.0,0.0,0.0,0.0,0.0,0.0,0.0,0.0,0.0,0.0,-2.7274,-2.74,-2.8466,-2.9416,-3.0165,-3.0336,-3.1778,-3.3394,-3.3758,-3.517,-3.6523,-3.6631,-3.7105,-3.7478,-3.7399,-3.7954,-3.8626,-3.9082,-3.9924,-4.0755,-4.1375,-4.3343,-4.5267,-4.6337,-4.8293,-5.0643,-5.3363,-5.3831,-5.4802,-5.7202,-5.7602,-5.7899,-5.8494,-5.8549,-5.8307,-5.7725,-5.6478,-5.527,-5.4195,-5.228,-5.0382,-4.8565,-4.7696,-4.6906,-4.6214,-4.5922,-4.5795,-4.5812,-4.5528,-4.5397,-4.5353,-4.4055,-4.2763,-4.147,-4.0319,-3.898,-3.7652,-3.7747,-3.7986,-3.8318,-3.7747,-3.7907,-3.8349,-3.6914,-3.688,-3.7304,0.0,0.0,0.0,0.0,0.0,0.0,0.0,0.0,0.0,0.0,-2.8673,0.0,0.0,0.0,0.0,0.0,0.0,0.0,0.0,0.0,0.0,0.0,0.0,0.0,0.0,0.0,0.0,0.0,0.0,0.0,0.0,0.0,0.0,0.0,0.0,0.0,0.0,0.0,0.0,0.0,0.0,0.0,0.0,0.0,0.0,0.0,0.0,0.0,0.0,0.0,-2.8825,-2.8441,-2.8649,-2.9459,-3.0541,-3.1598,-3.2433,-3.3249,-3.4369,-3.5565,-3.6523,-3.6523,-3.7014,-3.7322,-3.6738,-3.7561,-3.84,-3.8051,-3.9313,-4.0718,-4.1736,-4.3016,-4.4872,-4.7653,-4.8995,-5.082,-5.4062,-5.5076,-5.6002,-5.7351,-5.8103,-5.8289,-5.7769,-5.7713,-5.7394,-5.6626,-5.5533,-5.4921,-5.4919,-5.3561,-5.1487,-4.8679,-4.7161,-4.6337,-4.6196,-4.5922,-4.5795,-4.5812,-4.5528,-4.5397,-4.5353,-4.4616,-4.3569,-4.2299,-4.2113,0.0,-3.8381,-3.8918,-3.8555,-3.7668,-3.7557,-3.7907,-3.8349,-3.6914,-3.688,-3.7304,0.0,0.0,0.0,0.0,0.0,0.0,0.0,0.0,0.0,0.0,-2.9456,-2.917,0.0,0.0,0.0,0.0,0.0,0.0,0.0,0.0,0.0,0.0,0.0,0.0,0.0,0.0,0.0,-2.653,0.0,0.0,0.0,0.0,0.0,0.0,0.0,0.0,0.0,0.0,0.0,0.0,0.0,0.0,0.0,0.0,0.0,0.0,0.0,0.0,0.0,0.0,-2.9295,-2.9757,-3.0719,-3.1241,-3.1708,-3.2985,-3.3762,-3.4365,-3.5068,-3.5928,-3.6647,-3.6739,-3.7044,-3.7046,-3.5962,-3.69,-3.7796,-3.7064,-3.85,-4.0139,-4.1013,-4.2562,-4.4375,-4.6407,-4.8082,-5.0148,-5.3086,-5.4556,-5.5879,-5.7332,-5.8215,-5.8549,-5.8159,-5.7751,-5.7342,-5.6952,-5.5523,-5.4592,-5.4327,-5.2068,-4.9714,-4.7432,-4.66,-4.6196,-4.6196,-4.5998,-4.5871,-4.5795,-4.5607,-4.5476,-4.5353,-4.4344,-4.3384,-4.2431,-4.1379,-4.0007,-3.8507,-3.846,-3.8065,-3.751,-3.751,-3.7686,-3.7891,-3.7212,-3.7196,-3.7368,0.0,0.0,0.0,0.0,0.0,0.0,0.0,-2.9663,-2.9792,-2.9792,-2.9792,-2.9792,-2.9792,-2.9209,-2.8856,0.0,0.0,0.0,0.0,0.0,0.0,0.0,0.0,0.0,0.0,0.0,0.0,-2.6402,-2.685,0.0,0.0,0.0,0.0,0.0,-2.4612,0.0,0.0,0.0,0.0,0.0,0.0,0.0,0.0,0.0,0.0,0.0,0.0,0.0,0.0,0.0,-2.9614,-3.0764,-3.2643,-3.2936,-3.2834,-3.3964,-3.4842,-3.5464,-3.5706,-3.6243,-3.6723,-3.6908,-3.7044,-3.6803,-3.5407,-3.6292,-3.7258,-3.6545,-3.7962,-3.9594,-4.0392,-4.1994,-4.3523,-4.4605,-4.6594,-4.8986,-5.1782,-5.3621,-5.5373,-5.7297,-5.8215,-5.8568,-5.8234,-5.7621,-5.71,-5.6729,-5.4997,-5.3676,-5.3051,-5.0135,-4.7863,-4.6495,-4.6284,-4.6196,-4.6196,-4.6073,-4.5922,-4.5795,-4.5511,-4.5399,-4.5336,-4.3953,-4.3004,-4.2398,-4.0613,-3.9349,-3.8476,-3.7923,-3.7636,-3.7494,-3.7352,-3.7243,-3.7243,-3.7114,-3.6956,-3.6738,0.0,0.0,0.0,0.0,0.0,0.0,0.0,-2.9287,-2.9792,-2.9792,-2.9792,-2.9792,-2.9792,-2.9714,-2.9689,0.0,0.0,0.0,0.0,0.0,0.0,0.0,0.0,0.0,0.0,0.0,0.0,-2.7356,-2.7423,0.0,0.0,0.0,0.0,0.0,0.0,-2.466,-2.4696,0.0,0.0,0.0,0.0,0.0,0.0,0.0,0.0,0.0,0.0,0.0,0.0,0.0,0.0,-3.0843,-3.2772,-3.3302,-3.3369,-3.4154,-3.4872,-3.5544,-3.6211,-3.6569,-3.6693,-3.6723,-3.6862,-3.6685,-3.5378,-3.6189,-3.7181,-3.7044,-3.8179,-3.9584,-4.0799,-4.1256,-4.1952,-4.3576,-4.5075,-4.7322,-5.0891,-5.3113,-5.5138,-5.7243,-5.8215,-5.8141,-5.6655,-5.645,-5.5782,-5.4258,-5.2508,-5.1419,-5.1167,-4.9468,-4.8135,-4.7309,-4.6565,-4.6196,-4.6196,-4.6073,-4.5922,-4.5795,-4.4998,-4.488,-4.5336,-4.3953,-4.3004,-4.2448,-4.1656,-4.0248,0.0,-3.8444,-3.8049,-3.7447,-3.6769,-3.6487,-3.6424,-3.5821,-3.5157,-3.4668,0.0,0.0,0.0,0.0,0.0,0.0,0.0,-2.9585,-2.9792,-2.9792,-2.9792,-2.9792,-2.9792,-2.9792,-2.9792,0.0,0.0,0.0,0.0,0.0,0.0,0.0,0.0,0.0,0.0,0.0,0.0,-2.8582,-2.8582,0.0,0.0,0.0,0.0,0.0,0.0,-2.6809,-2.6889,0.0,0.0,0.0,0.0,0.0,0.0,0.0,0.0,0.0,0.0,0.0,-3.0146,-3.0387,-3.0757,0.0,-3.2005,-3.2751,0.0,0.0,-3.5231,-3.5598,-3.6306,-3.6554,-3.6569,-3.6569,-3.6399,-3.61,-3.5671,-3.6115,-3.6714,-3.714,-3.8282,-3.948,-4.0392,-4.124,-4.2084,-4.2905,0.0,0.0,-4.9459,-5.1161,-5.3283,-5.6409,-5.7063,-5.7193,-5.7045,-5.658,-5.5173,-5.2446,-5.1148,-4.9988,-4.8862,-4.8187,-4.7485,-4.6688,-4.6372,-4.6196,-4.6196,-4.6073,-4.572,-4.5125,-4.4686,-4.4577,-4.4673,-4.3289,-4.2766,-4.287,-4.1036,-3.9782,0.0,-3.8199,-3.748,-3.6817,-3.6503,-3.614,-3.5774,-3.5489,-3.492,-3.4336,0.0,0.0,0.0,0.0,0.0,0.0,-2.9326,-2.9624,-2.9792,-2.9792,-2.9792,-2.9792,-2.9792,-2.9792,-2.9792,-2.9792,0.0,0.0,0.0,0.0,0.0,0.0,0.0,0.0,0.0,0.0,0.0,-2.931,-2.931,-2.931,0.0,0.0,-2.931,-2.9261,0.0,0.0,0.0,0.0,0.0,0.0,0.0,0.0,0.0,0.0,0.0,0.0,0.0,0.0,0.0,0.0,0.0,0.0,0.0,0.0,0.0,0.0,-3.5322,-3.566,-3.6307,-3.6492,-3.6492,-3.6492,-3.6214,-3.5979,-3.6115,-3.6429,-3.6899,-3.7643,-3.8858,-3.9981,-4.0618,-4.1712,-4.251,0.0,0.0,-4.6327,-4.7913,-4.9746,-5.1985,-5.4851,-5.5633,-5.6042,-5.6376,-5.5689,-5.3996,-5.1048,-5.0112,-4.8982,-4.749,-4.7169,-4.68,-4.6214,-4.6196,-4.6172,-4.6147,-4.582,-4.5336,-4.463,-4.4079,-4.3867,-4.3923,-4.2706,-4.2351,-4.2561,-4.0545,-3.9438,0.0,-3.7921,-3.7069,-3.6377,-3.6172,-3.5695,-3.5015,-3.4648,-3.4004,-3.3403,0.0,0.0,0.0,0.0,0.0,0.0,0.0,-2.9248,-2.9792,-2.9792,-2.9792,-2.9792,-2.9792,-2.9792,-2.9792,-2.9792,0.0,0.0,0.0,0.0,0.0,0.0,0.0,0.0,0.0,0.0,0.0,0.0,0.0,-2.931,-2.931,-2.931,-2.931,-2.931,0.0,0.0,0.0,0.0,0.0,0.0,0.0,0.0,0.0,0.0,0.0,0.0,0.0,0.0,0.0,0.0,0.0,0.0,0.0,0.0,0.0,0.0,-3.4982,-3.566,-3.6307,-3.6492,-3.6492,-3.6492,-3.6492,-3.6553,-3.6743,-3.731,-3.7995,-3.8824,-4.0146,-4.1333,-4.1877,-4.2694,-4.3044,-4.2299,-4.4441,0.0,-4.6313,-4.9247,-5.1714,-5.2549,-5.4054,-5.4704,-5.3924,-5.3107,-5.1909,-5.0137,-4.926,-4.8412,-4.7455,-4.6635,-4.6214,-4.6196,-4.6196,-4.6122,-4.5998,-4.5296,-4.4771,-4.448,-4.2954,-4.2569,-4.3172,-4.2354,-4.1721,-4.1187,-4.0554,-3.955,0.0,-3.7714,-3.7069,-3.6329,-3.5679,-3.4952,-3.4146,-3.2813,-3.1855,-3.1349,0.0,0.0,0.0,0.0,0.0,0.0,0.0,-2.9624,-2.9792,-2.9792,-2.9792,-2.9792,-2.9792,-2.9792,-2.9792,-2.9792,0.0,0.0,0.0,0.0,0.0,0.0,0.0,0.0,0.0,0.0,0.0,0.0,0.0,0.0,0.0,0.0,-3.239,-3.1942,-3.1599,-3.1406,0.0,0.0,0.0,0.0,0.0,0.0,0.0,0.0,0.0,0.0,0.0,0.0,0.0,0.0,0.0,0.0,0.0,0.0,0.0,0.0,0.0,0.0,-3.6123,-3.6413,-3.6641,-3.7523,-3.74,-3.721,-3.7945,-3.791,-3.8253,-4.012,-4.0857,-4.1529,-4.2607,-4.3456,-4.3938,-4.3796,-4.5187,0.0,0.0,0.0,-5.0845,-5.2419,-5.4017,-5.4686,-5.3887,-5.2284,-5.0708,-4.9285,-4.8123,-4.7237,-4.6614,-4.5846,-4.567,-4.6179,-4.5705,-4.5442,-4.5393,-4.4418,-4.3652,-4.3075,-4.2386,-4.1902,-4.1619,-4.136,-4.0933,-4.035,-3.9804,-3.9062,-3.8218,-3.7189,-3.6342,-3.56,-3.4415,-3.353,-3.2876,-3.2449,-3.1548,-3.0749,0.0,0.0,0.0,0.0,0.0,0.0,0.0,-2.9792,-2.9792,-2.9792,-2.9792,-2.9792,-2.9792,-2.998,-3.0105,-3.0105,0.0,0.0,0.0,0.0,0.0,0.0,0.0,0.0,0.0,0.0,0.0,0.0,0.0,0.0,0.0,0.0,0.0,0.0,-3.2953,0.0,0.0,0.0,0.0,0.0,0.0,0.0,-3.4047,0.0,0.0,0.0,0.0,0.0,0.0,0.0,0.0,0.0,0.0,0.0,0.0,0.0,-3.5367,-3.5112,0.0,-3.6956,-3.731,-3.8096,-3.7982,-3.791,-3.8761,-3.8863,-3.9279,-4.107,-4.1886,-4.2561,-4.3441,-4.4225,-4.4639,-4.4448,-4.547,-4.646,-4.6905,-4.8492,-5.0347,-5.2419,-5.3251,-5.3384,-5.2692,-5.1202,-4.9645,-4.8175,-4.7357,-4.6571,-4.5817,-4.5361,-4.5185,-4.5319,-4.4887,-4.4594,-4.4498,-4.3561,-4.2814,-4.2233,-4.1812,-4.1343,-4.0912,-4.0912,-4.0573,-3.9978,-3.9428,-3.8701,0.0,-3.6552,-3.5473,-3.4494,-3.3356,-3.2487,-3.1864,-3.1596,-3.0947,-3.0394,0.0,0.0,0.0,0.0,0.0,0.0,0.0,0.0,0.0,0.0,-2.9792,-2.9792,-2.9792,-3.0281,-3.062,0.0,0.0,0.0,0.0,0.0,0.0,0.0,0.0,0.0,0.0,0.0,0.0,0.0,-3.444,-3.4787,-3.5334,0.0,0.0,0.0,0.0,0.0,0.0,0.0,0.0,0.0,0.0,0.0,0.0,0.0,0.0,0.0,0.0,0.0,0.0,0.0,0.0,0.0,0.0,0.0,0.0,0.0,0.0,0.0,0.0,-3.786,-3.8298,-3.8418,-3.8467,-3.8678,-3.9322,-4.0081,0.0,-4.1714,-4.3065,-4.4147,-4.4354,-4.4941,-4.5173,-4.4501,-4.5424,-4.6262,-4.631,-4.808,-5.0218,-5.2474,-5.1905,-5.1157,-5.066,-4.9881,-4.8709,-4.703,-4.6809,-4.6282,-4.5157,-4.4992,-4.4589,-4.3834,-4.3763,-4.3629,-4.3461,-4.2688,-4.2211,-4.1937,-4.124,-4.0877,-4.0825,-4.0778,-4.0422,-3.9775,-3.9208,-3.8253,-3.6982,-3.5757,-3.4446,-3.3166,-3.2434,-3.1713,-3.1065,-3.0441,-3.0172,-3.0141,0.0,0.0,0.0,0.0,0.0,0.0,0.0,0.0,0.0,0.0,-2.9792,-2.9792,-2.9792,-3.0281,-3.062,0.0,0.0,0.0,0.0,0.0,0.0,0.0,0.0,0.0,0.0,0.0,0.0,-3.5047,-3.6611,-3.7231,-3.6891,-3.7386,0.0,0.0,0.0,0.0,0.0,0.0,0.0,0.0,0.0,0.0,0.0,0.0,0.0,0.0,-3.6615,-3.6722,0.0,0.0,0.0,0.0,0.0,0.0,0.0,0.0,-3.6447,-3.7547,-3.7849,0.0,-3.8467,-3.9425,-4.0115,-4.0452,0.0,-4.1085,-4.2164,-4.2612,0.0,-4.4302,-4.5018,-4.5276,-4.5328,-4.5156,-4.5416,-4.5768,-4.6238,-4.7954,-4.9927,-5.1958,-5.1353,-5.0512,-4.9867,-4.8959,-4.8003,-4.6985,-4.6047,-4.5351,-4.4959,-4.3927,-4.3208,-4.2905,-4.231,-4.2293,-4.2969,-4.2067,-4.1551,-4.1395,-4.1163,-4.0671,-3.9974,-3.9604,-3.8804,-3.7677,-3.7121,-3.6174,-3.495,-3.4121,-3.3293,-3.2418,-3.1184,-3.0599,-3.0425,-3.0267,-2.9832,-2.9493,0.0,0.0,0.0,0.0,0.0,0.0,0.0,0.0,0.0,0.0,0.0,0.0,0.0,0.0,0.0,0.0,0.0,0.0,0.0,0.0,0.0,0.0,0.0,0.0,0.0,0.0,0.0,0.0,0.0,-3.8517,0.0,0.0,0.0,0.0,0.0,0.0,0.0,0.0,0.0,0.0,-3.6344,0.0,0.0,0.0,0.0,0.0,-3.6615,-3.6722,0.0,-3.6615,-3.6492,-3.643,0.0,0.0,0.0,0.0,-3.7177,-3.7926,-3.877,-3.9041,-3.9244,-3.9919,-4.0646,-4.1044,-4.0358,0.0,0.0,0.0,0.0,0.0,-4.5302,-4.5397,-4.5397,-4.5397,-4.5397,-4.5753,-4.6803,-4.8288,-4.9699,-5.0854,-5.0424,-4.9656,-4.8743,-4.794,-4.7009,-4.5982,-4.5339,-4.4644,-4.3807,-4.3098,-4.2351,-4.1565,-4.1173,-4.1375,-4.2163,-4.159,-4.1249,-4.1152,-4.1117,-4.0608,-3.9675,-3.9211,-3.8092,-3.6506,-3.5974,-3.4844,-3.3335,-3.2629,-3.1934,-3.1232,-3.0133,-2.9706,-2.9706,-2.9706,-2.943,-2.9209,0.0,0.0,0.0,0.0,0.0,0.0,0.0,0.0,0.0,0.0,0.0,0.0,0.0,0.0,0.0,0.0,0.0,0.0,0.0,0.0,0.0,0.0,0.0,0.0,0.0,0.0,0.0,0.0,0.0,0.0,0.0,0.0,0.0,0.0,0.0,0.0,0.0,0.0,0.0,0.0,-3.6915,0.0,0.0,0.0,0.0,0.0,0.0,0.0,0.0,-3.6522,-3.6492,-3.6476,-3.6368,0.0,0.0,0.0,0.0,0.0,-3.9623,-4.018,-4.0282,-4.0282,-4.0899,-4.1339,-4.062,0.0,0.0,0.0,0.0,0.0,0.0,-4.5397,0.0,0.0,-4.5397,-4.5931,-4.7465,-4.8458,-4.9109,-4.9401,-4.9099,-4.8504,-4.7601,-4.6832,-4.5911,-4.4799,-4.4586,-4.3836,-4.2264,-4.2207,-4.156,-4.0145,-4.0202,-4.0569,-4.1228,-4.1121,-4.0954,-4.077,-4.099,-4.0487,-3.9353,-3.8864,-3.7571,-3.5636,-3.4978,0.0,-3.1928,-3.1302,-3.0654,-2.9959,-2.9335,-2.9098,-2.9098,-2.9098,-2.9098,-2.9098,0.0,0.0,0.0,0.0,0.0,0.0,0.0,0.0,0.0,0.0,0.0,0.0,0.0,0.0,0.0,0.0,0.0,0.0,0.0,0.0,0.0,0.0,0.0,0.0,0.0,0.0,0.0,0.0,0.0,0.0,-3.996,-4.0065,-3.9872,0.0,0.0,0.0,-3.8427,-3.8335,-3.8383,-3.8413,-3.7629,0.0,0.0,0.0,0.0,0.0,0.0,0.0,0.0,-3.6676,-3.6492,-3.6384,-3.5814,0.0,0.0,0.0,0.0,0.0,-3.9842,-4.0544,-4.1035,-4.1035,-4.2066,-4.2878,-4.2117,0.0,0.0,0.0,0.0,0.0,0.0,-4.5327,-4.5397,0.0,-4.5397,-4.5931,-4.7465,-4.7133,-4.698,-4.7678,-4.7221,-4.6808,-4.6678,-4.5666,-4.4925,-4.4739,-4.3495,-4.2358,-4.1354,-4.0769,-4.0087,-3.9216,-3.9221,-3.963,-4.0464,-4.0442,-4.0044,-3.9347,-4.0516,-3.9934,-3.7818,-3.728,-3.599,-3.4078,0.0,-3.1694,-3.0504,-3.041,-2.9927,-2.9256,-2.9146,-2.9098,-2.9098,-2.9098,-2.9098,-2.9098,0.0,0.0,0.0,0.0,0.0,0.0,0.0,0.0,0.0,0.0,0.0,0.0,0.0,0.0,0.0,0.0,0.0,0.0,0.0,0.0,0.0,0.0,0.0,0.0,0.0,0.0,0.0,0.0,0.0,-3.9925,-4.0011,-4.0261,-4.0267,-4.0028,0.0,0.0,-3.9551,-3.9182,-3.9228,-3.9474,0.0,0.0,0.0,0.0,0.0,0.0,0.0,0.0,0.0,0.0,-3.6492,-3.6492,-3.6533,0.0,0.0,0.0,0.0,0.0,-3.9935,-4.0942,-4.1779,-4.1779,-4.2608,-4.3189,-4.2472,0.0,0.0,0.0,0.0,0.0,0.0,0.0,-4.6173,-4.6569,-4.631,-4.632,-4.7027,-4.6628,-4.6274,-4.6315,-4.5968,-4.5633,-4.5341,-4.4505,-4.3791,-4.3284,-4.2274,-4.1296,-4.0401,-3.973,-3.9033,-3.8269,-3.8299,-3.8136,-3.7707,-3.8063,-3.8451,-3.8894,-3.9123,-3.8209,-3.6228,-3.5487,-3.4213,-3.2553,0.0,-3.0458,-2.9611,-2.9611,-2.9422,-2.9098,-2.9098,-2.9098,-2.9098,-2.9098,-2.9098,-2.9075,0.0,0.0,0.0,0.0,0.0,0.0,0.0,0.0,0.0,0.0,0.0,0.0,0.0,0.0,0.0,0.0,0.0,0.0,0.0,0.0,0.0,0.0,0.0,0.0,0.0,0.0,0.0,-3.8772,-3.9597,-4.0031,-4.0137,-4.0366,-4.0489,0.0,0.0,0.0,-4.0459,-3.9936,-4.0013,-4.0397,0.0,0.0,0.0,0.0,0.0,0.0,0.0,0.0,0.0,0.0,0.0,0.0,0.0,0.0,0.0,-3.8777,-3.9437,-4.0041,-4.0492,-4.1585,-4.2591,-4.2777,-4.3115,-4.3341,-4.3132,-4.3887,0.0,0.0,0.0,0.0,0.0,-4.5799,-4.6579,-4.7338,-4.682,-4.6389,-4.6579,-4.6316,-4.5858,-4.5217,-4.5035,-4.4747,-4.4103,-4.3462,-4.2708,-4.1809,-4.1144,-4.0297,-3.9255,-3.8753,-3.8144,-3.7369,-3.7262,-3.6751,-3.574,-3.5922,-3.6575,-3.7715,-3.7486,-3.6419,-3.4642,-3.4004,-3.2835,-3.131,-3.0477,-2.9728,-2.9098,-2.9098,-2.9098,-2.9098,-2.9098,-2.9098,-2.9098,-2.9098,-2.9098,-2.9075,0.0,0.0,0.0,0.0,0.0,0.0,0.0,0.0,0.0,0.0,0.0,0.0,0.0,0.0,0.0,0.0,0.0,0.0,0.0,0.0,0.0,0.0,0.0,0.0,0.0,-3.9284,-3.9529,-3.9884,-3.9945,-4.0172,-4.0455,-4.0489,-4.0489,-4.0489,0.0,0.0,-4.0489,-4.0443,-4.0443,-4.0428,-3.9705,0.0,0.0,0.0,0.0,0.0,0.0,0.0,0.0,0.0,0.0,0.0,0.0,0.0,-3.9124,-3.8545,-4.0133,-4.2108,-4.2134,-4.2726,-4.3504,-4.4259,-4.391,0.0,-4.5145,-4.501,0.0,-4.5415,0.0,0.0,0.0,-4.5272,-4.5742,-4.6562,-4.6,-4.5742,-4.651,-4.595,-4.52,-4.4466,-4.4354,-4.4086,-4.3345,-4.2551,-4.1792,-4.105,-4.0256,-3.9169,-3.7754,-3.7616,-3.7279,-3.6606,-3.5916,-3.5847,-3.6437,-3.5164,-3.4538,-3.4545,-3.5794,-3.5214,-3.3074,-3.3322,-3.2383,-3.0543,-3.0049,-2.9547,-2.9098,-2.9098,-2.9098,-2.9098,-2.9098,-2.9098,-2.9098,-2.9098,-2.9098,-2.9075,0.0,0.0,0.0,0.0,0.0,0.0,0.0,0.0,0.0,0.0,0.0,0.0,0.0,0.0,0.0,0.0,0.0,0.0,0.0,0.0,0.0,0.0,0.0,-3.9388,-3.9388,-3.9388,-3.9532,-3.9803,-4.0051,-4.0296,-4.0489,-4.0489,0.0,0.0,0.0,0.0,-4.0489,-4.0489,-4.0489,-4.0474,-4.0213,-4.0105,0.0,0.0,0.0,0.0,0.0,0.0,0.0,0.0,-3.8338,-3.8188,0.0,0.0,-4.0021,-4.0148,-4.1177,-4.2286,-4.2286,-4.2844,-4.346,-4.3792,-4.3639,0.0,0.0,-4.5145,-4.5229,-4.5043,-4.5479,0.0,0.0,0.0,-4.6247,-4.7138,-4.6638,-4.6069,-4.588,-4.5199,-4.444,-4.3707,-4.3172,-4.2585,-4.1843,-4.105,-4.025,-3.9531,-3.8772,-3.8099,-3.753,-3.7047,-3.6632,-3.6381,-3.5655,-3.5172,-3.5019,-3.4079,-3.358,-3.3505,-3.4096,-3.3627,-3.2271,-3.2147,-3.1527,-3.0522,-3.0032,-2.9522,-2.9098,-2.9098,-2.9098,-2.9098,-2.9098,-2.9098,-2.9098,-2.9098,-2.9098,-2.9075,0.0,0.0,0.0,0.0,0.0,0.0,0.0,0.0,0.0,0.0,0.0,0.0,0.0,0.0,0.0,0.0,0.0,0.0,0.0,0.0,0.0,0.0,0.0,-3.9424,-3.9481,-3.9481,-3.9589,-3.9803,-4.0156,-4.0401,-4.0489,0.0,0.0,0.0,0.0,0.0,0.0,0.0,-4.0489,-4.0489,-4.0489,-4.0489,0.0,0.0,0.0,0.0,0.0,0.0,0.0,0.0,0.0,0.0,0.0,0.0,0.0,0.0,-4.1972,-4.2963,-4.2726,-4.32,-4.3792,-4.3792,0.0,0.0,-4.4479,-4.4976,-4.528,-4.4993,-4.5409,-4.5802,-4.5812,0.0,0.0,-4.6525,-4.6173,-4.5596,-4.482,-4.4251,-4.3672,-4.2913,-4.2137,-4.136,-4.0601,-3.9802,-3.9043,-3.8323,-3.7806,-3.7392,-3.7129,-3.637,-3.5956,-3.5956,-3.499,-3.4231,-3.3734,-3.3107,-3.2763,-3.2689,-3.2838,-3.2682,-3.2295,-3.1848,-3.1263,-3.0563,-3.0016,-2.9522,-2.9098,-2.9098,-2.9098,-2.9098,-2.9098,-2.9098,-2.9098,-2.9098,-2.9098,-2.9075,0.0,0.0,0.0,0.0,0.0,0.0,0.0,0.0,0.0,0.0,0.0,0.0,0.0,0.0,0.0,0.0,0.0,0.0,0.0,0.0,0.0,0.0,0.0,-3.9481,-3.9681,-3.9717,-3.9803,-4.0011,-4.0331,-4.0489,-4.0489,-4.0489,0.0,0.0,0.0,0.0,0.0,0.0,0.0,-4.0524,-4.0524,-4.0524,-4.0524,0.0,0.0,0.0,0.0,0.0,0.0,0.0,-4.0078,0.0,0.0,0.0,0.0,0.0,-4.2406,-4.4445,-4.3639,-4.3995,-4.4615,0.0,0.0,0.0,-4.4615,-4.4615,-4.4835,-4.5551,-4.5644,-4.5424,-4.4896,-4.5433,0.0,-4.4285,-4.4191,-4.4035,-4.3293,-4.3172,-4.2879,-4.2061,-4.1343,-4.0567,-3.975,-3.9008,-3.8267,-3.7547,-3.7478,-3.7133,-3.6335,-3.5576,-3.518,-3.518,-3.3697,-3.2904,-3.2904,-3.2365,-3.2001,-3.1817,-3.209,-3.2563,-3.3168,-3.264,-3.1739,-3.0563,-3.0054,-2.9544,-2.9098,-2.9098,-2.9098,-2.9098,-2.9098,-2.9098,-2.9098,-2.9098,-2.9098,-2.9075,0.0,0.0,0.0,0.0,0.0,0.0,0.0,0.0,0.0,0.0,0.0,0.0,0.0,0.0,0.0,0.0,0.0,0.0,0.0,0.0,0.0,0.0,0.0,0.0,0.0,0.0,-4.0493,-4.0207,-4.0401,-4.0489,0.0,0.0,0.0,-4.1176,0.0,0.0,0.0,0.0,0.0,0.0,-4.1706,-4.1901,0.0,0.0,0.0,0.0,0.0,0.0,0.0,0.0,0.0,0.0,0.0,0.0,0.0,-4.265,-4.3551,-4.4564,-4.4327,-4.4429,0.0,-4.4615,0.0,0.0,0.0,-4.4993,0.0,0.0,-4.4822,-4.4041,-4.4038,-4.3774,0.0,-4.3211,-4.3306,-4.3107,-4.2334,-4.1839,-4.1291,-4.0474,-3.9715,-3.8974,-3.8237,-3.7961,-3.7512,-3.6715,-3.618,-3.5766,-3.5525,-3.4818,-3.4441,-3.4441,-3.3421,-3.2904,-3.2904,-3.2274,-3.2207,-3.2706,-3.2837,-3.2699,-3.2277,-3.2113,-3.1504,-3.0584,-3.0377,-2.9837,-2.9098,-2.9098,-2.9098,-2.9098,-2.9098,-2.9098,-2.9098,-2.9098,-2.892,-2.8669,0.0,0.0,0.0,0.0,0.0,0.0,0.0,0.0,0.0,0.0,0.0,0.0,0.0,0.0,0.0,0.0,0.0,0.0,0.0,0.0,0.0,0.0,0.0,0.0,0.0,-4.0615,-4.0904,0.0,0.0,0.0,0.0,0.0,0.0,-4.1868,0.0,-4.1276,0.0,0.0,0.0,0.0,0.0,-4.2332,0.0,0.0,0.0,0.0,0.0,0.0,0.0,0.0,0.0,0.0,0.0,0.0,0.0,-4.3106,-4.381,-4.4615,-4.4615,-4.4615,0.0,-4.4615,-4.4615,-4.4615,-4.4615,0.0,0.0,0.0,-4.4211,-4.3598,-4.3209,-4.2987,0.0,-4.2296,-4.2108,-4.1728,-4.0981,-4.0322,-3.9738,-3.9301,-3.8594,-3.7996,-3.7547,-3.696,-3.6391,-3.5904,-3.518,-3.4749,-3.4749,-3.4024,-3.3785,-3.4096,-3.3024,-3.261,-3.2904,-3.1926,-3.1824,-3.2566,-3.2348,-3.2122,-3.1874,-3.2205,-3.1741,-3.0584,-3.0123,-2.9633,-2.9098,-2.9098,-2.9098,-2.9098,-2.9098,-2.894,-2.8688,-2.8688,-2.8535,-2.828,0.0,0.0,0.0,0.0,0.0,0.0,0.0,0.0,0.0,0.0,0.0,0.0,0.0,0.0,0.0,0.0,0.0,0.0,0.0,0.0,0.0,0.0,0.0,0.0,0.0,0.0,0.0,0.0,0.0,0.0,0.0,0.0,-4.1965,-4.2552,0.0,-4.1901,0.0,0.0,0.0,0.0,0.0,0.0,0.0,0.0,0.0,0.0,0.0,0.0,0.0,0.0,0.0,0.0,0.0,0.0,-4.252,-4.252,-4.3426,-4.4412,-4.4468,-4.4514,0.0,-4.457,-4.4615,0.0,-4.4615,-4.4615,-4.435,-4.3589,0.0,-4.364,-4.2426,-4.2629,-4.2612,-4.1367,-4.0728,-4.0134,-3.9459,-3.8757,-3.8362,-3.8469,-3.7836,-3.7374,-3.7305,-3.6008,-3.5163,-3.5094,-3.4424,-3.4027,-3.4113,-3.3335,-3.3231,-3.3975,-3.2628,-3.2162,-3.2697,-3.1425,-3.1044,-3.1576,-3.0958,-3.0992,-3.161,-3.2494,-3.2042,-3.0481,-2.9457,-2.9019,-2.9019,-2.9019,-2.8972,-2.8925,-2.8988,-2.8616,-2.8,-2.8,-2.7977,-2.7816,0.0,0.0,0.0,0.0,0.0,0.0,0.0,0.0,0.0,0.0,0.0,0.0,0.0,0.0,0.0,0.0,0.0,0.0,0.0,0.0,0.0,0.0,0.0,0.0,0.0,0.0,0.0,0.0,0.0,0.0,0.0,0.0,0.0,-4.3227,0.0,-4.2173,0.0,0.0,0.0,0.0,0.0,0.0,0.0,0.0,0.0,0.0,0.0,0.0,0.0,0.0,0.0,0.0,-4.1885,-4.2269,-4.252,-4.252,-4.2707,-4.3061,-4.3588,-4.3752,0.0,0.0,-4.4615,-4.4615,-4.4615,-4.4615,-4.435,-4.3589,-4.3037,-4.2462,-4.1585,-4.1087,-4.0517,-3.9655,-3.9491,-3.9231,-3.8495,-3.7889,-3.7543,-3.7588,-3.6982,-3.6318,-3.5749,-3.5387,-3.4956,-3.4389,-3.3593,-3.3421,-3.4079,-3.3335,-3.299,-3.3145,-3.2835,-3.2179,-3.1179,-3.087,-3.049,-2.9989,-2.9851,-2.9851,-3.0023,-3.1054,-3.0959,-2.9913,-2.8806,-2.8316,-2.8316,-2.8316,-2.8,-2.7589,-2.811,-2.7905,-2.732,-2.732,-2.713,-2.6736,0.0,0.0,0.0,0.0,0.0,0.0,0.0,0.0,0.0,0.0,0.0,0.0,0.0,0.0,0.0,0.0,0.0,0.0,0.0,0.0,0.0,0.0,0.0,0.0,0.0,0.0,0.0,0.0,0.0,0.0,0.0,0.0,0.0,-4.3453,0.0,-4.2738,0.0,0.0,0.0,0.0,0.0,0.0,0.0,0.0,0.0,-4.3972,-4.3273,0.0,0.0,0.0,0.0,0.0,0.0,0.0,-4.2013,-4.2013,-4.2237,-4.2583,-4.2923,0.0,0.0,-4.3914,0.0,-4.4615,-4.4615,-4.4615,-4.4276,-4.3115,-4.2574,-4.1965,-4.0865,-4.0367,-3.9859,-3.9106,-3.8749,-3.833,-3.7619,-3.6984,-3.6503,-3.6234,-3.5903,-3.5411,-3.4731,-3.4318,-3.4093,-3.4113,-3.3352,-3.3076,-3.349,-3.3128,-3.2904,-3.2904,-3.2214,-3.1645,-3.1231,-3.0127,-2.9575,-2.9506,-2.9144,-2.9059,-2.9227,-2.9792,-2.9691,-2.905,-2.8217,-2.7768,-2.762,-2.762,-2.7415,-2.713,-2.7478,-2.7194,-2.6577,-2.6577,-2.627,-2.5714,0.0,0.0,0.0,0.0,0.0,0.0,0.0,0.0,0.0,0.0,0.0,0.0,0.0,0.0,0.0,0.0,0.0,0.0,0.0,0.0,0.0,0.0,0.0,0.0,0.0,0.0,0.0,0.0,0.0,0.0,0.0,0.0,0.0,-4.3647,0.0,0.0,0.0,0.0,0.0,0.0,0.0,0.0,0.0,0.0,0.0,-4.3617,-4.3045,-4.2395,-4.1804,-4.1804,0.0,0.0,0.0,0.0,-4.1309,-4.1343,-4.1706,-4.2173,-4.23,0.0,-4.2645,-4.3196,-4.3869,0.0,-4.4412,-4.4514,-4.4175,-4.2608,-4.2286,-4.1856,-4.0367,-4.0096,-3.9825,-3.8937,-3.8311,-3.7574,-3.6622,-3.5982,-3.5406,-3.4829,-3.4768,-3.4538,-3.3896,-3.3261,-3.316,-3.3815,-3.3283,-3.2955,-3.3093,-3.311,-3.3041,-3.2904,-3.1593,-3.1058,-3.1403,-2.9403,-2.8644,-2.911,-2.8506,-2.8373,-2.8622,-2.8622,-2.8468,-2.8154,-2.7648,-2.7244,-2.6909,-2.6909,-2.6846,-2.6751,-2.6862,-2.6467,-2.5819,-2.5819,-2.5456,-2.478,0.0,0.0,0.0,0.0,0.0,0.0,0.0,0.0,0.0,0.0,0.0,0.0,0.0,0.0,0.0,0.0,0.0,0.0,-3.9343,0.0,0.0,-4.2155,-4.3466,0.0,0.0,0.0,0.0,0.0,0.0,0.0,0.0,0.0,0.0,-4.4412,0.0,0.0,0.0,0.0,0.0,0.0,0.0,0.0,0.0,0.0,0.0,0.0,-4.4338,-4.3785,-4.3047,-4.3047,-4.2126,0.0,0.0,0.0,-4.0489,-4.0593,-4.0715,-4.0904,0.0,0.0,-4.252,0.0,-4.3136,-4.3647,0.0,0.0,-4.4175,0.0,-4.2286,-4.1856,-4.0367,-4.0096,-3.9656,-3.8278,-3.7973,-3.7178,-3.5103,-3.4834,-3.458,-3.387,-3.3905,-3.3659,-3.2889,-3.2796,-3.2855,-3.2958,-3.2915,-3.3197,-3.3906,-3.3941,-3.3611,-3.2921,-3.2093,-3.1058,-2.9834,-2.8868,-2.8127,-2.7592,-2.7489,-2.7473,-2.7512,-2.7512,-2.7584,-2.7648,-2.7008,-2.6507,-2.6151,-2.6151,-2.5787,-2.5333,-2.5914,-2.5724,-2.5128,-2.5128,-2.4755,-2.4143,0.0,0.0,0.0,0.0,0.0,0.0,0.0,0.0,0.0,0.0,0.0,0.0,0.0,0.0,0.0,-3.7355,-3.8383,-3.9448,-4.0519,-4.1774,-4.2354,-4.1999,-4.3429,-4.3949,0.0,0.0,0.0,0.0,0.0,0.0,0.0,-4.397,-4.4384,0.0,0.0,0.0,0.0,0.0,0.0,0.0,0.0,0.0,0.0,0.0,0.0,0.0,-4.4315,-4.3831,-4.3141,-4.2724,-4.2142,-4.1491,-4.0783,0.0,0.0,0.0,-4.0226,-4.0296,-4.0715,-4.136,-4.1933,0.0,-4.2442,-4.3045,-4.3406,-4.3735,-4.3669,-4.2537,-4.2286,-4.1856,-4.0367,-4.0096,-3.9757,-3.8684,-3.8176,-3.7263,-3.5385,-3.4803,-3.419,-3.3114,-3.3036,-3.279,-3.2044,-3.241,-3.2897,-3.3385,-3.3441,-3.3655,-3.4076,-3.3662,-3.3076,-3.2317,-3.1127,-3.0196,-2.9506,-2.8368,-2.7609,-2.7299,-2.7299,-2.7299,-2.7299,-2.7299,-2.7097,-2.6751,-2.6456,-2.6002,-2.5444,-2.5444,-2.527,-2.5037,-2.5318,-2.5254,-2.5005,-2.5005,-2.4574,-2.39,0.0,0.0,0.0,0.0,0.0,0.0,0.0,0.0,0.0,0.0,0.0,0.0,0.0,0.0,0.0,0.0,-3.8431,-3.9878,-4.1404,-4.231,-4.2664,-4.2333,-4.3877,-4.4252,-4.3206,0.0,0.0,0.0,0.0,0.0,-4.3924,-4.3791,-4.401,0.0,-4.3897,-4.385,0.0,0.0,0.0,0.0,0.0,0.0,0.0,0.0,0.0,0.0,0.0,-4.3759,-4.3235,-4.2678,-4.2237,-4.1769,-4.0783,-4.0562,0.0,0.0,0.0,-4.0031,0.0,0.0,-4.1142,-4.1176,-4.1706,-4.2332,0.0,0.0,-4.301,0.0,-4.193,-4.1439,-4.0094,-3.9995,-3.9859,-3.9106,-3.8531,-3.7516,-3.5583,-3.4844,-3.3922,-3.2357,-3.2173,-3.204,-3.1728,-3.2244,-3.3,-3.4042,-3.3942,-3.39,-3.4037,-3.3296,-3.2471,-3.1541,-3.0213,-2.942,-2.923,-2.7937,-2.7299,-2.7299,-2.7092,-2.7006,-2.6988,-2.6799,-2.6329,-2.5679,-2.5974,-2.5723,-2.5127,-2.5045,-2.5005,-2.5005,-2.5005,-2.5005,-2.5001,-2.4946,-2.4431,-2.3666,0.0,0.0,0.0,0.0,0.0,0.0,0.0,0.0,0.0,0.0,0.0,0.0,-3.4942,-3.608,-3.6798,-3.6563,-3.7712,-3.9324,-4.1378,-4.2845,-4.3909,-4.45,-4.6125,0.0,-4.4823,0.0,0.0,0.0,0.0,0.0,-4.3718,-4.2989,-4.3475,-4.487,-4.502,-4.4737,-4.4097,0.0,0.0,0.0,0.0,0.0,0.0,0.0,0.0,0.0,-4.4097,-4.3998,-4.3868,-4.3822,-4.2772,-4.1558,-4.1656,-4.0805,-3.9788,0.0,0.0,0.0,0.0,-4.0031,0.0,-4.0296,-4.087,0.0,0.0,0.0,-4.2331,-4.1526,-4.0885,-4.0241,-3.9417,-3.9722,-3.9859,-3.9106,-3.8954,-3.7922,-3.4962,-3.4523,-3.3715,-3.1532,-3.1278,-3.1532,-3.2195,-3.2411,-3.3097,-3.4546,-3.4068,-3.3761,-3.39,-3.3216,-3.2189,-3.08,-2.9937,-2.9161,-2.8454,-2.7678,-2.7299,-2.7282,-2.654,-2.6146,-2.6128,-2.5454,-2.4885,-2.4551,-2.5629,-2.5854,-2.5446,-2.5146,-2.5005,-2.5005,-2.5005,-2.5005,-2.4985,-2.4862,-2.4126,-2.3216,0.0,0.0,0.0,0.0,0.0,0.0,0.0,0.0,0.0,0.0,0.0,0.0,0.0,-3.6168,-3.6872,-3.6537,-3.8479,-4.0642,-4.2701,-4.3333,-4.3751,-4.3979,-4.5014,-4.5128,-4.4085,0.0,0.0,0.0,0.0,-4.2055,-4.2231,-4.2045,-4.2214,-4.269,-4.3732,-4.4101,-4.3969,-4.3793,0.0,0.0,0.0,0.0,0.0,0.0,0.0,-4.3776,-4.3776,-4.3747,-4.3628,-4.3204,-4.2974,-4.2648,-4.136,-4.0907,-4.0668,-3.9859,-3.9711,-3.9803,0.0,0.0,0.0,-4.0101,-4.0401,-4.0734,-4.1109,-4.1444,-4.147,-4.0585,-4.0294,-3.9858,-3.8646,-3.9038,-3.9439,-3.9163,-3.8664,-3.7567,-3.5504,-3.4404,-3.3322,-3.2073,-3.1921,-3.2209,-3.2933,-3.3482,-3.4054,-3.4644,-3.4478,-3.4167,-3.3778,-3.2659,-3.166,-3.0838,-2.967,-2.8784,-2.8206,-2.7767,-2.731,-2.6839,-2.6353,-2.585,-2.5402,-2.5126,-2.4915,-2.4782,-2.4937,-2.4927,-2.4733,-2.3965,-2.391,-2.4286,-2.4286,-2.4286,-2.433,-2.4669,-2.4307,-2.3586,0.0,0.0,0.0,0.0,0.0,0.0,0.0,0.0,0.0,0.0,0.0,0.0,0.0,0.0,-3.7774,-3.7806,-3.9449,-4.1291,-4.3125,-4.3449,-4.3598,-4.3598,-4.4367,-4.4417,-4.3615,0.0,0.0,0.0,0.0,0.0,0.0,-4.1507,-4.1507,-4.1495,-4.2716,-4.3204,0.0,0.0,0.0,-4.3265,0.0,0.0,-4.3598,-4.3598,-4.3598,-4.3598,-4.3598,-4.3598,-4.3492,-4.2851,-4.2749,-4.2647,-4.1248,-4.1008,-4.094,-3.9753,-3.9481,-3.9589,-3.9589,0.0,0.0,0.0,-3.9996,-4.013,-4.0288,-4.043,-4.0259,-3.9407,-3.9153,-3.8758,-3.7793,-3.8064,-3.8601,-3.9125,-3.8496,-3.7504,-3.6208,-3.4945,-3.3778,-3.278,-3.2682,-3.2949,-3.3694,-3.4201,-3.4651,-3.497,-3.4766,-3.4351,-3.371,-3.2542,-3.1485,-3.0557,-2.9259,-2.8425,-2.8102,-2.7593,-2.7083,-2.6588,-2.5753,-2.506,-2.4591,-2.4336,-2.4229,-2.4201,-2.3833,-2.4014,-2.4541,-2.3715,-2.375,-2.427,-2.427,-2.4232,-2.4256,-2.4594,-2.4385,-2.3773,0.0,0.0,0.0,0.0,0.0,0.0,0.0,0.0,0.0,-3.5508,0.0,0.0,0.0,0.0,0.0,-4.0319,-4.0434,-4.1036,-4.2389,-4.3125,-4.3539,-4.3539,-4.4427,-4.4477,-4.3555,0.0,0.0,0.0,0.0,0.0,0.0,0.0,-4.1426,-4.1459,-4.219,-4.2126,-4.1492,0.0,-4.2617,-4.2679,0.0,-4.3598,-4.3598,-4.3598,-4.3598,-4.3598,-4.3598,-4.3598,-4.3492,-4.2851,-4.2147,-4.1554,-4.15,-4.1026,-4.0339,-3.9595,-3.9394,-3.9394,0.0,0.0,0.0,0.0,0.0,0.0,-3.9081,0.0,-3.8742,-3.8011,-3.7382,-3.6974,-3.6878,-3.686,-3.7354,-3.8892,-3.8507,-3.7735,-3.6858,-3.605,-3.5003,-3.3588,-3.3419,-3.3728,-3.4455,-3.4523,-3.4827,-3.5549,-3.4945,-3.4266,-3.3641,-3.2863,-3.1614,-2.9789,-2.8705,-2.8129,-2.8129,-2.7144,-2.662,-2.6567,-2.4712,-2.3819,-2.375,-2.3026,-2.2699,-2.2685,-2.2364,-2.3249,-2.4893,-2.4509,-2.4596,-2.4938,-2.4954,-2.4875,-2.4719,-2.4614,-2.4261,-2.3696,0.0,0.0,0.0,0.0,0.0,0.0,-3.6266,-3.6722,-3.6794,0.0,0.0,0.0,-3.6674,-3.7367,-3.8555,-4.0313,-4.0042,-4.0346,-4.1694,-4.1981,-4.2078,-4.2078,-4.2334,-4.235,-4.2094,0.0,0.0,0.0,0.0,0.0,0.0,0.0,0.0,0.0,-4.0181,-4.0181,-4.0111,-4.238,0.0,-4.3325,-4.3539,-4.3598,-4.3598,-4.3598,-4.3598,-4.3598,-4.3598,-4.3598,-4.3568,-4.3402,-4.3194,-4.2834,-4.182,-4.1026,-4.0247,-3.9058,-3.8676,-3.8571,-3.8093,0.0,0.0,0.0,0.0,0.0,-3.8647,0.0,-3.7839,-3.7059,-3.6844,-3.6632,-3.6113,-3.6164,-3.6523,-3.7383,-3.6882,-3.6125,-3.5466,-3.4625,-3.3981,-3.3633,-3.395,-3.4489,-3.5211,-3.5295,-3.538,0.0,-3.5397,-3.4759,-3.3516,-3.1695,-3.0011,-2.8529,-2.8607,-2.87,-2.8737,-2.804,-2.7152,-2.6088,-2.5119,-2.4077,-2.2992,-2.2785,-2.2699,-2.2699,-2.2602,-2.2871,-2.339,-2.3029,-2.3122,-2.3531,-2.3957,-2.3774,-2.3371,-2.4211,-2.4234,-2.3696,0.0,0.0,0.0,0.0,0.0,0.0,-3.7084,-3.7433,-3.7447,0.0,0.0,0.0,-3.792,-3.837,-3.9249,-4.0792,-4.0567,-4.0902,-4.2285,-4.211,-4.1949,-4.1949,-4.1656,-4.1492,-4.1492,0.0,0.0,0.0,0.0,0.0,0.0,0.0,0.0,0.0,0.0,0.0,0.0,0.0,0.0,0.0,-4.3355,-4.3598,-4.3598,-4.3598,-4.3598,-4.3598,-4.3598,-4.3598,-4.3489,-4.2615,-4.2116,-4.1724,-4.0864,-4.0524,-4.0201,-3.8817,-3.8601,-3.8676,-3.8003,-3.8317,-3.8751,-3.8467,0.0,0.0,-3.7409,-3.6963,-3.6505,0.0,-3.5317,-3.526,-3.4855,-3.5115,-3.5485,-3.5845,-3.5532,-3.5203,-3.5171,-3.4228,-3.3567,-3.3656,-3.3943,-3.4383,-3.5035,-3.5161,-3.5293,-3.5549,-3.5577,-3.4805,-3.3034,-3.1687,-3.0307,-2.8924,-2.952,-2.9899,-2.996,-2.8833,-2.7645,-2.6389,-2.5239,-2.3991,-2.2699,-2.2699,-2.2699,-2.2699,-2.2699,-2.2824,-2.2966,-2.2653,-2.2648,-2.2946,-2.3261,-2.3265,-2.3158,-2.3829,-2.4051,-2.3888,0.0,0.0,0.0,-3.7974,-3.8202,-3.8202,-3.8202,-3.8202,-3.8014,0.0,-3.8238,-3.898,-3.9337,-3.9948,-4.0552,-4.1207,-4.126,-4.1787,-4.3035,-4.2585,-4.2253,-4.2253,-4.1624,-4.126,-4.126,-4.0668,0.0,0.0,0.0,0.0,0.0,0.0,0.0,0.0,0.0,0.0,0.0,0.0,0.0,-4.1415,-4.2813,-4.3406,-4.3466,-4.3466,-4.3466,-4.3482,-4.3565,-4.3549,-4.3185,-4.1242,-4.0163,-3.9579,-3.9455,-3.9871,-4.0105,-3.8772,-3.8781,-3.9065,-3.8452,-3.8781,-3.914,-3.8452,-3.8332,0.0,-3.6043,-3.5609,-3.525,0.0,-3.3664,-3.3604,-3.3604,-3.4114,-3.4488,-3.4414,-3.4459,-3.4729,-3.5391,-3.4383,-3.3575,-3.3521,-3.3556,-3.3802,-3.4268,-3.4471,-3.4816,-3.5337,-3.5419,-3.4556,-3.2473,-3.2312,-3.163,-3.0209,-3.0824,-3.1211,-3.1289,-2.9437,-2.8026,-2.7069,-2.5189,-2.3724,-2.2699,-2.2699,-2.2699,-2.2699,-2.2699,-2.287,-2.315,-2.2819,-2.2736,-2.2839,-2.2868,-2.3133,-2.3468,-2.3557,-2.3891,-2.4177,0.0,0.0,0.0,-3.8049,-3.8202,-3.8202,-3.8202,-3.8202,-3.8234,-3.8243,-3.8738,-3.9141,-3.9373,-3.9529,-3.9652,-3.9788,-3.9809,-3.995,-4.02,-4.0111,-4.0005,-4.0005,-3.9879,-3.9809,-3.9809,-3.9681,-3.961,0.0,0.0,0.0,0.0,0.0,0.0,0.0,0.0,0.0,0.0,0.0,0.0,-4.0016,-4.1354,-4.2228,-4.2704,-4.2704,-4.2704,-4.2787,-4.3383,-4.3218,-4.2559,-4.1551,-4.0821,-4.0283,-4.0198,-3.9912,-3.9449,-3.8625,-3.8108,-3.7778,-3.7644,-3.8078,-3.8422,-3.7764,-3.8003,0.0,-3.6611,-3.6297,-3.6073,0.0,-3.4666,-3.4309,-3.4309,-3.4414,-3.4339,-3.3769,-3.4159,-3.442,-3.4135,-3.3774,-3.3365,-3.3011,-3.3339,-3.3633,-3.3751,-3.4153,-3.4504,-3.4617,-3.458,-3.4024,-3.2855,-3.2421,-3.1696,-3.0537,-3.0912,-3.1151,-3.1211,-2.9404,-2.8006,-2.7004,-2.5124,-2.3685,-2.2699,-2.2699,-2.2699,-2.2699,-2.2699,-2.259,-2.24,-2.2113,-2.2132,-2.2415,-2.3164,-2.311,-2.2766,-2.3762,-2.4215,-2.4177,0.0,0.0,0.0,-3.8101,-3.8202,-3.8202,-3.8202,-3.8202,-3.824,0.0,0.0,-3.9439,-3.9418,-4.0008,-4.0394,-4.0415,-4.0703,-4.0929,-4.0931,-4.0583,-4.0269,-3.9965,-3.9589,-3.9388,-3.9388,-3.9388,-3.9388,-3.9388,0.0,0.0,0.0,0.0,0.0,0.0,0.0,0.0,0.0,0.0,-3.9982,-4.0075,-4.0737,-4.1213,-4.1504,-4.1504,-4.1696,-4.1993,-4.2357,-4.1645,-4.0547,-4.0798,-4.0035,-3.8997,-3.9298,-3.9183,-3.8696,-3.7748,-3.7419,-3.7345,-3.703,-3.7419,-3.7823,-3.7494,-3.7419,0.0,0.0,-3.5729,-3.5295,-3.4637,-3.3963,-3.3499,-3.3499,-3.3769,-3.3873,-3.3544,-3.4038,-3.4279,-3.3697,-3.3244,-3.2901,-3.2667,-3.2595,-3.2664,-3.296,-3.3547,-3.4169,-3.4802,-3.4814,-3.4213,-3.2874,-3.3079,-3.2597,-3.119,-3.1863,-3.2282,-3.2365,-3.0658,-2.9299,-2.8268,-2.6042,-2.4655,-2.3962,-2.3097,-2.2905,-2.3233,-2.2854,-2.2588,-2.2351,-2.1897,-2.1737,-2.1843,-2.2395,-2.2512,-2.2511,-2.3449,-2.401,-2.4131,-3.5996,0.0,0.0,0.0,0.0,-3.8072,-3.8188,-3.8202,0.0,0.0,0.0,-3.9602,-3.9361,-4.033,-4.1016,-4.1026,-4.152,-4.1889,-4.2072,-4.143,-4.0882,-4.05,-3.9792,-3.9388,-3.9388,-3.9388,-3.9388,-3.9388,0.0,0.0,0.0,0.0,0.0,0.0,0.0,0.0,0.0,0.0,0.0,-3.9879,-3.9773,-4.0118,-4.0686,-4.0674,-4.0992,-4.1364,-4.1102,-3.9924,-3.8639,-3.9508,-3.8723,-3.7494,-3.8044,-3.8125,-3.7831,-3.6929,-3.6941,-3.715,-3.6761,-3.703,-3.7375,-3.727,-3.6941,-3.6462,0.0,0.0,0.0,-3.4023,-3.335,-3.2856,-3.2721,-3.314,-3.341,-3.3155,0.0,0.0,0.0,-3.2841,0.0,-3.2303,-3.1824,-3.1697,-3.2176,-3.2906,-3.3843,-3.5001,-3.5198,-3.4555,-3.2963,-3.3763,-3.3546,-3.1938,-3.2838,-3.3393,-3.3481,-3.1897,-3.0586,-2.9548,-2.7142,-2.5671,-2.5044,-2.3552,-2.315,-2.356,-2.2944,-2.2646,-2.2552,-2.1866,-2.1507,-2.1404,-2.1533,-2.1903,-2.2461,-2.3079,-2.36,-2.3798,-3.636,-3.6345,0.0,0.0,0.0,0.0,0.0,-3.8202,0.0,0.0,0.0,-3.9193,-3.9156,-3.9435,-3.964,-3.9637,-3.9697,-3.9989,-4.0609,-4.0025,-3.9847,-4.0409,-3.976,-3.9388,-3.9388,-3.9388,-3.9388,-3.9388,0.0,0.0,0.0,0.0,0.0,0.0,-3.8736,0.0,0.0,0.0,-3.7678,0.0,-3.7176,-3.8727,-4.1383,-4.1325,-4.1324,-4.1241,-4.0038,-3.9135,-3.8409,-3.7909,-3.7603,-3.7415,-3.7482,-3.7106,-3.6731,-3.7169,-3.6971,-3.6686,-3.718,-3.736,-3.7285,-3.6731,-3.6941,-3.6985,-3.5774,0.0,-3.6073,-3.5415,0.0,-3.4099,-3.3499,0.0,0.0,-3.1914,-3.2796,-3.338,-3.2721,-3.2557,-3.2273,-3.169,-3.1555,-3.1524,-3.1582,-3.2598,-3.3537,-3.426,-3.4818,-3.4662,-3.356,-3.3899,-3.3645,-3.2613,-3.2954,-3.3226,-3.3408,-3.1869,-3.0559,-2.9484,-2.7584,-2.5862,-2.4314,-2.3805,-2.3316,-2.2819,-2.2667,-2.2623,-2.2538,-2.1823,-2.1462,-2.1389,-2.1417,-2.1781,-2.2382,-2.3055,-2.3112,-2.2789,-3.6939,-3.7172,-3.7578,0.0,0.0,0.0,0.0,0.0,0.0,0.0,0.0,-3.9683,-4.0218,-4.045,-4.0561,-4.0561,-4.0905,-4.1085,-4.098,-4.0711,-4.0681,-4.095,-4.0711,-4.0382,-3.9993,-3.9993,-3.9798,-3.9388,-3.9388,0.0,0.0,0.0,0.0,0.0,-3.8123,0.0,-3.8212,0.0,-3.7404,0.0,0.0,-3.85,-3.9708,-3.9253,-3.9316,-3.9539,-3.8959,-3.8123,-3.7357,-3.7788,-3.771,-3.7396,-3.739,-3.7216,-3.6902,-3.6424,-3.6118,-3.5968,-3.6237,-3.6312,-3.6327,-3.6462,-3.6402,-3.6267,-3.6103,-3.5998,-3.5833,-3.5564,0.0,0.0,0.0,0.0,0.0,0.0,-3.197,-3.2097,-3.1435,0.0,-3.0945,-3.1439,-3.1515,0.0,-3.1994,-3.2449,-3.2951,-3.3469,-3.3738,-3.3574,-3.2873,-3.3164,-3.3098,-3.2538,-3.2896,-3.3132,-3.3226,-3.2242,-3.1514,-3.1037,-2.8128,-2.66,-2.6274,-2.4026,-2.3083,-2.3196,-2.274,-2.2528,-2.2415,-2.1736,-2.1401,-2.1309,-2.0909,-2.1155,-2.1858,-2.2902,-2.3026,-2.2461,-3.7781,-3.7897,-3.8014,0.0,0.0,0.0,0.0,0.0,0.0,0.0,-3.9897,-4.0332,-4.0959,-4.1232,-4.1422,-4.1422,-4.1856,-4.1931,-4.1414,-4.1422,-4.1332,-4.1115,-4.128,-4.0995,-4.0142,-4.0307,-4.0083,-3.9388,-3.9388,0.0,0.0,0.0,0.0,0.0,0.0,-3.7404,-3.7404,0.0,-3.715,-3.7184,-3.774,-3.8054,-3.8159,-3.7837,-3.7862,-3.8019,-3.7857,-3.7175,-3.6523,-3.728,-3.7359,-3.7086,-3.694,-3.6885,-3.6701,-3.5774,-3.5504,-3.5504,-3.5504,-3.5504,-3.5624,-3.6088,-3.5863,-3.5624,-3.6103,-3.5848,-3.5504,-3.5504,-3.4694,0.0,0.0,0.0,-3.2179,-3.1371,0.0,-3.0759,-3.0242,-2.9785,-2.986,-3.0826,-3.1115,-3.1408,0.0,-3.2188,-3.2442,-3.2554,-3.2845,-3.2674,-3.1964,-3.2429,-3.2547,-3.2214,-3.2702,-3.3008,-3.3101,-3.2664,-3.2246,-3.1836,-2.9068,-2.7571,-2.7183,-2.4441,-2.3237,-2.3269,-2.2695,-2.2388,-2.222,-2.1616,-2.1292,-2.1119,-2.073,-2.0749,-2.1165,-2.2336,-2.2505,-2.1963,-3.9015,-3.8159,-3.752,-3.8101,0.0,0.0,0.0,0.0,0.0,-3.9987,-4.048,-4.0781,-4.0811,-4.1156,-4.1422,-4.1422,-4.1399,-4.1399,-4.1422,-4.1422,-4.11,-4.0457,-4.104,-4.0771,-3.9448,-4.0068,-4.0083,-3.9388,-3.9388,0.0,0.0,0.0,0.0,0.0,-3.7704,-3.7404,-3.7375,-3.6776,-3.6522,-3.6507,-3.654,-3.6907,-3.7493,0.0,-3.8043,-3.7339,-3.6692,0.0,0.0,-3.5765,-3.5972,0.0,0.0,0.0,0.0,-3.5519,-3.5504,-3.5504,-3.5504,-3.5504,-3.5504,-3.5534,-3.5519,-3.5504,-3.5534,-3.5519,-3.5504,-3.5504,-3.5297,-3.48,-3.3693,-3.2805,-3.185,-3.0712,-2.9979,0.0,0.0,-2.9439,-2.9518,-2.9563,-3.0147,-3.0554,0.0,-3.1694,-3.2148,-3.1508,-3.2406,-3.24,-3.1027,-3.1938,-3.2261,-3.1748,-3.23,-3.2768,-3.3101,-3.3083,-3.2382,-3.1021,-3.0596,-2.8742,-2.5663,-2.5233,-2.4109,-2.2535,-2.2449,-2.222,-2.1868,-2.1461,-2.1103,-2.0841,-2.1138,-2.0872,-2.0428,-2.1103,-2.1222,-2.095,0.0,-3.9175,-3.9218,-3.9421,-3.8594,0.0,0.0,-3.9915,-4.0525,-4.0728,-4.1011,-4.1425,-4.1995,-4.1878,-4.1858,-4.2066,-4.1677,-4.1422,-4.1422,-4.1422,-4.128,-4.1055,-4.2102,-4.2058,-4.0741,-4.1392,-4.116,-4.0068,-4.0068,0.0,0.0,0.0,0.0,0.0,0.0,-3.6387,0.0,0.0,0.0,0.0,0.0,-3.6715,-3.7997,0.0,-3.6956,-3.6707,-3.6476,-3.6133,0.0,-3.6022,-3.6262,-3.6436,-3.6158,-3.6131,-3.6073,-3.5624,-3.5504,-3.5504,0.0,0.0,-3.5504,-3.5504,-3.5504,-3.5504,-3.5504,-3.5504,-3.5504,-3.5504,-3.5001,-3.4411,-3.4014,-3.2915,-3.1654,-3.0379,-2.9596,-2.8857,0.0,-2.7842,-2.7861,-2.7861,-2.8826,-2.9721,-3.0299,-3.076,-3.0915,-3.0687,-3.0876,-3.0766,-3.0192,-3.1008,-3.1528,-3.1579,-3.2073,-3.2471,-3.277,-3.2993,-3.2755,-3.2045,-3.029,-2.874,-2.7372,-2.5038,-2.3638,-2.3076,-2.2556,-2.2135,-2.1811,-2.1447,-2.1103,-2.0777,-2.0672,-2.0505,-2.0347,-2.0737,-2.0663,-2.0215,-3.9784,-3.9828,-3.9842,-4.006,-3.9421,0.0,0.0,0.0,-4.1192,-4.1424,-4.1616,-4.1964,-4.2537,-4.2385,-4.2204,-4.2138,-4.1814,-4.1509,-4.1323,-4.127,-4.1204,-4.0965,-4.1864,-4.1781,-4.0509,-4.1358,-4.1217,-3.9928,-4.0092,-3.9765,0.0,0.0,0.0,0.0,0.0,-3.5821,-3.5937,-3.5872,-3.5681,0.0,0.0,-3.6387,0.0,0.0,-3.6374,-3.6709,0.0,-3.5814,-3.5554,-3.5941,-3.6116,-3.6124,-3.6095,-3.6116,-3.6058,-3.5624,-3.5504,-3.5504,-3.5504,-3.5504,0.0,-3.5504,-3.5504,-3.5472,-3.5407,-3.5392,-3.5359,-3.5294,-3.4807,-3.425,-3.3856,-3.2555,-3.1105,-2.9841,-2.8893,-2.798,0.0,-2.6909,-2.6841,-2.6875,-2.7934,-2.8888,-2.9545,-3.0016,-3.0136,-2.9731,-2.9948,-2.9942,-2.9576,-3.0309,-3.0982,-3.1466,-3.1876,-3.2249,-3.2606,-3.2736,-3.2658,-3.2325,-3.0527,-2.9164,-2.8105,-2.5798,-2.4258,-2.3376,-2.2902,-2.2283,-2.1617,-2.1662,-2.1263,-2.0626,-2.0653,-2.0659,-2.0637,-2.0424,-1.9946,-1.9313,0.0,-4.0147,0.0,0.0,-4.0191,0.0,0.0,0.0,-4.1381,-4.202,-4.2284,-4.2392,-4.2392,-4.2552,-4.2393,-4.1735,-4.1814,-4.1635,-4.108,-4.105,-4.0753,-4.0055,-4.0541,-4.0206,-3.887,-4.0147,-4.0252,-3.9112,-3.9535,0.0,0.0,0.0,0.0,0.0,-3.6081,0.0,-3.4979,-3.6026,-3.6,-3.5317,-3.5454,-3.5923,-3.6462,-3.5774,-3.6282,-3.7195,-3.5953,-3.5504,-3.5504,-3.5504,-3.5504,-3.5504,-3.5504,-3.5504,-3.5504,-3.5504,-3.5504,-3.5504,-3.5504,-3.5504,-3.5504,-3.5427,-3.5442,0.0,0.0,-3.5151,-3.5115,-3.4935,-3.4754,-3.4306,-3.3221,-3.1748,-3.0311,-2.9205,-2.7875,-2.699,-2.699,-2.6705,-2.6555,-2.6692,-2.7391,-2.8023,-2.8293,-2.9446,-2.9769,-2.8692,-2.962,-2.9896,0.0,-2.9908,-3.0708,-3.1447,-3.1763,-3.2108,-3.2538,-3.2369,-3.2133,-3.1861,-3.1323,-2.9969,-2.7906,-2.7405,-2.5857,-2.3562,-2.3496,-2.2682,-2.1438,-2.2118,-2.1591,-2.0474,-2.1103,-2.1332,-2.1148,-2.0101,-1.9101,-1.8303,-4.1033,-4.1236,-4.1395,0.0,-4.1584,-4.1482,0.0,0.0,0.0,0.0,-4.2133,-4.2242,-4.2392,-4.1979,-4.1733,-4.1705,-4.0884,-4.0303,-4.014,-4.0125,-3.983,-3.9173,-4.0191,-4.0427,-3.9548,-4.0383,-4.0397,-3.9623,-3.9247,0.0,-3.7961,0.0,0.0,0.0,0.0,-3.513,-3.4946,-3.5729,-3.627,-3.6545,-3.5795,-3.6178,-3.7045,0.0,-3.6013,-3.6611,-3.5804,-3.5504,-3.5504,-3.5504,-3.5504,-3.5504,-3.5504,-3.5504,-3.5504,-3.5504,-3.5504,-3.5504,-3.5504,-3.5504,-3.5352,-3.4701,-3.4907,-3.5094,0.0,0.0,0.0,-3.4902,-3.442,-3.3882,-3.3577,-3.19,-3.0308,-2.9501,-2.7839,-2.6636,-2.6636,-2.6568,-2.6499,-2.6555,-2.648,-2.7026,-2.8529,-2.8665,-2.8785,-2.9097,-2.9401,-2.9425,-2.9137,-3.0615,-3.1386,-3.1148,-3.1738,-3.1954,-3.1766,-3.1822,-3.1719,-3.1457,-3.0904,-3.0246,-2.945,-2.7657,-2.6469,-2.5795,-2.4913,-2.3885,-2.2895,-2.3269,-2.2776,-2.1797,-2.1981,-2.159,-2.0836,-2.0118,-1.8945,-1.7706,-4.0989,0.0,0.0,-4.2049,0.0,0.0,-4.1555,-4.186,0.0,-4.2092,-4.2092,0.0,-4.2242,-4.1948,-4.1522,-4.1017,-4.0431,-3.9941,-3.97,-3.9369,-3.9215,-3.9112,-3.9463,-3.9513,-3.9109,-3.9739,-3.9806,-3.9222,-3.8766,0.0,-3.7319,0.0,0.0,0.0,0.0,-3.4769,-3.4731,-3.5251,-3.5836,-3.6354,-3.5723,-3.5938,0.0,-3.5774,-3.5729,-3.6013,-3.5639,-3.5504,-3.5504,-3.5504,-3.5504,-3.5504,-3.5504,-3.5504,-3.5444,-3.5145,-3.5055,-3.4996,-3.4711,-3.4573,-3.442,-3.3923,-3.4228,-3.4457,-3.3647,-3.4188,-3.4622,0.0,-3.3729,-3.343,-3.2861,-3.1261,-2.9663,-2.8391,-2.7259,-2.6499,-2.6499,-2.6499,-2.6499,-2.6499,-2.6312,-2.6693,-2.8103,-2.7986,-2.8054,-2.8749,-2.9095,-2.9236,0.0,-3.0592,-3.1357,-3.1137,-3.2073,-3.2371,-3.1944,-3.1927,-3.1794,-3.1562,-3.0984,-3.0588,-3.0267,-2.8845,-2.7824,-2.713,-2.626,-2.5096,-2.3898,-2.4125,-2.346,-2.2298,-2.2341,-2.1637,-2.0591,-2.0338,-1.9203,-1.7797,0.0,0.0,0.0,0.0,0.0,0.0,0.0,-4.2092,0.0,-4.2092,0.0,-4.2092,-4.2092,-4.1932,-4.1366,-4.0191,-4.0115,-3.9896,-3.9341,-3.8785,-3.8727,-3.9282,-3.862,-3.8202,-3.8202,-3.8768,-3.883,-3.8361,-3.8074,-3.7419,0.0,0.0,0.0,0.0,0.0,0.0,0.0,-3.4779,-3.5126,-3.5511,-3.5436,-3.5439,-3.5439,-3.5439,-3.5439,-3.5439,-3.5472,-3.5504,-3.5504,-3.5504,-3.5504,-3.5504,-3.5472,-3.5412,-3.5218,-3.462,-3.4381,-3.4186,-3.3572,-3.3346,-3.3253,-3.3133,-3.3467,-3.3618,-3.2828,-3.3553,-3.4061,-3.2745,-3.289,-3.2861,-3.1604,-3.021,-2.8645,-2.6802,-2.6499,-2.6499,-2.6499,-2.6499,-2.6499,-2.6499,-2.6458,0.0,-2.7317,-2.7426,-2.7643,-2.8153,-2.8937,-2.9313,0.0,0.0,-3.119,-3.1254,-3.2462,-3.2925,-3.2536,-3.2168,-3.1953,-3.1885,-3.1266,-3.084,-3.0641,-3.024,-2.9289,-2.7934,-2.7479,-2.6283,-2.4646,-2.4863,-2.4004,-2.2532,-2.2497,-2.1727,-2.0655,-2.0771,-1.9714,-1.8271,0.0,0.0,0.0,0.0,0.0,-4.1961,-4.2078,-4.2092,-4.2092,-4.2092,-4.2092,-4.2092,-4.2092,-4.1105,-4.035,-4.0118,-3.9184,-3.853,-3.8414,-3.8312,-3.8283,-3.84,-3.826,-3.8202,-3.8202,-3.8318,-3.8072,-3.7499,-3.691,-3.6293,-3.5587,0.0,0.0,0.0,0.0,0.0,-3.5203,-3.4883,0.0,-3.5536,-3.5141,-3.5001,-3.5001,-3.518,-3.5148,-3.5034,-3.5359,-3.5504,-3.5504,-3.5504,-3.5504,-3.5472,-3.5294,-3.486,-3.4384,-3.4167,-3.3689,-3.323,-3.3129,-3.3068,-3.2873,-3.2234,-3.2553,-3.2781,-3.1907,-3.2326,-3.282,-3.2556,-3.2133,-3.1599,-3.0804,0.0,-2.7535,-2.6636,-2.6499,-2.6499,-2.6499,-2.6499,-2.6499,-2.6499,-2.6219,-2.6185,-2.6641,-2.7309,-2.8,-2.8615,-2.9464,-2.9697,0.0,0.0,-3.2123,0.0,-3.2149,-3.2763,0.0,0.0,-3.1129,-3.1821,-3.1078,-3.0788,-3.0836,-3.0193,-2.9524,-2.8767,-2.8419,-2.7157,-2.5435,-2.5687,-2.4963,-2.3654,-2.317,-2.2553,-2.1911,-2.1444,-2.0221,-1.8711,0.0,0.0,0.0,0.0,0.0,0.0,0.0,-4.1802,-4.17,-4.2049,-4.2092,-4.2092,-4.2092,-4.1512,-4.0858,-4.0162,-3.9538,-3.8913,-3.8246,-3.8202,-3.8202,-3.8202,-3.8202,-3.8202,-3.8202,-3.8202,-3.7912,-3.7302,-3.6635,-3.6156,-3.5836,0.0,0.0,0.0,0.0,-3.4622,0.0,0.0,0.0,-3.5228,-3.4986,-3.4902,-3.4902,-3.5001,-3.4968,-3.4935,-3.5115,-3.518,-3.518,-3.5326,-3.5326,-3.5267,-3.4747,-3.4357,-3.3957,-3.3183,-3.2724,-3.2414,-3.2105,-3.1956,-3.1777,-3.1393,-3.1711,-3.1924,-3.1208,-3.1801,-3.2228,-3.1189,-3.0997,-3.0567,-2.9203,-2.8153,0.0,-2.6624,-2.6499,-2.6499,-2.6499,-2.6499,-2.6499,-2.6499,-2.6051,-2.5925,-2.6436,-2.6929,-2.7516,-2.8227,-2.9008,-2.9213,0.0,0.0,-3.1644,0.0,0.0,0.0,-3.2696,0.0,-3.1501,-3.1225,-3.0875,-3.0773,-3.0895,-3.0583,-3.0105,-2.9557,-2.9151,-2.7894,-2.6121,-2.5295,-2.4406,-2.3494,-2.2912,-2.2342,-2.1738,-2.0879,-1.9856,-1.8872,0.0,-4.1091,0.0,0.0,-4.1236,-4.1062,-4.1584,-4.1221,-4.1134,-4.1802,-4.1758,-4.1671,-4.1671,-4.1555,-4.1062,-4.0002,-3.977,-3.9276,-3.8275,-3.8202,-3.8202,-3.8202,-3.8202,-3.8202,-3.8202,-3.8202,-3.7912,-3.7302,-3.6635,-3.6228,-3.6083,-3.5082,0.0,0.0,0.0,0.0,0.0,0.0,-3.4683,-3.4802,-3.4802,-3.4802,-3.4802,-3.4835,-3.4835,-3.4802,-3.4868,-3.4868,-3.4854,-3.4886,-3.4907,-3.4789,-3.4009,-3.365,-3.3326,-3.2219,-3.1807,-3.1602,-3.1116,-3.0895,-3.0762,-3.0762,-3.1051,-3.1177,-3.0714,-3.1273,-3.1455,-2.9927,-2.9736,-2.9369,-2.7782,-2.7384,0.0,0.0,-2.6499,-2.6499,-2.6499,-2.6499,-2.6449,-2.6323,-2.6021,-2.5862,-2.6122,-2.6468,-2.6925,-2.7571,-2.834,-2.8699,-2.8483,0.0,0.0,0.0,0.0,-3.2804,-3.2753,0.0,-3.1824,-3.0883,-3.0717,-3.0712,-3.0831,-3.0834,-3.0493,-2.9865,-2.9518,-2.8252,-2.6329,-2.4513,-2.3494,-2.2979,-2.2351,-2.1827,-2.1269,-2.0202,-1.942,-1.8885,0.0,0.0,0.0,0.0,0.0,-4.0205,-4.0278,-4.0234,-4.0423,-4.1105,-4.0655,-4.0292,-4.0292,-3.9799,-3.9421,-3.9291,-3.8725,-3.8333,-3.8217,-3.8202,-3.8202,-3.8202,-3.8202,-3.8202,-3.8202,-3.8202,-3.7912,-3.7302,-3.6635,-3.6011,-3.5479,-3.5363,-3.5334,0.0,0.0,0.0,0.0,-3.4414,-3.4448,-3.4448,-3.4448,-3.4448,-3.4481,-3.4664,-3.4597,-3.4481,-3.4802,-3.4817,-3.4643,-3.4028,-3.3953,-3.3962,-3.317,-3.2491,-3.1948,-3.1647,-3.118,-3.0715,-3.0657,-3.0642,-3.0612,-3.0612,-3.0641,-3.067,-3.0612,-3.0215,-2.9826,-2.9651,-2.8624,-2.7703,-2.7517,-2.7007,-2.6555,0.0,-2.6499,-2.6499,-2.6499,-2.6499,-2.6298,-2.5737,-2.6122,-2.6047,-2.5059,-2.5892,-2.6659,-2.6952,-2.8118,-2.887,0.0,0.0,0.0,-3.0464,-3.1461,-3.2317,-3.2967,-3.1646,-3.1159,-3.152,-3.0841,-3.0526,-3.0547,-3.0651,-3.0156,-2.9189,-2.921,-2.7874,-2.5565,-2.3746,-2.2979,-2.2822,-2.1851,-2.1434,-2.1269,-2.0202,-1.942,-1.8832,0.0,0.0,0.0,0.0,0.0,0.0,0.0,-3.9784,-3.9654,-3.9929,-4.0046,-4.0104,-4.0104,-3.9886,-3.9596,-3.9233,-3.8957,-3.8638,-3.8231,-3.8202,-3.8202,-3.8202,-3.8202,-3.8028,-3.768,-3.7665,-3.7346,-3.6707,-3.6054,-3.5807,-3.5909,-3.5154,-3.4791,0.0,0.0,-3.4646,-3.4414,-3.4414,-3.4414,-3.4414,-3.4414,-3.4414,-3.4414,-3.4481,-3.4481,-3.4414,-3.4534,-3.4334,-3.3879,-3.3205,-3.3349,-3.3624,-3.2409,-3.1837,-3.1531,-3.1092,-3.0801,-3.0598,-3.0598,-3.0598,-3.0598,-3.0598,-3.0598,-3.0477,-3.0099,-2.9777,-2.9359,-2.8519,-2.7584,-2.6905,-2.6905,-2.6692,-2.6499,-2.6499,0.0,-2.6499,-2.6499,-2.6197,-2.585,-2.5624,-2.5234,-2.4946,-2.48,-2.5222,-2.6007,-2.7288,-2.8143,-2.8778,0.0,0.0,0.0,-3.0681,0.0,-3.144,-3.2349,-3.1758,-3.1345,-3.111,-3.0688,-3.0506,-3.0489,-3.0262,-2.9601,-2.8568,-2.7512,-2.6496,-2.5463,-2.3655,-2.2694,-2.2337,-2.1674,-2.1229,-2.0868,-2.0081,-1.942,-1.8819,-3.9871,0.0,-3.977,0.0,-3.9538,-3.9538,-3.9538,-3.9175,-3.8913,-3.8913,-3.9276,-3.9538,-3.9538,-3.9538,-3.9363,-3.8942,-3.8913,-3.871,-3.8231,-3.8028,-3.7941,-3.7941,-3.7752,0.0,-3.7027,-3.7012,-3.6881,-3.6591,-3.5799,-3.5726,-3.6286,-3.5198,-3.469,0.0,-3.469,-3.4588,-3.4414,-3.4414,-3.4414,-3.4414,-3.4414,-3.4414,-3.4414,-3.4414,-3.4298,-3.4138,-3.4138,-3.3732,-3.3093,-3.244,-3.2576,-3.2832,-3.1615,-3.125,-3.1148,-3.0743,-3.0598,-3.0598,-3.0598,-3.0598,-3.0598,-3.0598,-3.0447,-3.019,-2.9716,-2.9265,-2.8648,-2.7451,-2.685,-2.6499,-2.6499,-2.6499,-2.6499,-2.6499,0.0,0.0,-2.6499,-2.5996,-2.5598,-2.5598,-2.4933,-2.4506,-2.4569,-2.4858,-2.5563,-2.6818,-2.7737,0.0,0.0,0.0,0.0,0.0,0.0,0.0,-3.1622,-3.1501,-3.1206,-3.08,-3.0457,-3.0284,-3.0262,-2.9645,-2.8973,-2.8203,-2.6602,-2.5685,-2.5275,-2.3638,-2.253,-2.1837,-2.1385,-2.0997,-2.062,-1.9812,-1.9277,-1.8806,-3.9334,-3.9218,-3.9,-3.8333,-3.8217,-3.8217,-3.8217,-3.8217,-3.8217,-3.8217,-3.8217,-3.8217,-3.8217,-3.8217,-3.8217,-3.8217,-3.8217,-3.8217,-3.8202,-3.7651,-3.7317,0.0,0.0,-3.633,-3.6315,-3.6315,-3.6635,-3.7302,-3.6031,-3.5726,-3.6301,-3.5683,-3.5392,-3.5392,-3.5392,-3.5009,-3.4414,-3.4414,-3.4414,-3.4414,-3.4414,-3.4414,-3.4414,-3.4414,-3.4022,-3.3518,-3.3518,-3.3079,-3.2394,-3.1758,-3.154,-3.1424,-3.0816,-3.0612,-3.0612,-3.0598,-3.0598,-3.0598,-3.0598,-3.0598,-3.0598,-3.0598,-3.0099,-2.9623,-2.9591,-2.8519,-2.7317,-2.6658,-2.6499,-2.6499,-2.6499,-2.6499,-2.6499,-2.6499,0.0,0.0,-2.6499,-2.5996,-2.5598,-2.5598,-2.5586,-2.5172,-2.4104,-2.4971,-2.5427,-2.5057,0.0,0.0,0.0,0.0,0.0,-2.9112,-2.976,0.0,-3.0997,-3.0558,-3.0476,-3.08,-3.0127,-2.981,-2.9772,-2.8764,-2.8312,-2.8233,-2.7085,-2.5932,-2.4801,-2.3601,-2.2426,-2.135,-2.0898,-2.0699,-2.0543,-1.9342,-1.8911,-1.8718,-3.8565,-3.8522,-3.8449,-3.8246,-3.8202,-3.8202,-3.8202,-3.8202,-3.8202,-3.8202,-3.8202,-3.8043,-3.7636,-3.7955,-3.8028,0.0,-3.7593,-3.7404,0.0,-3.6722,-3.6635,-3.6635,-3.6417,-3.6112,-3.5712,-3.5697,-3.5981,-3.6635,0.0,0.0,0.0,-3.4806,-3.4719,-3.4719,-3.4719,-3.4603,-3.4414,-3.4414,-3.4414,-3.4414,-3.4414,-3.4414,-3.437,-3.3935,-3.3906,-3.3993,-3.3137,-3.2687,-3.2394,-3.1743,-3.1235,-3.0843,-3.067,-3.0598,-3.0598,-3.0598,-3.0598,-3.0598,-3.0598,-3.0598,-3.0477,-3.0038,-2.9747,-2.9359,-2.839,-2.7464,-2.6748,-2.6521,-2.6499,-2.6499,-2.6499,-2.6499,-2.6499,-2.6499,-2.6499,0.0,-2.6499,-2.5661,-2.5039,-2.5039,-2.4362,-2.3747,-2.3409,-2.4418,-2.5198,-2.5524,0.0,0.0,0.0,0.0,0.0,0.0,-2.9868,0.0,-3.0382,-3.0243,-3.0012,-2.9764,-2.9476,-2.9127,-2.8764,-2.8448,-2.8149,-2.779,-2.6969,-2.5947,-2.4815,-2.3591,-2.2439,-2.135,-2.0873,-2.0438,-2.0035,-1.9656,-1.8969,-1.8159,-3.8202,-3.8202,-3.813,-3.7897,-3.7868,-3.7781,-3.7535,-3.7491,-3.7491,-3.7491,-3.7491,-3.7346,-3.6983,-3.7259,0.0,-3.6968,-3.6925,-3.6751,-3.633,-3.6083,-3.5952,-3.5952,-3.5952,-3.5662,-3.5058,-3.5276,0.0,-3.5952,-3.5154,-3.4646,-3.4414,-3.4414,-3.4414,-3.4414,-3.4414,-3.4414,-3.4414,-3.4414,-3.4414,-3.4385,-3.4153,-3.4051,-3.3993,-3.3354,-3.3195,-3.3224,-3.2394,-3.199,-3.1729,-3.1308,-3.0901,-3.0598,-3.0598,-3.0598,-3.0598,-3.0598,-3.0598,-3.0598,-3.0598,-3.0417,-3.0129,-2.9716,-2.9202,-2.8519,-2.7384,-2.6816,-2.6499,-2.6499,-2.6499,-2.6499,-2.6499,-2.6499,-2.6499,-2.6499,-2.6499,-2.6411,-2.6197,-2.5372,-2.4863,-2.5096,-2.4286,-2.381,-2.401,-2.4662,-2.5095,0.0,0.0,0.0,0.0,0.0,-2.942,-2.9595,-2.987,-3.0175,-3.0483,-3.0041,-2.975,-2.9669,-2.9081,-2.8614,-2.8288,-2.811,-2.7894,-2.7545,-2.6926,-2.5858,-2.4531,-2.3522,-2.2215,-2.0786,-2.0483,-1.9995,-1.9389,-1.9167,-1.8695,-1.809,-3.8144,-3.8173,-3.7999,0.0,-3.7273,-3.7085,-3.6402,-3.6301,-3.6301,-3.6301,-3.6301,-3.6286,-3.6243,-3.6243,-3.6228,-3.6185,0.0,0.0,-3.617,-3.5619,-3.5334,-3.5334,-3.5334,-3.5058,-3.4428,-3.4994,-3.5334,-3.5334,-3.5378,-3.5072,-3.4414,-3.4414,-3.4414,-3.4414,-3.4414,-3.4414,-3.4414,-3.4414,-3.4385,-3.4298,-3.3736,-3.3474,-3.3373,-3.2687,-3.206,-3.1553,-3.1451,-3.1105,-3.067,-3.0612,-3.0598,-3.0598,-3.0598,-3.0598,-3.0598,-3.0598,-3.0598,-3.0598,-3.0538,-3.0068,-2.9591,-2.9498,-2.8422,-2.7263,-2.6658,-2.6499,-2.6499,-2.6499,-2.6499,-2.6499,-2.6499,-2.6499,-2.6499,-2.6499,-2.6461,-2.6248,-2.5674,-2.5146,-2.5008,-2.5485,0.0,0.0,-2.5498,-2.5536,-2.5146,0.0,0.0,0.0,0.0,0.0,-2.89,-2.9595,-2.9828,-3.0294,-3.0999,-2.9859,-2.957,-3.0109,-2.8845,-2.8255,-2.8231,-2.7795,-2.76,-2.7575,-2.6971,-2.5724,-2.4055,-2.3403,-2.1824,-1.9799,-1.9736,-1.9324,-1.8672,-1.8093,-1.8119,-1.83,0.0,0.0,-3.7854,-3.6736,-3.6968,-3.7085,-3.6402,-3.6301,-3.6301,-3.6301,-3.6301,-3.6112,-3.5668,-3.5625,-3.5386,-3.4907,-3.5314,-3.5386,-3.4893,-3.4719,-3.4646,-3.4646,-3.4646,-3.4559,-3.4414,-3.4559,-3.4646,-3.4646,-3.516,-3.5072,-3.4414,-3.4414,-3.4414,-3.4414,-3.4414,-3.4414,-3.4414,-3.4414,-3.4124,-3.3707,-3.3561,-3.3198,-3.2672,-3.1973,-3.1944,-3.215,-3.1148,-3.1018,-3.1221,-3.0772,-3.0598,-3.0598,-3.0598,-3.0598,-3.0598,-3.0598,-3.0598,-3.0477,-2.9976,-2.9716,-2.9328,-2.826,-2.7364,-2.6679,-2.6521,-2.6499,-2.6499,-2.6499,-2.6499,-2.6499,-2.6499,-2.6499,-2.6499,-2.6499,-2.6122,-2.5749,-2.5611,-2.5146,-2.4838,0.0,-2.4863,-2.4838,-2.4996,-2.5008,-2.5059,0.0,0.0,-2.6244,-2.7084,-2.8012,-2.885,-2.958,-3.0133,-3.0338,-3.0119,-2.9468,-2.8839,-2.8228,-2.7911,-2.7785,-2.776,-2.7635,-2.76,-2.7575,-2.6971,-2.5724,-2.4027,-2.3002,-2.1488,-1.9736,-1.9235,-1.8656,-1.808,-1.7826,-1.7485,-1.7108,-3.7781,-3.7984,-3.7796,-3.6533,-3.6606,-3.6533,-3.559,-3.5444,-3.5444,-3.5444,-3.5444,-3.5314,-3.4965,-3.4922,-3.4791,-3.4443,-3.4733,-3.4777,-3.4428,-3.4414,-3.4414,-3.4414,-3.469,-3.4704,-3.4428,-3.4704,-3.4704,-3.4414,-3.4762,-3.4762,-3.4414,-3.4414,-3.4414,-3.4414,-3.4414,-3.4254,-3.3978,-3.3978,-3.3616,-3.3006,-3.2701,-3.2367,-3.1959,-3.1337,-3.1308,-3.154,-3.0859,-3.083,-3.1032,-3.0714,-3.0598,-3.0598,-3.0598,-3.0387,-3.0129,-3.0129,-3.0129,-3.0068,-2.9716,-2.9139,-2.839,-2.7297,-2.6782,-2.6499,-2.6499,-2.6499,-2.6499,-2.6499,-2.6499,-2.6499,-2.6499,-2.6499,-2.6411,-2.6135,-2.5799,-2.5423,-2.4933,-2.4845,-2.4788,-2.4788,-2.5034,-2.5272,-2.5548,-2.5573,-2.5573,-2.5598,-2.5871,0.0,-2.7092,-2.7722,-2.8516,-2.9568,-3.0229,-3.0497,-3.0251,-2.95,-2.8557,-2.7514,-2.7514,-2.7514,-2.7514,-2.7575,-2.7408,-2.706,-2.6443,-2.5111,-2.3247,-2.23,-2.0728,-1.8907,-1.8539,-1.797,-1.7337,-1.7271,-1.7137,-1.6986,-3.8086,-3.8072,-3.7665,-3.6388,-3.6156,-3.5778,-3.4588,-3.4414,-3.4414,-3.4414,-3.4414,-3.4414,-3.4414,-3.4414,-3.4414,-3.4414,-3.4414,-3.4414,-3.4414,-3.4414,-3.4414,-3.4414,-3.4936,-3.4965,-3.4428,-3.4951,-3.4951,-3.4414,-3.4414,-3.4414,-3.4414,-3.4414,-3.4414,-3.4414,-3.4312,-3.3978,-3.3489,-3.3402,-3.2948,-3.2292,-3.1712,-3.1437,-3.1322,-3.0816,-3.0598,-3.0598,-3.0598,-3.0598,-3.0598,-3.0598,-3.0538,-3.0447,-3.0447,-3.0068,-2.9591,-2.9453,-2.9421,-2.9421,-2.9328,-2.8325,-2.7196,-2.6658,-2.6499,-2.6499,-2.6499,-2.6499,-2.6499,-2.6499,-2.6499,-2.6499,-2.6499,-2.6499,-2.6336,-2.5799,-2.5649,-2.5247,-2.4268,0.0,-2.4876,-2.48,-2.536,-2.5946,-2.6449,-2.6411,-2.6197,-2.5762,-2.6135,-2.6456,-2.6661,-2.719,-2.8097,-2.939,-3.0085,-3.048,-3.0514,-2.9442,-2.8387,-2.7376,-2.7376,-2.7376,-2.7361,-2.7473,-2.7152,-2.6416,-2.5753,-2.4266,-2.2253,-2.1393,-1.9776,-1.7851,-1.7773,-1.7298,-1.6697,-1.6675,-1.6914,-1.7187,-3.7549,-3.7447,-3.7041,-3.577,-3.5552,-3.529,-3.453,-3.4414,-3.4414,-3.4414,-3.4414,-3.4414,-3.4414,-3.4414,-3.4414,-3.4414,-3.4414,-3.4414,-3.4414,-3.4414,-3.4414,-3.4414,-3.4501,-3.4516,-3.4414,-3.4501,-3.4501,-3.4414,-3.4414,-3.4414,-3.4414,-3.4414,-3.4414,-3.4385,-3.3862,-3.359,-3.346,-3.2904,-3.228,-3.164,-3.1524,-3.1192,-3.0743,-3.0641,-3.0598,-3.0598,-3.0598,-3.0598,-3.0598,-3.0598,-3.0221,-2.9747,-2.9747,-2.9685,-2.9484,-2.8857,-2.8652,-2.8538,-2.7966,-2.7263,-2.6624,-2.6521,-2.6499,-2.6499,-2.6499,-2.6499,-2.6499,-2.6499,-2.6499,-2.6499,-2.6499,-2.6499,-2.6461,-2.6373,-2.5912,-2.5385,-2.477,0.0,-2.531,-2.4838,-2.5711,-2.6399,-2.6487,-2.6047,-2.59,-2.6336,-2.595,-2.5967,-2.6506,-2.7144,-2.7868,-2.8666,-2.939,-2.9554,-2.9199,-2.8479,-2.7797,-2.7233,-2.7233,-2.7233,-2.7233,-2.7258,-2.6919,-2.6281,-2.5209,-2.3722,-2.1944,-2.0365,-1.8911,-1.767,-1.7122,-1.6816,-1.6675,-1.6565,-1.6584,-1.6635,-3.6823,-3.6765,-3.6475,-3.5566,-3.5392,-3.5174,-3.4501,-3.4414,-3.4414,-3.4414,-3.4414,-3.4414,-3.4414,-3.4414,-3.4414,-3.4414,-3.4414,-3.4414,-3.4414,-3.4414,-3.4414,-3.4414,-3.4414,-3.4414,-3.4414,-3.4414,-3.4414,-3.4414,-3.4066,-3.3906,-3.3891,-3.3558,-3.3398,-3.3369,-3.3093,-3.2759,-3.2396,-3.2106,-3.1613,-3.1018,-3.1018,-3.0843,-3.0598,-3.0598,-3.0598,-3.0598,-3.0598,-3.0598,-3.0538,-3.019,-2.987,-2.9515,-2.9125,-2.8776,-2.839,-2.8051,-2.7953,-2.7835,-2.7129,-2.6485,-2.6034,-2.6034,-2.6034,-2.5925,-2.5636,-2.6072,-2.6411,-2.6097,-2.6273,-2.6499,-2.6499,-2.6499,-2.6386,-2.6084,-2.5774,-2.541,-2.4895,-2.5272,-2.5511,-2.5272,-2.5996,-2.6499,-2.6499,-2.6248,-2.621,-2.6474,-2.6248,-2.621,-2.6474,-2.6782,-2.7154,-2.7533,-2.8887,-2.9013,-2.7767,-2.7799,-2.7564,-2.7093,-2.7093,-2.7093,-2.7093,-2.6829,-2.6191,-2.5224,-2.4327,-2.267,-2.053,-1.9654,-1.8437,-1.7139,-1.682,-1.6654,-1.6577,-1.6522,-1.65,-1.65,-3.6301,-3.6199,-3.5923,-3.5479,-3.5276,-3.498,-3.4486,-3.4414,-3.4414,-3.4414,-3.4414,-3.4414,-3.4414,-3.4414,-3.4414,-3.4414,-3.4414,-3.4414,-3.4414,-3.4414,-3.4414,-3.4414,-3.4414,-3.4414,-3.4414,-3.4414,-3.4341,-3.4196,-3.3736,-3.3431,-3.3271,-3.2745,-3.2481,-3.2481,-3.2353,-3.1973,-3.148,-3.1366,-3.1018,-3.0598,-3.0598,-3.0598,-3.0598,-3.0598,-3.0598,-3.0598,-3.0598,-3.0598,-3.0507,-3.0007,-2.9608,-2.9251,-2.8698,-2.8051,-2.7484,-2.7317,-2.7263,-2.7162,-2.6658,-2.6172,-2.5799,-2.5799,-2.5699,-2.5485,-2.5096,-2.5649,-2.6135,-2.5536,-2.5862,-2.6298,-2.6298,-2.6298,-2.6197,-2.585,0.0,-2.5611,-2.5039,-2.546,-2.5749,-2.5611,-2.6135,-2.6499,-2.6499,-2.6499,-2.6499,-2.6499,-2.6499,-2.6436,-2.6298,-2.6298,-2.624,-2.6077,-2.7795,-2.8183,-2.7003,-2.7194,-2.7178,-2.6951,-2.6951,-2.6951,-2.6951,-2.6445,-2.5514,-2.4299,-2.3498,-2.1694,-1.929,-1.9077,-1.8067,-1.6654,-1.6654,-1.6599,-1.65,-1.65,-1.65,-1.65,-3.6301,-3.5836,-3.545,-3.5407,-3.4878,-3.4472,-3.4428,-3.4414,-3.4414,-3.4414,-3.4414,-3.4414,-3.4414,-3.4414,-3.4414,-3.4414,-3.4414,-3.4414,-3.4414,-3.4414,-3.4414,-3.4414,-3.4414,-3.4414,-3.4414,-3.4414,-3.4124,-3.3576,-3.3518,-3.3166,-3.2553,-3.251,-3.2481,-3.2466,-3.1843,-3.1538,-3.1451,-3.0887,-3.0641,-3.0598,-3.0598,-3.0598,-3.0598,-3.0598,-3.0598,-3.0598,-3.0598,-3.0598,-3.0598,-3.0538,-2.9656,-2.8556,-2.8524,-2.8051,-2.7384,-2.6748,-2.6555,-2.6555,-2.6499,-2.6461,-2.6436,-2.6436,-2.6021,-2.5586,-2.5548,-2.5598,-2.5511,-2.4983,-2.5297,-2.5661,-2.5661,-2.5661,-2.5824,-2.6348,0.0,0.0,-2.5624,-2.6072,-2.6235,-2.5661,-2.6135,-2.6499,-2.6499,-2.6499,-2.6499,-2.6499,-2.6499,-2.626,-2.5686,-2.5661,-2.5217,-2.4236,-2.5478,-2.6635,-2.7614,-2.6588,-2.6302,-2.6806,-2.6806,-2.6806,-2.6779,-2.6192,-2.5258,-2.4069,-2.2963,-2.116,-1.8982,-1.8468,-1.7576,-1.6522,-1.6522,-1.65,-1.65,-1.65,-1.65,-1.65,-3.514,-3.4936,-3.4777,-3.4777,-3.4574,-3.4414,-3.4414,-3.4414,-3.4414,-3.4414,-3.4414,-3.4414,-3.4414,-3.4414,-3.4414,-3.4414,-3.4414,-3.4414,-3.4414,-3.4414,-3.4414,-3.4414,-3.4414,-3.4414,-3.4414,-3.4414,-3.4095,-3.3503,-3.3079,-3.2542,-3.1857,-3.1496,-3.1308,-3.1293,-3.1047,-3.093,-3.0916,-3.0714,-3.0598,-3.0598,-3.0598,-3.0598,-3.0598,-3.0598,-3.0598,-3.0538,-3.0129,-2.9976,-2.9839,-2.8967,-2.8312,-2.7802,-2.7384,-2.7061,-2.685,-2.6555,-2.6499,-2.6499,-2.6499,-2.6235,-2.5925,-2.5925,-2.5762,-2.5423,-2.4757,-2.5121,-2.5347,-2.4494,-2.4745,-2.5109,-2.5109,-2.5109,-2.5197,-2.541,0.0,-2.5372,-2.5146,-2.531,-2.5485,-2.5586,-2.5787,-2.6097,-2.6461,-2.6499,-2.6348,-2.5984,-2.5925,-2.5686,-2.5146,-2.4795,-2.4596,-2.4566,-2.4688,-2.5189,-2.6008,-2.6305,-2.6568,-2.6806,-2.6806,-2.6594,-2.6233,-2.5619,-2.4518,-2.3003,-2.2181,-2.0752,-1.8958,-1.8406,-1.7752,-1.7024,-1.666,-1.65,-1.65,-1.65,-1.65,-1.65,-3.4414,-3.4414,-3.4414,-3.4414,-3.4414,-3.4414,-3.4414,-3.4414,-3.4414,-3.4414,-3.4414,-3.4414,-3.4414,-3.4414,-3.4414,-3.4414,-3.4414,-3.4414,-3.4414,-3.4414,-3.4414,-3.4414,-3.4414,-3.4414,-3.4414,-3.4414,-3.4008,-3.3198,-3.273,-3.2077,-3.1221,-3.0801,-3.0598,-3.0598,-3.0598,-3.0598,-3.0598,-3.0598,-3.0598,-3.0598,-3.0598,-3.0598,-3.0568,-3.0387,-3.0282,-3.019,-2.9515,-2.9251,-2.9125,-2.8149,-2.767,-2.7417,-2.6973,-2.6692,-2.6499,-2.6499,-2.6499,-2.6499,-2.6499,-2.6197,-2.5862,-2.5862,-2.5598,-2.5159,-2.4418,-2.4695,-2.4833,-2.3916,-2.4167,-2.4537,-2.4537,-2.4537,-2.4587,-2.4763,-2.4788,-2.4788,-2.4788,-2.4788,-2.4958,-2.531,-2.5498,-2.5686,-2.5925,-2.6122,-2.5996,-2.5398,-2.536,-2.5121,-2.4594,-2.4029,-2.39,-2.4331,-2.4181,-2.4408,-2.4979,-2.6015,-2.642,-2.6245,-2.642,-2.6192,-2.5605,-2.4992,-2.3857,-2.2363,-2.1746,-2.0552,-1.8958,-1.8406,-1.7877,-1.7348,-1.6748,-1.65,-1.6525,-1.6701,-1.6651,-1.6525,-3.4414,-3.4414,-3.4414,-3.4414,-3.4414,-3.4414,-3.4414,-3.4414,-3.4414,-3.4414,-3.4414,-3.4414,-3.4414,-3.4414,-3.4414,-3.4414,-3.4414,-3.4414,-3.4414,-3.4414,-3.4414,-3.4414,-3.4414,-3.4414,-3.4399,-3.4399,-3.3775,-3.2481,-3.2481,-3.1845,-3.0598,-3.0598,-3.0598,-3.0598,-3.0598,-3.0598,-3.0598,-3.0598,-3.0598,-3.0598,-3.0598,-3.0598,-3.0507,-2.9839,-2.9577,-2.9484,-2.8762,-2.8492,-2.8492,-2.8492,-2.8051,-2.7484,-2.7471,-2.7027,-2.6487,-2.6487,-2.6487,-2.6487,-2.6487,-2.6487,-2.6487,-2.6487,-2.5636,-2.4788,-2.4788,-2.4393,-2.3841,-2.3221,-2.359,-2.3991,-2.3991,-2.3991,-2.4167,-2.4687,-2.4775,-2.4775,-2.4775,-2.4775,-2.4775,-2.4775,-2.5272,-2.5385,-2.4838,-2.5285,-2.5372,-2.4825,-2.4775,-2.4537,-2.4017,-2.3421,-2.3108,-2.3108,-2.3738,-2.4366,-2.4979,-2.5605,-2.5591,-2.5007,-2.5605,-2.5564,-2.4979,-2.4366,-2.3476,-2.2363,-2.1733,-2.0552,-1.8958,-1.8406,-1.789,-1.736,-1.6748,-1.65,-1.6563,-1.7162,-1.7011,-1.6588,-3.4414,-3.4414,-3.4414,-3.4414,-3.4414,-3.4414,-3.4414,-3.4414,-3.4414,-3.4414,-3.4414,-3.4414,-3.4414,-3.4414,-3.4414,-3.4414,-3.4414,-3.4414,-3.4414,-3.4414,-3.4414,-3.4414,-3.4414,-3.4196,-3.3794,-3.3779,-3.3108,-3.1785,-3.1785,-3.1395,-3.0598,-3.0598,-3.0598,-3.0598,-3.0598,-3.0598,-3.0598,-3.0598,-3.0312,-2.9901,-2.9901,-2.9608,-2.9111,-2.8889,-2.9156,-2.9421,-2.8214,-2.8117,-2.8363,-2.7417,-2.6973,-2.6705,-2.6298,-2.6038,-2.5787,-2.5423,-2.531,-2.531,-2.531,-2.531,-2.5398,-2.5762,-2.5598,-2.5172,-2.4418,-2.4117,-2.3841,-2.3221,-2.3246,-2.3358,-2.3358,-2.3358,-2.3409,-2.3584,-2.3609,-2.3609,-2.3609,-2.3609,-2.376,-2.4192,-2.4381,-2.4569,-2.4763,-2.4926,-2.4833,-2.4293,-2.3835,-2.3534,-2.3371,-2.3195,-2.3108,-2.3108,-2.3738,-2.3943,-2.3679,-2.4724,-2.5398,-2.5633,-2.5398,-2.4734,-2.373,-2.3546,-2.2652,-2.1188,-2.1012,-2.0401,-1.9497,-1.8581,-1.8103,-1.7865,-1.6876,-1.65,-1.6513,-1.671,-1.6638,-1.6525,-3.4414,-3.4414,-3.4414,-3.4414,-3.4414,-3.4414,-3.4414,-3.4414,-3.4414,-3.4414,-3.4414,-3.4414,-3.4414,-3.4414,-3.4414,-3.4414,-3.4414,-3.4414,-3.4414,-3.4414,-3.4414,-3.4414,-3.4167,-3.3862,-3.3518,-3.3503,-3.2832,-3.1495,-3.1495,-3.1192,-3.0598,-3.0598,-3.0598,-3.0598,-3.0598,-3.0447,-3.0221,-3.0477,-3.0221,-2.9623,-2.9901,-2.9732,-2.93,-2.9048,-2.903,-2.903,-2.7901,-2.7571,-2.7571,-2.6782,-2.6336,-2.6084,-2.5711,-2.546,-2.5222,-2.4888,-2.4788,-2.4788,-2.4788,-2.4788,-2.4845,-2.4933,-2.4971,-2.4795,-2.4155,-2.3816,-2.3521,-2.3183,-2.3108,-2.3108,-2.3108,-2.3108,-2.3108,-2.3108,-2.3108,-2.3108,-2.3108,-2.3108,-2.3233,-2.3584,-2.3853,-2.4042,-2.4111,-2.4324,-2.4268,-2.3703,-2.3308,-2.3108,-2.3108,-2.3108,-2.3108,-2.3108,-2.3484,-2.3632,-2.3514,-2.3989,-2.4423,-2.4794,-2.4681,-2.4004,-2.2845,-2.2845,-2.2046,-2.0691,-2.0691,-2.0251,-1.9422,-1.8555,-1.8078,-1.779,-1.6851,-1.65,-1.6525,-1.6773,-1.6688,-1.6525,-3.4414,-3.4414,-3.4414,-3.4414,-3.4414,-3.4414,-3.4414,-3.4414,-3.4414,-3.4414,-3.4414,-3.4414,-3.4414,-3.4414,-3.4414,-3.4414,-3.4414,-3.4414,-3.4414,-3.4414,-3.4414,-3.4414,-3.3804,-3.3474,-3.3416,-3.3358,-3.2719,-3.1438,-3.1438,-3.1134,-3.0598,-3.0598,-3.0598,-3.0598,-3.0598,-3.0251,-2.9716,-3.0357,-3.0221,-2.9654,-3.019,-3.0372,-3.0251,-2.9577,-2.8894,-2.8263,-2.7558,-2.6984,-2.6514,-2.6445,-2.6034,-2.5523,-2.5473,-2.5121,-2.4713,-2.465,-2.4637,-2.4637,-2.4637,-2.4637,-2.4512,-2.4042,-2.3916,-2.3916,-2.3916,-2.3484,-2.3108,-2.3108,-2.3108,-2.3108,-2.3108,-2.3108,-2.3108,-2.3108,-2.3108,-2.3108,-2.3108,-2.3108,-2.3108,-2.3108,-2.3602,-2.3715,-2.3158,-2.3615,-2.3703,-2.3145,-2.3108,-2.3108,-2.3108,-2.3108,-2.3108,-2.3108,-2.3108,-2.3395,-2.4015,-2.3395,-2.3138,-2.3198,-2.3699,-2.3347,-2.2234,-2.2184,-2.1581,-2.0616,-2.0566,-1.9949,-1.8958,-1.838,-1.784,-1.7348,-1.6748,-1.65,-1.6563,-1.7112,-1.6974,-1.6575,-3.4414,-3.4414,-3.4414,-3.4414,-3.4414,-3.4414,-3.4414,-3.4414,-3.4414,-3.4414,-3.4414,-3.4414,-3.4414,-3.4414,-3.4414,-3.4414,-3.4414,-3.4414,-3.4414,-3.4414,-3.4414,-3.4414,-3.3804,-3.3256,-3.273,-3.2208,-3.1555,-3.0816,-3.0816,-3.0743,-3.0598,-3.0598,-3.0598,-3.0598,-3.0598,-3.0507,-3.0387,-3.0538,-3.0221,-2.9546,-2.9111,-2.8634,-2.8097,-2.743,-2.7144,-2.6999,-2.6261,-2.6294,-2.6557,-2.5975,-2.5435,-2.4908,-2.4481,-2.4268,-2.4092,-2.3609,-2.3471,-2.3471,-2.3471,-2.3471,-2.3446,-2.3321,-2.3296,-2.3296,-2.3296,-2.3195,-2.3108,-2.3108,-2.3108,-2.3108,-2.3108,-2.3108,-2.3108,-2.3108,-2.3108,-2.3108,-2.3108,-2.3108,-2.3108,-2.3108,-2.3221,-2.3246,-2.3108,-2.3221,-2.3246,-2.3108,-2.3108,-2.3108,-2.3108,-2.3108,-2.3108,-2.3108,-2.3108,-2.3168,-2.3318,-2.3155,-2.3365,-2.3884,-2.3067,-2.234,-2.1656,-2.1245,-2.0666,-1.9962,-1.956,-1.9221,-1.8933,-1.7965,-1.7511,-1.7348,-1.6748,-1.65,-1.6513,-1.666,-1.66,-1.6513,-3.4414,-3.4414,-3.4414,-3.4414,-3.4414,-3.4414,-3.4414,-3.4414,-3.4414,-3.4414,-3.4414,-3.4414,-3.4414,-3.4414,-3.4414,-3.4414,-3.4414,-3.4414,-3.4414,-3.4414,-3.4414,-3.4414,-3.3514,-3.2861,-3.2495,-3.1569,-3.0916,-3.0598,-3.0598,-3.0598,-3.0598,-3.0598,-3.0598,-3.0598,-3.0598,-3.0417,-3.0129,-3.0129,-2.9701,-2.903,-2.8666,-2.8136,-2.7573,-2.7197,-2.6745,-2.6255,-2.6174,-2.6147,-2.6076,-2.5441,-2.487,-2.4381,-2.4092,-2.3803,-2.3496,-2.3195,-2.3108,-2.3108,-2.3108,-2.3108,-2.3108,-2.3108,-2.3108,-2.3108,-2.3108,-2.3108,-2.3108,-2.3108,-2.3108,-2.3108,-2.3108,-2.3108,-2.3108,-2.3108,-2.3108,-2.3108,-2.3108,-2.3108,-2.3108,-2.3108,-2.3108,-2.3108,-2.3108,-2.3108,-2.3108,-2.3108,-2.3108,-2.3108,-2.3108,-2.3108,-2.3108,-2.3108,-2.3108,-2.3108,-2.3108,-2.2844,-2.2883,-2.3222,-2.2593,-2.1882,-2.1119,-2.083,-2.0377,-1.9786,-1.9484,-1.9233,-1.8945,-1.8129,-1.7614,-1.7348,-1.6748,-1.65,-1.65,-1.65,-1.65,-1.65,-3.4414,-3.4414,-3.4414,-3.4414,-3.4414,-3.4414,-3.4414,-3.4414,-3.4414,-3.4414,-3.4414,-3.4414,-3.4414,-3.4414,-3.4414,-3.4414,-3.4414,-3.4414,-3.4414,-3.4312,-3.4254,-3.4254,-3.3021,-3.2321,-3.2321,-3.1177,-3.0598,-3.0598,-3.0598,-3.0598,-3.0598,-3.0598,-3.0598,-3.0598,-3.0598,-3.0282,-2.9777,-2.9777,-2.9352,-2.8661,-2.8438,-2.8021,-2.7523,-2.7274,-2.6489,-2.555,-2.605,-2.5768,-2.5121,-2.4795,-2.4305,-2.3853,-2.3853,-2.3496,-2.3108,-2.3108,-2.3108,-2.3108,-2.3108,-2.3108,-2.3108,-2.3108,-2.3108,-2.3108,-2.3108,-2.3108,-2.3108,-2.3108,-2.3108,-2.3108,-2.3108,-2.3183,-2.3221,-2.312,-2.3195,-2.3221,-2.312,-2.3108,-2.3108,-2.3108,-2.3108,-2.3108,-2.3108,-2.3108,-2.3108,-2.3108,-2.3108,-2.3108,-2.3108,-2.3108,-2.3108,-2.3108,-2.3108,-2.3108,-2.3108,-2.2556,-2.2309,-2.2309,-2.2121,-2.1556,-2.0691,-2.0591,-2.0289,-1.9798,-1.971,-1.9396,-1.8958,-1.8406,-1.7877,-1.736,-1.6861,-1.6588,-1.65,-1.65,-1.65,-1.65,-3.4414,-3.4414,-3.4414,-3.4414,-3.4414,-3.4414,-3.4414,-3.4414,-3.4414,-3.4414,-3.4414,-3.4414,-3.4414,-3.4414,-3.4414,-3.4414,-3.4414,-3.4414,-3.4414,-3.3891,-3.3634,-3.3634,-3.2353,-3.1656,-3.1656,-3.0945,-3.0598,-3.0598,-3.0598,-3.0598,-3.0598,-3.0598,-3.0598,-3.0598,-3.0598,-3.0538,-3.0447,-3.0447,-3.0069,-2.9343,-2.8229,-2.7441,-2.6729,-2.5619,-2.4805,-2.4261,-2.4337,-2.3953,-2.3509,-2.3966,-2.3697,-2.3221,-2.3221,-2.317,-2.3108,-2.3108,-2.3108,-2.3108,-2.3108,-2.3108,-2.3108,-2.3108,-2.3108,-2.3108,-2.3108,-2.3108,-2.3108,-2.3108,-2.3108,-2.3108,-2.3108,-2.354,-2.3715,-2.3183,-2.3521,-2.3703,-2.317,-2.3108,-2.3108,-2.3108,-2.3108,-2.3108,-2.3108,-2.3108,-2.3108,-2.3108,-2.3108,-2.3108,-2.3108,-2.3108,-2.3108,-2.3108,-2.3108,-2.3108,-2.3108,-2.2556,-2.2309,-2.2297,-2.137,-2.0842,-2.0679,-2.015,-1.9874,-1.9773,-1.9309,-1.907,-1.8958,-1.8406,-1.7877,-1.7398,-1.7322,-1.6961,-1.65,-1.65,-1.65,-1.65,-3.4414,-3.4414,-3.4414,-3.4414,-3.4414,-3.4414,-3.4414,-3.4414,-3.4414,-3.4414,-3.4414,-3.4414,-3.4414,-3.4414,-3.4414,-3.4414,-3.4095,-3.3891,-3.3891,-3.3296,-3.2933,-3.2933,-3.2034,-3.1495,-3.1495,-3.0901,-3.0598,-3.0598,-3.0598,-3.0598,-3.0598,-3.0598,-3.0598,-3.0598,-3.0598,-3.0598,-3.0509,-2.9456,-2.8797,-2.8396,-2.6742,-2.5717,-2.5117,-2.4564,-2.4017,-2.3484,-2.3484,-2.3521,-2.3572,-2.3509,-2.3308,-2.3108,-2.3108,-2.3108,-2.3108,-2.3108,-2.3108,-2.3108,-2.3108,-2.3108,-2.3108,-2.3108,-2.3108,-2.3108,-2.3108,-2.3108,-2.3108,-2.3108,-2.3108,-2.3108,-2.3108,-2.3308,-2.3396,-2.3145,-2.3321,-2.3396,-2.3145,-2.3108,-2.3108,-2.3108,-2.3108,-2.3108,-2.3108,-2.3108,-2.3108,-2.3108,-2.3108,-2.3108,-2.3108,-2.3108,-2.3108,-2.3108,-2.2807,-2.2794,-2.3108,-2.2284,-2.2008,-2.2297,-2.1219,-2.0691,-2.0679,-2.0075,-1.9798,-1.9798,-1.956,-1.9459,-1.9422,-1.8857,-1.8342,-1.7815,-1.7524,-1.7024,-1.65,-1.65,-1.65,-1.65]},{"header":{"parameterUnit":"m.s-1","parameterCategory":1,"la1":30.6,"la2":28.766,"lo1":-90.7593,"lo2":-88.6598,"dy":0.0162,"dx":0.0183,"nx":116,"ny":114,"refTime":"2023-06-22T12:00:00:Z","depth":0,"parameterNumber":3,"parameterNumberName":"V-component_of_WINDS"},"data":[0.0,0.0,0.0,0.0,0.0,0.0,0.0,0.0,0.0,0.0,0.0,0.0,0.0,0.0,0.0,0.0,0.0,0.0,0.0,0.0,0.0,0.0,0.0,0.0,0.0,0.0,0.0,0.0,0.0,0.0,0.0,0.0,0.0,0.0,0.0,0.0,0.0,0.0,0.0,0.0,0.0,0.0,0.0,0.0,0.0,0.0,0.0,0.0,0.0,0.0,0.0,0.0,0.0,0.0,0.0,0.0,0.0,0.0,0.0,0.0,0.0,0.0,0.0,0.0,0.0,0.0,0.0,0.0,0.0,0.0,0.0,0.0,0.0,0.0,0.0,0.0,0.0,0.0,0.0,0.0,0.0,0.0,0.0,0.0,0.0,0.0,0.0,0.0,0.0,0.0,0.0,0.0,0.0,0.0,0.0,0.0,0.0,0.0,0.0,0.0,0.0,0.0,0.0,0.0,0.0,0.0,0.0,0.0,0.0,0.0,0.0,0.0,0.0,0.0,0.0,0.0,0.0,0.0,0.0,0.0,0.0,0.0,0.0,0.0,0.0,0.0,0.0,0.0,0.0,0.0,0.0,0.0,0.0,0.0,0.0,0.0,0.0,0.0,0.0,0.0,0.0,0.0,0.0,0.0,0.0,0.0,0.0,0.0,0.0,0.0,0.0,0.0,0.0,0.0,0.0,0.0,0.0,0.0,0.0,0.0,0.0,0.0,0.0,0.0,0.0,0.0,0.0,0.0,0.0,0.0,0.0,0.0,0.0,0.0,0.0,0.0,0.0,0.0,0.0,0.0,0.0,0.0,0.0,0.0,0.0,0.0,0.0,0.0,0.0,0.0,0.0,0.0,0.0,0.0,0.0,0.0,0.0,0.0,0.0,0.0,0.0,0.0,0.0,0.0,0.0,0.0,0.0,0.0,0.0,0.0,0.0,0.0,0.0,0.0,0.0,0.0,0.0,0.0,0.0,0.0,0.0,0.0,0.0,0.0,0.0,0.0,0.0,0.0,0.0,0.0,0.0,0.0,0.0,0.0,0.0,0.0,0.0,0.0,0.0,0.0,0.0,0.0,0.0,0.0,0.0,0.0,0.0,0.0,0.0,0.0,0.0,0.0,0.0,0.0,0.0,0.0,0.0,0.0,0.0,0.0,0.0,0.0,0.0,0.0,0.0,0.0,0.0,0.0,0.0,0.0,0.0,0.0,0.0,0.0,0.0,0.0,0.0,0.0,0.0,0.0,0.0,0.0,0.0,0.0,0.0,0.0,0.0,0.0,0.0,0.0,0.0,0.0,0.0,0.0,0.0,0.0,0.0,0.0,0.0,0.0,0.0,0.0,0.0,0.0,0.0,0.0,0.0,0.0,0.0,0.0,0.0,0.0,0.0,0.0,0.0,0.0,0.0,0.0,0.0,0.0,0.0,0.0,0.0,0.0,0.0,0.0,0.0,0.0,0.0,0.0,0.0,0.0,0.0,0.0,0.0,0.0,0.0,0.0,0.0,0.0,0.0,0.0,0.0,0.0,0.0,0.0,0.0,0.0,0.0,0.0,0.0,0.0,0.0,0.0,0.0,0.0,0.0,0.0,0.0,0.0,0.0,0.0,0.0,0.0,0.0,0.0,0.0,0.0,0.0,0.0,0.0,0.0,0.0,0.0,0.0,0.0,0.0,0.0,0.0,0.0,0.0,0.0,0.0,0.0,0.0,0.0,0.0,0.0,0.0,0.0,0.0,0.0,0.0,0.0,0.0,0.0,0.0,0.0,0.0,0.0,0.0,0.0,0.0,0.0,0.0,0.0,0.0,0.0,0.0,0.0,0.0,0.0,0.0,0.0,0.0,0.0,0.0,0.0,0.0,0.0,0.0,0.0,0.0,0.0,0.0,0.0,0.0,0.0,0.0,0.0,0.0,0.0,0.0,0.0,0.0,0.0,0.0,0.0,0.0,0.0,0.0,0.0,0.0,0.0,0.0,0.0,0.0,0.0,0.0,0.0,0.0,0.0,0.0,0.0,0.0,0.0,0.0,0.0,0.0,0.0,0.0,0.0,0.0,0.0,0.0,0.0,0.0,0.0,0.0,0.0,0.0,0.0,0.0,0.0,0.0,0.0,0.0,0.0,0.0,0.0,0.0,0.0,0.0,0.0,0.0,0.0,0.0,0.0,0.0,0.0,0.0,0.0,0.0,0.0,0.0,0.0,0.0,0.0,0.0,0.0,0.0,0.0,0.0,0.0,0.0,0.0,0.0,0.0,0.0,0.0,0.0,0.0,0.0,0.0,0.0,0.0,0.0,0.0,0.0,0.0,0.0,0.0,0.0,0.0,0.0,0.0,0.0,0.0,0.0,0.0,0.0,0.0,0.0,0.0,0.0,0.0,0.0,0.0,0.0,0.0,0.0,0.0,0.0,0.0,0.0,0.0,0.0,0.0,0.0,0.0,0.0,0.0,0.0,0.0,0.0,0.0,0.0,0.0,0.0,0.0,0.0,0.0,0.0,0.0,0.0,0.0,0.0,0.0,0.0,0.0,0.0,0.0,0.0,0.0,0.0,0.0,0.0,0.0,0.0,0.0,0.0,0.0,0.0,0.0,0.0,0.0,0.0,0.0,0.0,0.0,0.0,0.0,0.0,0.0,0.0,0.0,0.0,0.0,0.0,0.0,0.0,0.0,0.0,0.0,0.0,0.0,0.0,0.0,0.0,0.0,0.0,0.0,0.0,0.0,0.0,0.0,0.0,0.0,0.0,0.0,0.0,0.0,0.0,0.0,0.0,0.0,0.0,0.0,0.0,0.0,0.0,0.0,0.0,0.0,0.0,0.0,0.0,0.0,0.0,0.0,0.0,0.0,0.0,0.0,0.0,0.0,0.0,0.0,0.0,0.0,0.0,0.0,0.0,0.0,0.0,0.0,0.0,0.0,0.0,0.0,0.0,0.0,0.0,0.0,0.0,0.0,0.0,0.0,0.0,0.0,0.0,0.0,0.0,0.0,0.0,0.0,0.0,0.0,0.0,0.0,0.0,0.0,0.0,0.0,0.0,0.0,0.0,0.0,0.0,0.0,0.0,0.0,0.0,0.0,0.0,0.0,0.0,0.0,0.0,0.0,0.0,0.0,0.0,0.0,0.0,0.0,0.0,0.0,0.0,0.0,0.0,0.0,0.0,0.0,0.0,0.0,0.0,0.0,0.0,0.0,0.0,0.0,0.0,0.0,0.0,0.0,0.0,0.0,0.0,0.0,0.0,0.0,0.0,0.0,0.0,0.0,0.0,0.0,0.0,0.0,0.0,0.0,0.0,0.0,0.0,0.0,0.0,0.0,0.0,0.0,0.0,0.0,0.0,0.0,0.0,0.0,0.0,0.0,0.0,0.0,0.0,0.0,0.0,0.0,0.0,0.0,0.0,0.0,0.0,0.0,0.0,0.0,0.0,0.0,0.0,0.0,0.0,0.0,0.0,0.0,0.0,0.0,0.0,0.0,0.0,0.0,0.0,0.0,0.0,0.0,0.0,0.0,0.0,0.0,0.0,0.0,0.0,0.0,0.0,0.0,0.0,0.0,0.0,0.0,0.0,0.0,0.0,0.0,0.0,0.0,0.0,0.0,0.0,0.0,0.0,0.0,0.0,0.0,0.0,0.0,0.0,0.0,0.0,0.0,0.0,0.0,0.0,0.0,0.0,0.0,0.0,0.0,0.0,0.0,0.0,0.0,0.0,0.0,0.0,0.0,0.0,0.0,0.0,0.0,0.0,0.0,0.0,0.0,0.0,0.0,0.0,0.0,0.0,0.0,0.0,0.0,0.0,0.0,0.0,0.0,0.0,0.0,0.0,0.0,0.0,0.0,0.0,0.0,0.0,0.0,0.0,0.0,0.0,0.0,0.0,0.0,0.0,0.0,0.0,0.0,0.0,0.0,0.0,0.0,0.0,0.0,0.0,0.0,0.0,0.0,0.0,0.0,0.0,0.0,0.0,0.0,0.0,0.0,0.0,0.0,0.0,0.0,0.0,0.0,0.0,0.0,0.0,0.0,0.0,0.0,0.0,0.0,0.0,0.0,0.0,0.0,0.0,0.0,0.0,0.0,0.0,0.0,0.0,0.0,0.0,0.0,0.0,0.0,0.0,0.0,0.0,0.0,0.0,0.0,0.0,0.0,0.0,0.0,0.0,0.0,0.0,0.0,0.0,0.0,0.0,0.0,0.0,0.0,0.0,0.0,0.0,0.0,0.0,0.0,0.0,0.0,0.0,0.0,0.0,0.0,0.0,0.0,0.0,0.0,0.0,0.0,0.0,0.0,0.0,0.0,0.0,0.0,0.0,0.0,0.0,0.0,0.0,0.0,0.0,0.0,0.0,0.0,0.0,0.0,0.0,0.0,0.0,0.0,0.0,0.0,0.0,0.0,0.0,0.0,0.0,0.0,0.0,0.0,0.0,0.0,0.0,0.0,0.0,0.0,0.0,0.0,0.0,0.0,0.0,0.0,0.0,0.0,0.0,0.0,0.0,0.0,0.0,0.0,0.0,0.0,0.0,0.0,0.0,0.0,0.0,0.0,0.0,0.0,0.0,0.0,0.0,0.0,0.0,0.0,0.0,0.0,0.0,0.0,0.0,0.0,0.0,0.0,0.0,0.0,0.0,0.0,0.0,0.0,0.0,0.0,0.0,0.0,0.0,0.0,0.0,0.0,0.0,0.0,0.0,0.0,0.0,0.0,0.0,0.0,0.0,0.0,0.0,0.0,0.0,0.0,0.0,0.0,0.0,0.0,0.0,0.0,0.0,0.0,0.0,0.0,0.0,0.0,0.0,0.0,0.0,0.0,0.0,0.0,0.0,0.0,0.0,0.0,0.0,0.0,0.0,0.0,0.0,0.0,0.0,0.0,0.0,0.0,0.0,0.0,0.0,0.0,0.0,0.0,0.0,0.0,0.0,0.0,0.0,0.0,0.0,0.0,0.0,0.0,0.0,0.0,0.0,0.0,0.0,0.0,0.0,0.0,0.0,0.0,0.0,0.0,0.0,0.0,0.0,0.0,0.0,0.0,0.0,0.0,0.0,0.0,0.0,0.0,0.0,0.0,0.0,0.0,0.0,0.0,0.0,0.0,0.0,0.0,0.0,0.0,0.0,0.0,0.0,0.0,0.0,0.0,0.0,0.0,0.0,0.0,0.0,0.0,0.0,0.0,0.0,0.0,0.0,0.0,0.0,0.0,0.0,0.0,0.0,0.0,0.0,0.0,0.0,0.0,0.0,0.0,0.0,0.0,0.0,0.0,0.0,0.0,0.0,0.0,0.0,0.0,0.0,0.0,0.0,0.0,0.0,0.0,0.0,0.0,0.0,0.0,0.0,0.0,0.0,0.0,0.0,0.0,0.0,0.0,0.0,0.0,0.0,0.0,0.0,0.0,0.0,0.0,0.0,0.0,0.0,0.0,0.0,0.0,0.0,0.0,0.0,0.0,0.0,0.0,0.0,0.0,0.0,0.0,0.0,0.0,0.0,0.0,0.0,0.0,0.0,0.0,0.0,0.0,0.0,0.0,0.0,0.0,0.0,0.0,0.0,0.0,0.0,0.0,0.0,0.0,0.0,0.0,0.0,0.0,0.0,0.0,0.0,0.0,0.0,0.0,0.0,0.0,0.0,0.0,0.0,0.0,0.0,0.0,0.0,0.0,0.0,0.0,0.0,0.0,0.0,0.0,0.0,0.0,0.0,0.0,0.0,0.0,0.0,0.0,0.0,0.0,0.0,0.0,0.0,0.0,0.0,0.0,0.0,0.0,0.0,0.0,0.0,0.0,0.0,0.0,0.0,0.0,0.0,0.0,0.0,0.0,0.0,0.0,0.0,0.0,0.0,0.0,0.0,0.0,0.0,0.0,0.0,0.0,0.0,0.0,0.0,0.0,0.0,0.0,0.0,0.0,0.0,0.0,0.0,0.0,0.0,0.0,0.0,0.0,0.0,0.0,0.0,0.0,0.0,0.0,0.0,0.0,0.0,0.0,0.0,0.0,0.0,0.0,0.0,0.0,0.0,0.0,0.0,0.0,0.0,0.0,0.0,0.0,0.0,0.0,0.0,0.0,0.0,0.0,0.0,0.0,0.0,0.0,0.0,0.0,0.0,0.0,-2.5644,-2.5543,0.0,0.0,0.0,0.0,0.0,0.0,0.0,0.0,0.0,0.0,0.0,0.0,0.0,0.0,0.0,0.0,0.0,0.0,0.0,0.0,0.0,0.0,0.0,0.0,0.0,0.0,0.0,0.0,0.0,0.0,0.0,0.0,0.0,0.0,0.0,0.0,0.0,0.0,0.0,0.0,0.0,0.0,0.0,0.0,0.0,0.0,0.0,0.0,0.0,0.0,0.0,0.0,0.0,0.0,0.0,0.0,0.0,0.0,0.0,0.0,0.0,0.0,0.0,0.0,0.0,0.0,0.0,0.0,0.0,0.0,0.0,0.0,0.0,0.0,0.0,0.0,0.0,0.0,0.0,0.0,0.0,0.0,0.0,0.0,0.0,0.0,0.0,0.0,0.0,0.0,0.0,0.0,0.0,0.0,0.0,0.0,0.0,0.0,0.0,0.0,0.0,0.0,0.0,0.0,0.0,0.0,0.0,0.0,0.0,0.0,0.0,0.0,0.0,0.0,-2.6041,-2.5958,0.0,0.0,0.0,0.0,0.0,0.0,0.0,0.0,0.0,0.0,0.0,0.0,0.0,0.0,0.0,0.0,0.0,0.0,0.0,0.0,0.0,0.0,0.0,0.0,0.0,0.0,0.0,0.0,0.0,0.0,0.0,0.0,0.0,0.0,0.0,0.0,0.0,0.0,0.0,0.0,0.0,0.0,0.0,0.0,0.0,0.0,0.0,0.0,0.0,0.0,0.0,0.0,0.0,0.0,0.0,0.0,0.0,0.0,0.0,0.0,0.0,0.0,0.0,0.0,0.0,0.0,0.0,0.0,0.0,0.0,0.0,0.0,0.0,0.0,0.0,0.0,0.0,0.0,0.0,0.0,0.0,0.0,0.0,0.0,0.0,0.0,0.0,0.0,0.0,0.0,0.0,0.0,0.0,0.0,0.0,0.0,0.0,0.0,0.0,0.0,0.0,0.0,0.0,0.0,0.0,0.0,0.0,0.0,-2.694,-2.7114,-2.7105,-2.6967,-2.6903,-2.6903,-2.6903,-2.6884,-2.6862,-2.6444,0.0,0.0,0.0,0.0,0.0,0.0,0.0,0.0,0.0,0.0,0.0,0.0,0.0,0.0,0.0,0.0,0.0,0.0,0.0,0.0,0.0,0.0,0.0,0.0,0.0,0.0,0.0,0.0,0.0,0.0,0.0,0.0,0.0,0.0,0.0,0.0,0.0,0.0,-2.7227,-2.7393,-2.7342,-2.7025,0.0,0.0,0.0,0.0,0.0,0.0,0.0,0.0,0.0,0.0,0.0,0.0,0.0,0.0,0.0,0.0,0.0,0.0,0.0,0.0,0.0,0.0,0.0,0.0,0.0,0.0,0.0,0.0,0.0,0.0,0.0,0.0,0.0,0.0,0.0,0.0,0.0,0.0,0.0,0.0,0.0,0.0,0.0,0.0,-2.6034,-2.4347,0.0,0.0,0.0,0.0,0.0,0.0,0.0,0.0,0.0,0.0,0.0,0.0,0.0,-2.6967,-2.7013,-2.8113,-2.881,-2.9154,-2.9149,-2.9177,-2.9159,-2.8471,-2.8159,-2.8159,-2.8159,0.0,-2.8106,-2.753,0.0,0.0,0.0,0.0,0.0,0.0,0.0,0.0,0.0,0.0,0.0,0.0,0.0,0.0,0.0,0.0,0.0,0.0,0.0,0.0,0.0,0.0,0.0,0.0,0.0,0.0,0.0,0.0,0.0,0.0,0.0,0.0,0.0,0.0,0.0,0.0,-2.5485,-2.5943,-2.631,-2.6413,-2.6546,-2.6685,-2.7565,-2.8496,-2.953,-3.0788,0.0,0.0,0.0,0.0,0.0,0.0,0.0,0.0,0.0,0.0,0.0,0.0,0.0,0.0,0.0,0.0,0.0,0.0,0.0,0.0,0.0,0.0,0.0,0.0,0.0,0.0,0.0,0.0,0.0,0.0,0.0,0.0,0.0,0.0,0.0,0.0,0.0,0.0,0.0,-2.5977,-2.5301,-2.3803,-2.4331,-2.4456,0.0,0.0,0.0,0.0,0.0,0.0,0.0,0.0,0.0,-2.6345,-2.6926,-2.7339,-2.7564,-2.8489,-2.8957,-2.8911,-2.9131,-2.9241,-2.9232,-2.8883,-2.8728,-2.8737,-2.8966,-2.9301,-2.9675,-2.8657,-2.871,-2.9555,0.0,0.0,0.0,0.0,-3.2164,-3.2395,0.0,0.0,0.0,0.0,0.0,0.0,0.0,0.0,0.0,0.0,0.0,0.0,0.0,0.0,0.0,-3.1573,0.0,0.0,0.0,0.0,0.0,0.0,0.0,0.0,0.0,0.0,0.0,0.0,-2.4855,-2.5119,-2.5509,-2.5647,-2.593,-2.6358,-2.7151,-2.8236,-2.9546,-3.0718,-3.1673,0.0,0.0,0.0,0.0,0.0,0.0,0.0,0.0,0.0,0.0,0.0,0.0,0.0,0.0,0.0,0.0,0.0,0.0,0.0,0.0,0.0,0.0,0.0,0.0,0.0,0.0,0.0,0.0,0.0,0.0,0.0,0.0,0.0,0.0,0.0,0.0,0.0,0.0,-2.5115,-2.4819,-2.3487,-2.436,-2.4667,0.0,0.0,0.0,0.0,0.0,0.0,-2.5177,-2.5611,-2.6166,-2.7001,-2.7506,-2.7942,-2.8281,-2.8938,-2.9195,-2.9012,-2.9094,-2.9195,-2.9287,-2.9076,-2.8929,-2.8847,-2.914,-2.9565,-3.0017,-2.9564,-2.9762,-3.0422,-3.0817,-3.1422,-3.2111,-3.2323,-3.2571,-3.2818,0.0,0.0,0.0,0.0,0.0,0.0,0.0,0.0,0.0,0.0,0.0,0.0,0.0,0.0,-3.3178,-3.1365,-3.1031,-2.9742,0.0,0.0,0.0,0.0,0.0,0.0,0.0,0.0,0.0,-2.4536,-2.4768,-2.4923,-2.4969,-2.5474,-2.5756,-2.5896,-2.6992,-2.8205,-2.9473,-3.0769,-3.1673,-3.2335,0.0,0.0,0.0,0.0,0.0,0.0,0.0,0.0,0.0,0.0,0.0,0.0,0.0,0.0,0.0,0.0,0.0,0.0,0.0,0.0,0.0,0.0,0.0,0.0,0.0,0.0,0.0,0.0,0.0,0.0,0.0,0.0,0.0,0.0,0.0,0.0,0.0,0.0,0.0,-2.3272,-2.4456,0.0,0.0,0.0,0.0,-2.417,-2.4556,-2.5108,-2.5743,-2.6118,-2.6791,-2.7831,-2.8598,-2.9186,-2.9479,-2.992,-3.0314,-3.0662,-2.9901,-2.9745,-3.0112,-2.9342,-2.8783,-2.8425,-2.8443,-2.8272,-2.8095,-3.0058,-3.1355,-3.2091,-3.2051,-3.2064,-3.2111,-3.2111,-3.2276,-3.2488,0.0,0.0,0.0,0.0,0.0,0.0,0.0,0.0,0.0,0.0,0.0,0.0,0.0,-3.4054,-3.3213,-3.1536,-3.0763,-2.9396,-2.7046,0.0,0.0,0.0,0.0,0.0,0.0,0.0,-2.4411,-2.3789,-2.3879,-2.3763,-2.3488,-2.44,-2.5004,-2.5387,-2.6487,-2.77,-2.8966,-3.0187,-3.1035,-3.1619,-3.2051,-3.2251,0.0,0.0,0.0,0.0,0.0,0.0,0.0,0.0,0.0,0.0,0.0,0.0,0.0,0.0,0.0,0.0,0.0,0.0,0.0,0.0,0.0,0.0,0.0,0.0,0.0,0.0,0.0,0.0,0.0,0.0,0.0,0.0,0.0,0.0,0.0,0.0,0.0,-2.429,-2.5326,0.0,-2.4902,-2.4881,-2.4967,-2.4967,-2.554,-2.6121,-2.6625,-2.6772,-2.7193,-2.7989,-2.828,-2.8612,-2.8904,-2.9295,-2.9562,-2.9626,-2.9333,-2.9269,-2.9406,-2.9113,-2.8764,-2.8397,-2.8397,-2.8544,-2.8952,-3.0197,-3.0847,-3.1212,-3.2431,-3.2877,-3.2877,-3.2877,-3.2804,-3.2766,0.0,0.0,0.0,0.0,0.0,0.0,0.0,0.0,0.0,0.0,0.0,-3.438,-3.4312,-3.4108,-3.3423,-3.2037,-3.087,-2.9398,-2.7533,0.0,0.0,0.0,0.0,0.0,0.0,-2.4472,-2.3991,-2.3501,-2.327,-2.3075,-2.2945,-2.3658,-2.4389,-2.5104,-2.5899,-2.7125,-2.8588,-2.9494,-3.0361,-3.119,-3.1797,-3.2046,-3.2064,0.0,0.0,0.0,0.0,0.0,0.0,0.0,0.0,0.0,0.0,0.0,0.0,0.0,0.0,0.0,0.0,0.0,0.0,0.0,0.0,0.0,0.0,0.0,0.0,0.0,0.0,0.0,0.0,0.0,0.0,0.0,0.0,0.0,0.0,-2.4633,-2.5267,-2.4667,-2.584,-2.6336,-2.5455,-2.5778,-2.5943,-2.5943,-2.6516,-2.7039,-2.7432,-2.745,-2.7754,-2.8306,-2.8314,-2.8439,-2.8724,-2.8976,-2.9086,-2.8984,-2.8984,-2.8911,-2.8783,-2.8783,-2.8489,-2.7985,-2.7985,-2.8408,-2.9043,-2.9784,-3.0286,-3.0799,-3.26,-3.3178,-3.3017,-3.3017,-3.2831,-3.2551,0.0,0.0,0.0,0.0,0.0,0.0,0.0,0.0,0.0,0.0,-3.4414,-3.4346,-3.4128,-3.4094,-3.3736,-3.2783,-3.1254,-2.9794,-2.8446,-2.6918,0.0,0.0,0.0,0.0,-2.5052,-2.3823,-2.3336,-2.3642,-2.3029,-2.2898,-2.3366,-2.3378,-2.3997,-2.5007,-2.5287,-2.6534,-2.8382,-2.8769,-2.9737,-3.1161,-3.2931,-3.3134,-3.2536,0.0,0.0,0.0,0.0,0.0,0.0,0.0,0.0,0.0,0.0,0.0,0.0,0.0,0.0,0.0,0.0,0.0,0.0,0.0,0.0,0.0,0.0,0.0,0.0,0.0,0.0,0.0,0.0,0.0,0.0,0.0,0.0,0.0,-2.3505,-2.4289,-2.4701,-2.435,-2.5934,-2.6628,-2.5589,-2.6414,-2.7064,-2.709,-2.7415,-2.7775,-2.8177,-2.8194,-2.832,-2.8652,-2.8652,-2.8835,-2.9103,-2.9103,-2.9086,-2.8984,-2.8984,-2.8773,-2.8397,-2.8397,-2.7948,-2.7178,-2.7169,-2.7553,-2.828,-2.8931,-2.9827,-3.0986,-3.2619,-3.2925,-3.2466,-3.2466,-3.2204,-3.1816,0.0,0.0,0.0,0.0,0.0,0.0,0.0,0.0,0.0,0.0,-3.4414,-3.438,-3.4312,-3.4196,-3.3585,-3.2298,-3.074,-2.9214,-2.7764,0.0,0.0,0.0,0.0,0.0,-2.3944,-2.3457,-2.2997,-2.2608,-2.2667,-2.258,-2.2361,-2.3464,-2.4123,-2.4474,-2.5774,-2.6823,-2.7781,-2.9117,-3.0355,-3.1402,-3.2006,-3.2313,-3.2484,0.0,0.0,0.0,0.0,0.0,0.0,0.0,0.0,0.0,0.0,0.0,0.0,0.0,0.0,0.0,0.0,0.0,0.0,0.0,0.0,0.0,0.0,0.0,0.0,0.0,0.0,0.0,0.0,0.0,0.0,0.0,-2.2946,-2.341,-2.396,-2.4731,-2.5378,-2.5814,-2.6328,-2.6636,-2.661,-2.6628,-2.6876,-2.7415,-2.7552,-2.7775,-2.8177,-2.8194,-2.8257,-2.832,-2.8329,-2.8452,-2.8745,-2.8745,-2.8844,-2.8984,-2.8984,-2.8773,-2.8397,-2.8397,-2.7948,-2.716,-2.6875,-2.7615,-2.892,-2.8837,-2.9859,-3.1576,-3.2025,-3.2135,-3.2009,-3.2009,-3.1876,-3.1681,0.0,0.0,0.0,0.0,0.0,0.0,0.0,0.0,0.0,0.0,-3.4414,-3.4414,-3.4414,-3.4066,-3.3513,-3.2709,-3.095,-2.947,-2.8547,0.0,0.0,0.0,0.0,-2.4738,-2.3803,-2.3442,-2.2951,-2.2418,-2.2568,-2.2606,-2.2549,-2.3452,-2.4137,-2.4675,-2.5758,-2.6816,-2.7881,-2.9228,-3.0391,-3.1368,-3.1964,-3.2549,-3.3108,-3.3407,-3.3537,-3.3569,-3.3924,-3.4036,-3.4021,-3.3858,0.0,0.0,0.0,0.0,0.0,0.0,0.0,0.0,0.0,0.0,0.0,0.0,0.0,0.0,0.0,0.0,0.0,0.0,0.0,0.0,0.0,0.0,0.0,0.0,-2.2954,-2.3614,-2.4376,-2.4855,-2.536,-2.5951,-2.6439,-2.6696,-2.661,-2.6816,-2.7073,-2.7364,-2.7672,-2.7955,-2.8186,-2.8349,-2.8289,-2.7955,-2.81,-2.825,-2.8374,-2.8543,-2.8731,-2.8984,-2.8819,-2.8526,-2.8122,-2.7792,-2.7279,-2.6701,-2.6707,-2.7568,-2.8968,-2.8908,-2.9908,-3.1479,0.0,0.0,0.0,0.0,-3.1252,-3.1372,0.0,0.0,0.0,0.0,0.0,0.0,0.0,0.0,0.0,0.0,0.0,-3.4414,-3.4414,-3.3848,-3.3474,-3.3402,-3.1428,-3.0053,0.0,0.0,0.0,-2.6393,-2.5992,-2.5298,-2.4196,-2.359,-2.3113,-2.2775,-2.2739,-2.2932,-2.3403,-2.3509,-2.416,-2.5189,-2.5563,-2.6689,-2.8301,-2.9168,-3.0165,-3.1268,-3.2402,-3.3259,-3.3897,-3.4028,-3.4086,-3.4192,-3.4933,-3.5226,-3.5172,-3.4457,0.0,0.0,0.0,0.0,0.0,0.0,0.0,0.0,0.0,0.0,0.0,0.0,0.0,0.0,0.0,0.0,0.0,0.0,0.0,0.0,0.0,0.0,0.0,0.0,-2.3229,-2.3922,-2.465,-2.4795,-2.4958,-2.5326,-2.6268,-2.6636,-2.6003,-2.6799,-2.7287,-2.715,-2.7749,-2.8126,-2.8126,-2.8545,0.0,0.0,0.0,-2.8076,-2.7898,-2.8312,-2.8579,-2.8773,-2.8425,-2.8012,-2.7592,-2.6839,-2.6289,-2.5973,-2.6567,-2.7482,-2.8551,-2.9016,-2.9889,-3.0973,-3.1421,-3.1318,-3.087,-3.0388,-3.0464,-3.0902,0.0,0.0,0.0,0.0,0.0,0.0,0.0,0.0,0.0,-3.4664,-3.4481,-3.4414,-3.4414,-3.3848,-3.33,-3.2745,-3.114,-2.9486,0.0,0.0,-2.7108,-2.551,-2.5737,-2.5308,-2.4077,-2.3535,-2.3245,-2.3178,-2.3236,-2.33,-2.3433,-2.429,-2.4806,-2.5076,-2.6162,-2.7097,-2.7976,-2.9279,-3.0472,-3.1572,-3.234,-3.2838,-3.3226,-3.425,-3.4649,-3.4666,-3.4934,-3.5397,-3.5597,-3.4076,-3.4297,-3.4881,-3.3144,0.0,0.0,0.0,0.0,0.0,0.0,0.0,0.0,0.0,0.0,0.0,0.0,0.0,0.0,0.0,0.0,0.0,0.0,0.0,0.0,-2.2667,-2.3229,-2.3828,-2.4282,-2.4624,-2.4958,-2.5326,-2.5566,-2.5763,-2.5867,-2.5857,-2.6277,-2.7415,-2.7638,-2.7715,-2.7715,-2.8391,-2.8289,-2.721,-2.7527,-2.7669,-2.7508,-2.7579,-2.7611,-2.7526,-2.7444,0.0,-2.6361,-2.6205,-2.592,-2.5558,-2.6136,-2.6983,-2.7986,-2.858,-2.9424,-3.0388,-3.048,-3.0457,-3.0354,-3.025,-3.0143,-3.012,0.0,0.0,0.0,0.0,0.0,0.0,0.0,0.0,0.0,0.0,-3.465,-3.4418,-3.4097,-3.3434,-3.273,-3.2046,-3.0914,0.0,0.0,-2.8926,-2.8277,-2.666,-2.6823,-2.6121,-2.4397,-2.4381,-2.4192,-2.38,-2.3641,-2.3827,-2.4394,-2.4554,-2.5149,-2.6081,-2.6782,-2.7595,-2.8512,-2.9445,-3.0312,-3.1132,-3.2071,-3.2507,-3.2762,-3.4124,-3.4866,-3.5274,-3.5782,-3.6145,-3.62,-3.4803,-3.4764,-3.4978,-3.3414,-3.3121,-3.3251,0.0,0.0,0.0,0.0,0.0,0.0,0.0,0.0,0.0,0.0,0.0,0.0,0.0,0.0,-2.5087,-2.4116,0.0,-2.2988,-2.2884,-2.3306,-2.3742,-2.3922,-2.4453,-2.4889,-2.5078,-2.5258,-2.5446,-2.5634,-2.5652,-2.6122,-2.7253,-2.7338,-2.7415,-2.7595,-2.7809,-2.7578,-2.6807,-2.6773,-2.6804,-2.6876,-2.6876,-2.6858,-2.6875,-2.6719,-2.6407,-2.5993,-2.5607,-2.5553,-2.5882,-2.6478,-2.73,-2.8296,-2.9101,-2.9749,-3.0216,-3.0216,-3.0216,-3.0216,-3.0216,-3.019,-3.0239,0.0,0.0,0.0,0.0,0.0,0.0,0.0,0.0,0.0,0.0,0.0,-3.4511,-3.4002,-3.3124,-3.2256,0.0,0.0,0.0,0.0,-3.0219,-2.954,-2.8168,-2.8053,-2.7073,-2.5007,-2.5328,-2.5216,-2.4536,-2.4139,-2.4461,-2.5412,-2.4955,-2.5572,-2.7122,-2.7449,-2.82,-2.9234,-2.9728,-3.0204,-3.0729,-3.1695,-3.2195,-3.2466,-3.363,-3.4624,-3.5504,-3.6429,-3.6775,-3.6645,-3.563,-3.5312,-3.5078,-3.3775,-3.3468,-3.3495,-3.283,-3.3093,0.0,0.0,0.0,0.0,0.0,0.0,0.0,0.0,-2.6891,-2.6133,-2.6617,-2.5955,-2.5099,-2.446,-2.3572,-2.2924,-2.3006,-2.3331,-2.358,-2.3554,-2.4162,-2.4607,-2.4607,-2.4992,-2.5266,-2.5266,-2.554,-2.6062,-2.6902,-2.6961,-2.709,-2.7372,-2.7193,-2.6824,-2.6285,-2.6054,-2.5915,-2.6013,-2.622,-2.6258,-2.618,-2.5968,-2.5819,-2.5644,-2.5001,-2.5142,-2.5934,-2.6828,-2.7898,-2.9048,-2.9886,-3.0216,-3.0216,-3.0216,-3.0216,-3.0216,-3.0216,-3.0294,-3.0347,0.0,0.0,0.0,0.0,0.0,0.0,0.0,0.0,0.0,0.0,0.0,0.0,0.0,0.0,0.0,0.0,0.0,0.0,-3.0568,-3.0387,-2.9735,-2.8497,-2.8254,-2.7471,-2.5989,-2.5784,-2.5578,-2.5383,-2.5007,-2.5092,-2.5591,-2.6051,-2.657,-2.7148,-2.8231,-2.9035,-2.9585,-3.0166,-3.0699,-3.1131,-3.1255,-3.1791,-3.2479,-3.2537,-3.341,-3.4769,-3.5882,-3.649,-3.6648,-3.5566,-3.5597,-3.5727,-3.3837,-3.3743,-3.4106,-3.2819,0.0,-3.2407,-3.0441,-2.8881,-2.8119,-2.9336,-2.8525,-2.7813,0.0,-2.8232,-2.706,-2.7211,-2.6036,-2.4907,-2.4867,-2.3656,-2.266,-2.2645,-2.2929,-2.3177,-2.3177,-2.3554,-2.3828,-2.3828,-2.4453,-2.4881,-2.4881,-2.4915,-2.5395,-2.6473,-2.6551,-2.6568,-2.661,-2.691,-2.6644,-2.5589,-2.578,-2.5551,-2.4883,-2.5834,-2.5736,-2.4678,-2.5185,-2.5111,-2.4404,-2.4312,-2.4316,-2.4554,-2.6408,-2.8272,-3.0034,-3.017,-3.0216,-3.0216,-3.0216,-3.0216,-3.0216,-3.0216,-2.9952,-2.9719,0.0,0.0,0.0,0.0,0.0,0.0,0.0,0.0,0.0,0.0,0.0,0.0,0.0,0.0,0.0,0.0,0.0,0.0,-3.0598,-3.0507,-3.0042,-2.9059,-2.8613,-2.7839,-2.6705,-2.6186,-2.588,-2.5716,-2.508,-2.5298,-2.6361,-2.6185,-2.6739,-2.7938,-2.8732,-2.9422,-3.0043,-3.0481,-3.0942,-3.1366,-3.1366,-3.1589,-3.1969,-3.2338,-3.3114,-3.4092,-3.5006,-3.538,0.0,0.0,-3.4759,-3.4739,-3.3661,-3.3565,-3.3737,-3.3054,-3.2925,0.0,-3.0443,-2.972,-2.9457,-2.9021,-2.9135,-2.9427,-2.964,-2.8419,-2.7388,-2.8039,-2.6446,-2.4894,-2.4894,-2.3619,-2.2594,-2.2594,-2.2869,-2.304,-2.2818,-2.3297,-2.3597,-2.3383,-2.3498,-2.396,-2.471,-2.4328,-2.4845,-2.6688,-2.6422,-2.6448,-2.7098,-2.6473,-2.5968,-2.5703,-2.515,-2.4717,-2.434,-2.4703,-2.4639,-2.4058,-2.4482,-2.4532,-2.4202,-2.4202,-2.4538,-2.5167,-2.72,-2.8574,-2.9371,-2.9977,-3.0216,-3.0181,-2.9906,-2.9975,-3.0216,-3.0216,-3.0089,-2.9906,0.0,0.0,0.0,0.0,0.0,0.0,0.0,0.0,0.0,0.0,0.0,0.0,0.0,0.0,0.0,0.0,0.0,0.0,0.0,-3.0836,-3.0485,-2.9595,-2.9217,0.0,-2.7227,-2.6744,-2.6335,-2.6002,-2.5537,-2.5919,-2.7119,-2.6722,-2.7297,-2.8693,-2.9166,-2.9711,-3.0314,-3.0703,-3.1098,-3.1498,-3.1498,-3.1517,-3.1604,-3.2222,-3.2692,-3.3138,-3.4112,-3.4465,0.0,0.0,-3.4055,-3.3682,-3.359,-3.3498,-3.331,-3.2796,-3.2333,-3.1618,-2.9965,-2.9787,-2.9733,-2.8484,-2.9139,-2.992,-2.9472,-2.834,-2.764,-2.8432,-2.6628,-2.4894,-2.4894,-2.3619,-2.2594,-2.2594,-2.2775,-2.286,-2.2637,-2.3066,-2.3297,-2.3134,-2.2443,-2.2561,-2.4017,-2.3796,-2.4319,-2.6081,-2.6007,-2.6242,-2.6944,-2.596,-2.5446,-2.5568,-2.4663,-2.4104,-2.3991,-2.4026,-2.3945,-2.3705,-2.4172,-2.4312,-2.4202,-2.4202,-2.4922,-2.6205,-2.7626,-2.862,-2.9176,-2.975,-3.0021,-2.9975,-2.947,-2.9584,-2.9998,-2.9848,-2.9894,-2.9963,0.0,0.0,0.0,0.0,0.0,0.0,0.0,0.0,0.0,0.0,0.0,0.0,0.0,0.0,0.0,0.0,0.0,0.0,0.0,-3.1466,-3.1123,-2.9928,-3.0253,-2.9504,-2.7533,-2.7462,-2.7064,-2.6286,-2.6771,-2.7261,-2.768,-2.8183,-2.8654,-2.9098,-2.9566,-2.9968,-3.033,-3.0797,-3.119,-3.1498,-3.1498,-3.1538,-3.1627,-3.1982,-3.1904,-3.1754,-3.3276,0.0,0.0,0.0,-3.3894,-3.3064,-3.3767,-3.3704,0.0,-3.1673,-3.0147,-2.8908,-2.8862,-2.8237,-2.7702,-2.8024,-2.8141,-2.8304,-2.8619,-2.8331,-2.7974,-2.8032,-2.634,-2.4894,-2.4894,-2.3619,-2.2594,-2.2594,-2.2603,-2.2611,-2.2594,-2.262,-2.2766,-2.3074,-2.13,-2.0709,-2.2308,-2.3338,-2.3897,-2.3988,-2.5169,-2.5788,-2.5455,-2.5395,-2.5215,-2.4864,-2.439,-2.4059,-2.3708,-2.4246,-2.41,-2.3406,-2.4363,-2.4597,-2.4202,-2.4202,-2.5294,-2.7142,-2.7237,-2.8366,-3.0136,-2.9711,-2.9515,-2.947,-2.893,-2.9045,-2.9458,-2.8941,-2.9079,-2.9515,0.0,0.0,0.0,0.0,0.0,0.0,0.0,0.0,0.0,0.0,0.0,0.0,0.0,0.0,0.0,0.0,0.0,0.0,0.0,-3.1437,-3.1101,-3.0705,-2.9879,-2.909,-2.8306,-2.7342,-2.6833,-2.6826,-2.7019,-2.7489,-2.8222,-2.8415,-2.8811,-2.938,-2.9989,-3.0414,-3.0666,-3.1257,-3.2196,-3.3134,-3.212,-3.2328,-3.3186,-3.2439,-3.2002,-3.1793,0.0,0.0,0.0,0.0,0.0,-3.2829,-3.2404,-3.2493,-3.2422,-3.0866,-2.9549,-2.8595,-2.8539,-2.8861,-2.9138,-2.8805,-2.926,-2.9707,-2.9318,-2.8589,-2.8076,-2.8405,-2.6347,-2.4487,-2.4487,-2.3242,-2.2184,-2.2184,-2.2439,-2.2688,-2.2886,-2.2399,-2.2144,-2.26,-2.1055,-2.0161,-2.0779,-2.1069,-2.1906,-2.3499,-2.4037,-2.473,-2.568,-2.5275,-2.4949,-2.4821,-2.4187,-2.3682,-2.3314,-2.346,-2.3452,-2.3406,-2.409,-2.4339,-2.4202,-2.4883,-2.5548,-2.6234,-2.73,-2.8095,-2.8756,-2.8908,-2.8964,-2.8953,-2.8769,-2.8804,-2.8941,-2.8769,-2.8402,-2.8046,0.0,0.0,0.0,0.0,0.0,0.0,0.0,0.0,0.0,0.0,0.0,0.0,0.0,0.0,0.0,0.0,0.0,0.0,0.0,0.0,-3.1781,-3.1781,-3.0824,-3.0005,-2.9422,-2.85,-2.801,-2.7973,-2.7916,-2.8328,-2.9155,-2.9061,-2.9273,-2.9776,-3.013,-3.0579,-3.1141,-3.1723,-3.2556,-3.3436,-3.2773,-3.2911,-3.3425,-3.2887,-3.2486,0.0,0.0,0.0,0.0,0.0,-3.2047,-3.2237,-3.2081,-3.1806,-3.1348,-3.0315,-2.9277,-2.8459,-2.8418,-2.8902,-2.9301,-2.8829,-2.9076,-2.9427,-2.9262,-2.8577,-2.8185,-2.8835,-2.664,-2.4612,-2.4612,-2.319,-2.1996,-2.1996,-2.2354,-2.2622,-2.2603,-2.2014,-2.1689,-2.1994,-2.0639,-1.9787,-2.0046,-1.9606,-2.0371,-2.2968,-2.3461,-2.4259,-2.5671,-2.5155,-2.4753,-2.4616,-2.3999,-2.3485,-2.3117,-2.3036,-2.3197,-2.3555,-2.4003,-2.4202,-2.4251,-2.5265,-2.5799,-2.6004,-2.7391,-2.8085,-2.8244,-2.8384,-2.854,-2.8666,-2.831,-2.839,-2.8632,-2.8103,-2.7839,-2.7748,0.0,0.0,0.0,0.0,0.0,0.0,0.0,0.0,0.0,0.0,0.0,0.0,0.0,0.0,0.0,0.0,0.0,0.0,0.0,0.0,0.0,-3.2906,-3.2783,-3.2064,-3.0724,-3.0679,-3.0322,-2.9615,-2.9439,-2.9704,-3.0362,-3.0129,-3.0125,-3.0303,-3.0125,-3.0653,-3.1707,-3.2163,-3.2439,-3.2635,-3.3433,-3.329,-3.2598,-3.3265,0.0,0.0,0.0,0.0,0.0,0.0,-3.151,-3.1319,-3.2693,-3.1688,-2.9995,-3.0023,-2.9278,-2.8433,-2.8486,-2.8388,-2.8257,-2.8243,-2.7747,-2.7483,-2.8436,-2.8332,-2.8264,-2.9216,-2.7066,-2.5085,-2.5037,-2.3356,-2.2013,-2.2047,-2.2431,-2.2467,-2.1848,-2.1514,-2.131,-2.13,-2.0065,-1.9384,-1.9979,-1.898,-1.9462,-2.2213,-2.332,-2.4289,-2.5355,-2.5052,-2.4667,-2.4219,-2.3871,-2.3485,-2.3117,-2.3036,-2.3297,-2.3805,-2.4053,-2.4202,-2.4251,-2.5265,-2.5976,-2.647,-2.7527,-2.8244,-2.8632,-2.8172,-2.823,-2.8528,-2.7621,-2.7839,-2.8494,-2.7076,-2.7433,-2.8448,0.0,0.0,0.0,0.0,0.0,0.0,0.0,0.0,0.0,0.0,0.0,0.0,0.0,0.0,0.0,0.0,0.0,0.0,0.0,0.0,0.0,0.0,0.0,0.0,0.0,0.0,0.0,0.0,0.0,-3.0538,-3.1198,-3.1579,-3.1782,-3.1849,-3.205,-3.2304,-3.258,-3.2912,-3.3664,-3.4565,0.0,-3.3818,-3.4399,0.0,0.0,0.0,0.0,0.0,0.0,0.0,-3.125,-3.0936,-3.1802,-3.1072,-2.9955,-3.0378,-2.9687,-2.8968,-2.9857,-2.9535,-2.8925,-2.8903,-2.8406,-2.7993,-2.8138,-2.8094,-2.7986,-2.7888,-2.6138,-2.4531,-2.4151,-2.2943,-2.2184,-2.274,-2.3383,-2.3527,-2.2767,-2.2162,-2.1351,-2.0271,-1.955,-1.9137,-1.9075,-1.8947,-1.9581,-2.1332,-2.2122,-2.3504,-2.5682,-2.5437,-2.5052,-2.4684,-2.4016,-2.3485,-2.3117,-2.3239,-2.3356,-2.3506,-2.4003,-2.4202,-2.4251,-2.5265,-2.5976,-2.647,-2.7527,-2.8066,-2.8149,-2.8035,-2.7839,-2.7621,-2.7736,-2.7943,-2.8069,-2.7311,-2.7036,-2.6927,0.0,0.0,0.0,0.0,0.0,0.0,0.0,0.0,0.0,0.0,0.0,0.0,0.0,0.0,0.0,0.0,0.0,0.0,0.0,0.0,0.0,0.0,0.0,0.0,0.0,0.0,0.0,0.0,0.0,0.0,0.0,-3.214,-3.2196,-3.2533,-3.264,-3.2889,-3.3216,0.0,0.0,0.0,0.0,0.0,0.0,0.0,0.0,0.0,0.0,0.0,0.0,0.0,-3.1387,-3.1623,-3.2064,-3.1473,-3.0655,-3.1009,-3.0301,-2.9544,-3.0145,-2.9615,-2.8853,-2.8758,-2.8247,-2.7737,-2.767,-2.7824,-2.7822,-2.7118,-2.5667,-2.4299,-2.3553,-2.2658,-2.2184,-2.2766,-2.3631,-2.3753,-2.2508,-2.1964,-2.111,-1.9481,-1.9056,-1.8891,-1.8861,-1.8988,-1.9641,-2.1012,-2.1805,-2.3095,-2.4927,-2.507,-2.4872,-2.4324,-2.3734,-2.3246,-2.2869,-2.3211,-2.3397,-2.3406,-2.3954,-2.4202,-2.4242,-2.5063,-2.5677,-2.615,-2.7012,-2.7487,-2.7656,-2.7656,-2.761,-2.7564,-2.7621,-2.7782,-2.7897,-2.7162,-2.6852,-2.6657,0.0,0.0,0.0,0.0,0.0,0.0,0.0,0.0,0.0,0.0,0.0,0.0,0.0,0.0,0.0,0.0,0.0,0.0,0.0,0.0,0.0,0.0,0.0,0.0,0.0,0.0,0.0,0.0,0.0,0.0,0.0,0.0,0.0,0.0,0.0,0.0,0.0,0.0,0.0,0.0,0.0,0.0,0.0,0.0,0.0,0.0,0.0,0.0,0.0,0.0,-3.1723,-3.2437,-3.2603,-3.2173,-3.158,-3.1551,-3.0889,-3.0134,-2.9932,-2.9186,-2.8471,-2.8299,-2.7708,-2.7167,-2.711,-2.7575,-2.7679,-2.6548,-2.5373,-2.4246,-2.3171,-2.2443,-2.2139,-2.2663,-2.3554,-2.3615,-2.1831,-2.1613,-2.09,-1.8932,-1.8716,-1.8813,-1.9006,-1.9024,-1.9509,-2.0654,-2.1821,-2.2894,-2.3917,-2.4587,-2.4573,-2.3752,-2.3263,-2.2877,-2.2603,-2.3147,-2.3397,-2.3406,-2.3954,-2.4202,-2.4242,-2.4862,-2.5378,-2.585,-2.656,-2.7041,-2.7293,-2.7362,-2.7598,-2.7839,-2.7362,-2.7541,-2.7862,-2.6881,-2.6795,-2.7041,0.0,0.0,0.0,0.0,0.0,0.0,0.0,0.0,0.0,0.0,-3.629,0.0,0.0,0.0,0.0,0.0,0.0,0.0,0.0,0.0,0.0,0.0,0.0,0.0,0.0,0.0,0.0,0.0,0.0,0.0,0.0,0.0,0.0,0.0,0.0,0.0,0.0,0.0,0.0,0.0,0.0,0.0,0.0,0.0,0.0,0.0,0.0,0.0,0.0,0.0,-3.1734,-3.1449,-3.1471,-3.1522,-3.1489,-3.1323,-3.0912,-3.0467,-3.0274,-2.9383,-2.8471,-2.8471,-2.7829,-2.7116,-2.6691,-2.7352,-2.7391,-2.5245,-2.4805,-2.4345,-2.272,-2.2096,-2.2189,-2.3306,-2.3896,-2.3698,-2.2186,-2.2182,-2.1427,-1.8981,-1.8879,-1.8939,-1.877,-1.8752,-1.8787,-1.8809,-2.0901,-2.2819,-2.4308,-2.5261,-2.5112,-2.3742,-2.3066,-2.2663,-2.2594,-2.3147,-2.3397,-2.3406,-2.3954,-2.4202,-2.4242,-2.5178,-2.5857,-2.6367,-2.7742,0.0,-2.7885,-2.8276,-2.8012,-2.7305,-2.7224,-2.7541,-2.7862,-2.6881,-2.6795,-2.7041,0.0,0.0,0.0,0.0,0.0,0.0,0.0,0.0,0.0,0.0,-3.5733,-3.5941,0.0,0.0,0.0,0.0,0.0,0.0,0.0,0.0,0.0,0.0,0.0,0.0,0.0,0.0,0.0,-3.1408,0.0,0.0,0.0,0.0,0.0,0.0,0.0,0.0,0.0,0.0,0.0,0.0,0.0,0.0,0.0,0.0,0.0,0.0,0.0,0.0,0.0,0.0,-3.0602,-3.048,-3.1397,-3.1514,-3.1295,-3.1097,-3.06,-3.0071,-2.9885,-2.9094,-2.8311,-2.8191,-2.7788,-2.7163,-2.6429,-2.6933,-2.696,-2.4824,-2.4409,-2.4058,-2.2617,-2.2039,-2.2004,-2.2697,-2.3451,-2.3384,-2.1786,-2.1904,-2.131,-1.8975,-1.8915,-1.9024,-1.8897,-1.8764,-1.8632,-1.8505,-2.0759,-2.2334,-2.2921,-2.4072,-2.4247,-2.3134,-2.2791,-2.2594,-2.2594,-2.2996,-2.3247,-2.3397,-2.3805,-2.4053,-2.4242,-2.5025,-2.5747,-2.645,-2.7259,-2.7754,-2.7977,-2.7943,-2.7656,-2.719,-2.719,-2.738,-2.7529,-2.7036,-2.7024,-2.7087,0.0,0.0,0.0,0.0,0.0,0.0,0.0,-3.5587,-3.5504,-3.5504,-3.5504,-3.5504,-3.5504,-3.591,-3.5793,0.0,0.0,0.0,0.0,0.0,0.0,0.0,0.0,0.0,0.0,0.0,0.0,-3.1465,-3.1161,0.0,0.0,0.0,0.0,0.0,-3.281,0.0,0.0,0.0,0.0,0.0,0.0,0.0,0.0,0.0,0.0,0.0,0.0,0.0,0.0,0.0,-2.9357,-2.9322,-3.0775,-3.1119,-3.0887,-3.0581,-3.0088,-2.9626,-2.9303,-2.87,-2.8179,-2.8002,-2.7788,-2.7295,-2.626,-2.6672,-2.6637,-2.4476,-2.4127,-2.379,-2.2448,-2.1861,-2.17,-2.1936,-2.2537,-2.2453,-2.1053,-2.119,-2.0772,-1.8894,-1.8915,-1.903,-1.8921,-1.8722,-1.8553,-1.8432,-2.0494,-2.1891,-2.2178,-2.3179,-2.3409,-2.274,-2.2637,-2.2594,-2.2594,-2.2846,-2.3147,-2.3397,-2.3565,-2.3822,-2.4233,-2.4804,-2.5585,-2.6429,-2.6754,-2.7297,-2.7954,-2.7552,-2.7282,-2.7179,-2.7075,-2.7059,-2.7059,-2.6903,-2.6789,-2.6691,0.0,0.0,0.0,0.0,0.0,0.0,0.0,-3.5846,-3.5504,-3.5504,-3.5504,-3.5504,-3.5504,-3.5569,-3.5539,0.0,0.0,0.0,0.0,0.0,0.0,0.0,0.0,0.0,0.0,0.0,0.0,-3.0717,-3.0657,0.0,0.0,0.0,0.0,0.0,0.0,-3.2725,-3.2698,0.0,0.0,0.0,0.0,0.0,0.0,0.0,0.0,0.0,0.0,0.0,0.0,0.0,0.0,-2.7771,-2.8301,-2.9269,-3.0045,-2.93,-2.9391,-2.9561,-2.8803,-2.8379,-2.8219,-2.8179,-2.803,-2.7519,-2.6298,-2.6779,-2.6644,-2.3714,-2.3857,-2.3844,-2.1865,-2.1248,-2.126,-2.1726,-2.1138,-2.0576,-2.0497,-2.0123,-1.9593,-1.8807,-1.8915,-1.8891,-1.8408,-1.8342,-1.8125,-1.763,-1.9567,-2.1826,-2.4337,-2.3994,-2.3477,-2.3074,-2.2774,-2.2594,-2.2594,-2.2846,-2.3147,-2.3397,-2.3238,-2.355,-2.4233,-2.4804,-2.5585,-2.646,-2.7441,-2.7921,0.0,-2.7931,-2.7644,-2.7144,-2.6714,-2.657,-2.6524,-2.6026,-2.5543,-2.5187,0.0,0.0,0.0,0.0,0.0,0.0,0.0,-3.5651,-3.5504,-3.5504,-3.5504,-3.5504,-3.5504,-3.5504,-3.5504,0.0,0.0,0.0,0.0,0.0,0.0,0.0,0.0,0.0,0.0,0.0,0.0,-3.1743,-3.1743,0.0,0.0,0.0,0.0,0.0,0.0,-3.2092,-3.1974,0.0,0.0,0.0,0.0,0.0,0.0,0.0,0.0,0.0,0.0,0.0,-2.7927,-2.8213,-2.7633,0.0,-2.7034,-2.736,0.0,0.0,-2.8339,-2.8507,-2.8493,-2.8431,-2.8379,-2.8379,-2.7993,-2.7451,-2.6819,-2.6846,-2.6491,-2.464,-2.4388,-2.4016,-2.2448,-2.187,-2.1559,-2.145,0.0,0.0,-1.992,-1.9319,-1.8803,-1.8533,-1.8541,-1.8583,-1.8535,-1.8384,-1.8595,-1.9283,-1.9954,-2.1347,-2.3634,-2.3502,-2.316,-2.2834,-2.268,-2.2594,-2.2594,-2.2846,-2.2982,-2.2992,-2.3077,-2.3329,-2.3816,-2.443,-2.5066,-2.5695,-2.6713,-2.715,0.0,-2.7436,-2.7231,-2.6749,-2.6582,-2.6318,-2.5991,-2.5784,-2.5371,-2.4946,0.0,0.0,0.0,0.0,0.0,0.0,-3.5814,-3.5619,-3.5504,-3.5504,-3.5504,-3.5504,-3.5504,-3.5504,-3.5504,-3.5504,0.0,0.0,0.0,0.0,0.0,0.0,0.0,0.0,0.0,0.0,0.0,-3.2481,-3.2481,-3.2481,0.0,0.0,-3.2481,-3.2498,0.0,0.0,0.0,0.0,0.0,0.0,0.0,0.0,0.0,0.0,0.0,0.0,0.0,0.0,0.0,0.0,0.0,0.0,0.0,0.0,0.0,0.0,-2.7596,-2.7798,-2.8366,-2.851,-2.851,-2.851,-2.8103,-2.7545,-2.6846,-2.665,-2.6199,-2.4621,-2.4281,-2.3904,-2.2805,-2.2354,-2.2012,0.0,0.0,-2.0023,-1.9419,-1.8476,-1.79,-1.7955,-1.8076,-1.8209,-1.8318,-1.8094,-1.8658,-2.0366,-2.0183,-2.0918,-2.297,-2.3006,-2.2826,-2.2603,-2.2594,-2.2644,-2.2695,-2.2783,-2.2789,-2.2801,-2.2763,-2.2958,-2.3354,-2.3672,-2.4144,-2.4758,-2.5706,-2.6228,0.0,-2.6986,-2.6932,-2.649,-2.6341,-2.5934,-2.544,-2.5115,-2.4705,-2.4269,0.0,0.0,0.0,0.0,0.0,0.0,0.0,-3.5878,-3.5504,-3.5504,-3.5504,-3.5504,-3.5504,-3.5504,-3.5504,-3.5504,0.0,0.0,0.0,0.0,0.0,0.0,0.0,0.0,0.0,0.0,0.0,0.0,0.0,-3.2481,-3.2481,-3.2481,-3.2481,-3.2481,0.0,0.0,0.0,0.0,0.0,0.0,0.0,0.0,0.0,0.0,0.0,0.0,0.0,0.0,0.0,0.0,0.0,0.0,0.0,0.0,0.0,0.0,-2.727,-2.7798,-2.8366,-2.851,-2.851,-2.851,-2.851,-2.7985,-2.6148,-2.6125,-2.5749,-2.2983,-2.312,-2.3445,-2.2501,-2.2462,-2.2467,-2.2078,-2.037,0.0,-1.8947,-1.7621,-1.6803,-1.7074,-1.7563,-1.7774,-1.7521,-1.7255,-1.8,-2.0066,-1.984,-2.0612,-2.2953,-2.2808,-2.2603,-2.2594,-2.2594,-2.2745,-2.2996,-2.2522,-2.2566,-2.3093,-2.2301,-2.2278,-2.2895,-2.252,-2.283,-2.3779,-2.473,-2.5378,0.0,-2.6839,-2.6932,-2.6455,-2.5922,-2.5394,-2.4809,-2.3786,-2.3144,-2.2777,0.0,0.0,0.0,0.0,0.0,0.0,0.0,-3.5619,-3.5504,-3.5504,-3.5504,-3.5504,-3.5504,-3.5504,-3.5504,-3.5504,0.0,0.0,0.0,0.0,0.0,0.0,0.0,0.0,0.0,0.0,0.0,0.0,0.0,0.0,0.0,0.0,-3.2603,-3.2222,-3.1737,-3.1543,0.0,0.0,0.0,0.0,0.0,0.0,0.0,0.0,0.0,0.0,0.0,0.0,0.0,0.0,0.0,0.0,0.0,0.0,0.0,0.0,0.0,0.0,-2.7097,-2.7067,-2.6989,-2.6703,-2.637,-2.5994,-2.5474,-2.5211,-2.4723,-2.3515,-2.353,-2.3496,-2.2834,-2.2984,-2.3117,-2.2799,-2.1856,0.0,0.0,0.0,-1.8884,-1.7285,-1.7551,-1.7768,-1.7509,-1.7812,-1.8519,-1.9725,-2.0241,-2.1155,-2.2672,-2.2422,-2.2337,-2.2585,-2.2354,-2.2225,-2.2324,-2.2267,-2.2182,-2.2066,-2.2124,-2.2163,-2.2071,-2.1934,-2.2398,-2.3355,-2.4273,-2.5126,-2.5839,-2.6465,-2.6404,-2.5865,-2.5004,-2.4361,-2.3831,-2.3522,-2.2869,-2.234,0.0,0.0,0.0,0.0,0.0,0.0,0.0,-3.5504,-3.5504,-3.5504,-3.5504,-3.5504,-3.5504,-3.5729,-3.5878,-3.5878,0.0,0.0,0.0,0.0,0.0,0.0,0.0,0.0,0.0,0.0,0.0,0.0,0.0,0.0,0.0,0.0,0.0,0.0,-3.1753,0.0,0.0,0.0,0.0,0.0,0.0,0.0,-3.113,0.0,0.0,0.0,0.0,0.0,0.0,0.0,0.0,0.0,0.0,0.0,0.0,0.0,-2.6833,-2.6459,0.0,-2.6421,-2.6125,-2.5878,-2.5559,-2.5211,-2.4872,-2.4639,-2.4307,-2.3473,-2.3578,-2.3652,-2.322,-2.3453,-2.3672,-2.3323,-2.2609,-2.1726,-2.07,-2.0771,-2.0278,-1.8434,-1.7753,-1.7539,-1.7823,-1.8069,-1.8747,-2.0016,-2.0592,-2.1347,-2.2347,-2.2124,-2.2038,-2.2165,-2.1893,-2.187,-2.2065,-2.2016,-2.1933,-2.1868,-2.1998,-2.1925,-2.1696,-2.1696,-2.2201,-2.3139,-2.4102,-2.4893,0.0,-2.6012,-2.5773,-2.5061,-2.4235,-2.3603,-2.3098,-2.2903,-2.2433,-2.2032,0.0,0.0,0.0,0.0,0.0,0.0,0.0,0.0,0.0,0.0,-3.5504,-3.5504,-3.5504,-3.6088,-3.6492,0.0,0.0,0.0,0.0,0.0,0.0,0.0,0.0,0.0,0.0,0.0,0.0,0.0,-3.2826,-3.3084,-3.353,0.0,0.0,0.0,0.0,0.0,0.0,0.0,0.0,0.0,0.0,0.0,0.0,0.0,0.0,0.0,0.0,0.0,0.0,0.0,0.0,0.0,0.0,0.0,0.0,0.0,0.0,0.0,0.0,-2.6326,-2.565,-2.561,-2.5642,-2.5359,-2.4274,-2.4381,0.0,-2.3004,-2.3383,-2.3846,-2.3584,-2.3895,-2.4082,-2.3599,-2.2833,-2.219,-2.2089,-2.147,-2.0801,-2.0208,-1.819,-1.7241,-1.8251,-1.8279,-1.9003,-2.0755,-2.0963,-2.1275,-2.1963,-2.1944,-2.1747,-2.1379,-2.1345,-2.1575,-2.2085,-2.1751,-2.174,-2.2181,-2.187,-2.1678,-2.165,-2.1739,-2.2233,-2.3138,-2.4086,-2.4723,-2.5121,-2.5446,-2.5027,-2.4097,-2.351,-2.3041,-2.257,-2.2066,-2.1871,-2.1848,0.0,0.0,0.0,0.0,0.0,0.0,0.0,0.0,0.0,0.0,-3.5504,-3.5504,-3.5504,-3.6088,-3.6492,0.0,0.0,0.0,0.0,0.0,0.0,0.0,0.0,0.0,0.0,0.0,0.0,-3.1974,-3.2249,-3.2222,-3.1928,-3.2072,0.0,0.0,0.0,0.0,0.0,0.0,0.0,0.0,0.0,0.0,0.0,0.0,0.0,0.0,-2.8607,-2.8691,0.0,0.0,0.0,0.0,0.0,0.0,0.0,0.0,-2.5108,-2.4267,-2.4521,0.0,-2.4095,-2.3806,-2.3984,-2.4067,0.0,-2.3721,-2.4038,-2.3317,0.0,-2.3929,-2.3999,-2.4137,-2.4165,-2.4073,-2.3831,-2.332,-2.224,-2.0541,-1.9856,-2.1191,-1.9584,-1.826,-1.8089,-1.9594,-2.0624,-2.0858,-2.1411,-2.1875,-2.2233,-2.1543,-2.1191,-2.1275,-2.098,-2.0971,-2.119,-2.1031,-2.1057,-2.132,-2.1428,-2.1398,-2.1255,-2.1896,-2.2516,-2.3145,-2.3992,-2.4572,-2.4929,-2.4677,-2.4189,-2.3499,-2.2605,-2.2181,-2.2055,-2.194,-2.1675,-2.1477,0.0,0.0,0.0,0.0,0.0,0.0,0.0,0.0,0.0,0.0,0.0,0.0,0.0,0.0,0.0,0.0,0.0,0.0,0.0,0.0,0.0,0.0,0.0,0.0,0.0,0.0,0.0,0.0,0.0,-3.2034,0.0,0.0,0.0,0.0,0.0,0.0,0.0,0.0,0.0,0.0,-2.9169,0.0,0.0,0.0,0.0,0.0,-2.8607,-2.8691,0.0,-2.8607,-2.851,-2.8462,0.0,0.0,0.0,0.0,-2.5076,-2.422,-2.3642,-2.3458,-2.3348,-2.3163,-2.3467,-2.3637,-2.3066,0.0,0.0,0.0,0.0,0.0,-2.4214,-2.4202,-2.4202,-2.4202,-2.4202,-2.4072,-2.3655,-2.1436,-2.0522,-2.2442,-2.0245,-1.8937,-1.9817,-2.0721,-2.1423,-2.1687,-2.1991,-2.2077,-2.1961,-2.1371,-2.0943,-2.0724,-2.0416,-2.0404,-2.0793,-2.0849,-2.0961,-2.1195,-2.1347,-2.1308,-2.1151,-2.1959,-2.2494,-2.2811,-2.3642,-2.406,-2.4164,-2.3707,-2.3201,-2.2639,-2.1893,-2.1583,-2.1583,-2.1583,-2.1431,-2.127,0.0,0.0,0.0,0.0,0.0,0.0,0.0,0.0,0.0,0.0,0.0,0.0,0.0,0.0,0.0,0.0,0.0,0.0,0.0,0.0,0.0,0.0,0.0,0.0,0.0,0.0,0.0,0.0,0.0,0.0,0.0,0.0,0.0,0.0,0.0,0.0,0.0,0.0,0.0,0.0,-2.9298,0.0,0.0,0.0,0.0,0.0,0.0,0.0,0.0,-2.8534,-2.851,-2.8498,-2.8414,0.0,0.0,0.0,0.0,0.0,-2.3398,-2.314,-2.3198,-2.3198,-2.3613,-2.3867,-2.3393,0.0,0.0,0.0,0.0,0.0,0.0,-2.4202,0.0,0.0,-2.4202,-2.4486,-2.5304,-2.2984,-2.1801,-2.3365,-2.0841,-1.9782,-2.1819,-2.1714,-2.1837,-2.2642,-2.2412,-2.2035,-2.1593,-2.1274,-2.0778,-2.007,-1.9825,-2.0007,-2.0612,-2.0783,-2.098,-2.1167,-2.1338,-2.1245,-2.0924,-2.182,-2.2186,-2.2214,-2.2987,0.0,-2.3144,-2.2742,-2.2271,-2.1766,-2.1362,-2.119,-2.119,-2.119,-2.119,-2.119,0.0,0.0,0.0,0.0,0.0,0.0,0.0,0.0,0.0,0.0,0.0,0.0,0.0,0.0,0.0,0.0,0.0,0.0,0.0,0.0,0.0,0.0,0.0,0.0,0.0,0.0,0.0,0.0,0.0,0.0,-3.2431,-3.2084,-3.1574,0.0,0.0,0.0,-3.0157,-3.0085,-3.0055,-3.0079,-2.9465,0.0,0.0,0.0,0.0,0.0,0.0,0.0,0.0,-2.8655,-2.851,-2.8426,-2.7981,0.0,0.0,0.0,0.0,0.0,-2.3061,-2.3408,-2.3691,-2.3691,-2.4287,-2.4756,-2.4316,0.0,0.0,0.0,0.0,0.0,0.0,-2.4291,-2.4202,0.0,-2.4202,-2.4486,-2.5304,-2.3564,-2.2408,-2.2805,-2.2082,-2.1579,-2.1766,-2.2211,-2.2521,-2.2673,-2.2102,-2.1582,-2.1356,-2.0829,-2.0316,-1.9874,-1.9822,-1.9921,-2.0175,-2.0219,-2.0184,-2.0048,-2.0979,-2.0955,-2.0108,-2.0931,-2.1253,-2.1242,0.0,-2.1987,-2.2112,-2.2043,-2.1743,-2.1305,-2.1224,-2.119,-2.119,-2.119,-2.119,-2.119,0.0,0.0,0.0,0.0,0.0,0.0,0.0,0.0,0.0,0.0,0.0,0.0,0.0,0.0,0.0,0.0,0.0,0.0,0.0,0.0,0.0,0.0,0.0,0.0,0.0,0.0,0.0,0.0,0.0,-3.2475,-3.24,-3.2025,-3.1672,-3.1344,0.0,0.0,-3.097,-3.0681,-3.0718,-3.091,0.0,0.0,0.0,0.0,0.0,0.0,0.0,0.0,0.0,0.0,-2.851,-2.8383,-2.7655,0.0,0.0,0.0,0.0,0.0,-2.3173,-2.3578,-2.4121,-2.4121,-2.46,-2.4998,-2.4521,0.0,0.0,0.0,0.0,0.0,0.0,0.0,-2.4615,-2.4826,-2.4689,-2.4629,-2.5005,-2.3439,-2.2569,-2.3408,-2.2482,-2.2011,-2.2606,-2.2615,-2.2554,-2.2472,-2.1831,-2.1383,-2.12,-2.0627,-2.0103,-1.971,-1.9567,-1.9327,-1.9006,-1.9342,-1.9698,-2.0032,-2.0312,-1.9996,-1.9313,-2.0488,-2.0761,-2.0292,0.0,-2.1675,-2.1514,-2.1514,-2.1376,-2.119,-2.119,-2.119,-2.119,-2.119,-2.119,-2.1221,0.0,0.0,0.0,0.0,0.0,0.0,0.0,0.0,0.0,0.0,0.0,0.0,0.0,0.0,0.0,0.0,0.0,0.0,0.0,0.0,0.0,0.0,0.0,0.0,0.0,0.0,0.0,-3.2247,-3.2352,-3.2344,-3.2213,-3.1893,-3.1705,0.0,0.0,0.0,-3.1681,-3.1271,-3.1332,-3.1633,0.0,0.0,0.0,0.0,0.0,0.0,0.0,0.0,0.0,0.0,0.0,0.0,0.0,0.0,0.0,-2.5242,-2.4643,-2.4297,-2.3614,-2.3949,-2.459,-2.4697,-2.4893,-2.5086,-2.4902,-2.5274,0.0,0.0,0.0,0.0,0.0,-2.4609,-2.4766,-2.517,-2.4895,-2.4666,-2.4766,-2.3536,-2.2926,-2.3916,-2.2823,-2.231,-2.3265,-2.2806,-2.2351,-2.2172,-2.159,-2.1145,-2.0817,-2.0389,-1.9909,-1.9453,-1.9191,-1.8776,-1.8309,-1.8551,-1.8989,-1.9633,-1.9566,-1.9161,-1.8468,-1.993,-2.017,-1.9517,-2.0897,-2.1352,-2.119,-2.119,-2.119,-2.119,-2.119,-2.119,-2.119,-2.119,-2.119,-2.1221,0.0,0.0,0.0,0.0,0.0,0.0,0.0,0.0,0.0,0.0,0.0,0.0,0.0,0.0,0.0,0.0,0.0,0.0,0.0,0.0,0.0,0.0,0.0,0.0,0.0,-3.3036,-3.2803,-3.237,-3.2419,-3.2169,-3.1749,-3.1705,-3.1705,-3.1705,0.0,0.0,-3.1705,-3.1669,-3.1669,-3.1657,-3.1091,0.0,0.0,0.0,0.0,0.0,0.0,0.0,0.0,0.0,0.0,0.0,0.0,0.0,-2.6451,-2.5877,-2.5078,-2.4372,-2.4326,-2.4668,-2.5117,-2.5489,-2.5352,0.0,-2.6064,-2.5986,0.0,-2.6221,0.0,0.0,0.0,-2.4517,-2.4385,-2.4757,-2.4523,-2.4385,-2.473,-2.4368,-2.3907,-2.3581,-2.3459,-2.3256,-2.2986,-2.2565,-2.2163,-2.1769,-2.1348,-2.0772,-2.0021,-1.9948,-1.9666,-1.9056,-1.8647,-1.8611,-1.8917,-1.8062,-1.7741,-1.7983,-1.8882,-1.8724,-1.7632,-1.8805,-1.9218,-1.9085,-1.9889,-2.0593,-2.119,-2.119,-2.119,-2.119,-2.119,-2.119,-2.119,-2.119,-2.119,-2.1221,0.0,0.0,0.0,0.0,0.0,0.0,0.0,0.0,0.0,0.0,0.0,0.0,0.0,0.0,0.0,0.0,0.0,0.0,0.0,0.0,0.0,0.0,0.0,-3.3124,-3.3124,-3.3124,-3.2952,-3.2593,-3.2288,-3.1981,-3.1705,-3.1705,0.0,0.0,0.0,0.0,-3.1705,-3.1705,-3.1705,-3.1693,-3.1488,-3.1404,0.0,0.0,0.0,0.0,0.0,0.0,0.0,0.0,-2.9953,-2.9702,0.0,0.0,-2.6868,-2.6072,-2.5172,-2.4414,-2.4414,-2.4736,-2.5155,-2.5283,-2.5195,0.0,0.0,-2.6064,-2.6113,-2.6006,-2.5993,0.0,0.0,0.0,-2.4849,-2.513,-2.4863,-2.456,-2.4459,-2.4033,-2.3629,-2.3178,-2.2895,-2.2584,-2.219,-2.1769,-2.1401,-2.0964,-2.0561,-2.0204,-1.9902,-1.9646,-1.9427,-1.9192,-1.8809,-1.8554,-1.8424,-1.7693,-1.7341,-1.7442,-1.7702,-1.7505,-1.6979,-1.7865,-1.8478,-1.8934,-1.9737,-2.0528,-2.119,-2.119,-2.119,-2.119,-2.119,-2.119,-2.119,-2.119,-2.119,-2.1221,0.0,0.0,0.0,0.0,0.0,0.0,0.0,0.0,0.0,0.0,0.0,0.0,0.0,0.0,0.0,0.0,0.0,0.0,0.0,0.0,0.0,0.0,0.0,-3.3081,-3.2982,-3.2982,-3.2853,-3.2593,-3.2157,-3.1849,-3.1705,0.0,0.0,0.0,0.0,0.0,0.0,0.0,-3.1705,-3.1705,-3.1705,-3.1705,0.0,0.0,0.0,0.0,0.0,0.0,0.0,0.0,0.0,0.0,0.0,0.0,0.0,0.0,-2.5595,-2.4805,-2.4668,-2.4941,-2.5283,-2.5283,0.0,0.0,-2.5615,-2.5967,-2.6143,-2.5977,-2.5561,-2.5258,-2.5199,0.0,0.0,-2.4868,-2.4615,-2.4244,-2.3831,-2.3529,-2.316,-2.2757,-2.2346,-2.1934,-2.1531,-2.1163,-2.0759,-2.0323,-2.0049,-1.9829,-1.9742,-1.9338,-1.9118,-1.9118,-1.8605,-1.8201,-1.7889,-1.7234,-1.6965,-1.7107,-1.6777,-1.6652,-1.6722,-1.7518,-1.8232,-1.8867,-1.9726,-2.0528,-2.119,-2.119,-2.119,-2.119,-2.119,-2.119,-2.119,-2.119,-2.119,-2.1221,0.0,0.0,0.0,0.0,0.0,0.0,0.0,0.0,0.0,0.0,0.0,0.0,0.0,0.0,0.0,0.0,0.0,0.0,0.0,0.0,0.0,0.0,0.0,-3.2982,-3.2711,-3.2667,-3.2593,-3.24,-3.1937,-3.1705,-3.1705,-3.1705,0.0,0.0,0.0,0.0,0.0,0.0,0.0,-3.1661,-3.1661,-3.1661,-3.1661,0.0,0.0,0.0,0.0,0.0,0.0,0.0,-3.1312,0.0,0.0,0.0,0.0,0.0,-2.6563,-2.5596,-2.5195,-2.54,-2.5693,0.0,0.0,0.0,-2.5693,-2.5693,-2.582,-2.6299,-2.4977,-2.4026,-2.5079,-2.3967,0.0,-2.3795,-2.3682,-2.3352,-2.2959,-2.2895,-2.2739,-2.2364,-2.1925,-2.1513,-2.1135,-2.0741,-2.0347,-1.9912,-1.9875,-1.9692,-1.932,-1.8916,-1.8705,-1.8705,-1.7917,-1.7495,-1.7495,-1.6714,-1.6482,-1.6917,-1.6351,-1.6368,-1.6946,-1.7861,-1.8463,-1.8867,-1.9704,-2.0495,-2.119,-2.119,-2.119,-2.119,-2.119,-2.119,-2.119,-2.119,-2.119,-2.1221,0.0,0.0,0.0,0.0,0.0,0.0,0.0,0.0,0.0,0.0,0.0,0.0,0.0,0.0,0.0,0.0,0.0,0.0,0.0,0.0,0.0,0.0,0.0,0.0,0.0,0.0,-3.1637,-3.2125,-3.1849,-3.1705,0.0,0.0,0.0,-3.0678,0.0,0.0,0.0,0.0,0.0,0.0,-2.9886,-2.9612,0.0,0.0,0.0,0.0,0.0,0.0,0.0,0.0,0.0,0.0,0.0,0.0,0.0,-2.7237,-2.6493,-2.5664,-2.5528,-2.5586,0.0,-2.5693,0.0,0.0,0.0,-2.5977,0.0,0.0,-2.5488,-2.4727,-2.4852,-2.4202,0.0,-2.3768,-2.3513,-2.3223,-2.2806,-2.2364,-2.1897,-2.152,-2.1117,-2.0723,-2.0278,-2.0131,-1.9893,-1.9522,-1.9237,-1.9017,-1.8889,-1.8513,-1.8264,-1.8264,-1.777,-1.7495,-1.7495,-1.6846,-1.6721,-1.7116,-1.6821,-1.6661,-1.6713,-1.6985,-1.7734,-1.8834,-1.9166,-2.0031,-2.119,-2.119,-2.119,-2.119,-2.119,-2.119,-2.119,-2.119,-2.14,-2.1702,0.0,0.0,0.0,0.0,0.0,0.0,0.0,0.0,0.0,0.0,0.0,0.0,0.0,0.0,0.0,0.0,0.0,0.0,0.0,0.0,0.0,0.0,0.0,0.0,0.0,-3.1448,-3.1104,0.0,0.0,0.0,0.0,0.0,0.0,-2.9658,0.0,-3.0543,0.0,0.0,0.0,0.0,0.0,-2.8958,0.0,0.0,0.0,0.0,0.0,0.0,0.0,0.0,0.0,0.0,0.0,0.0,0.0,-2.7793,-2.6781,-2.5693,-2.5693,-2.5693,0.0,-2.5693,-2.5693,-2.5693,-2.5693,0.0,0.0,0.0,-2.5141,-2.4479,-2.4571,-2.389,0.0,-2.3566,-2.3221,-2.2775,-2.2309,-2.1722,-2.124,-2.0897,-2.0521,-2.0149,-1.9912,-1.96,-1.9298,-1.9091,-1.8705,-1.8476,-1.8476,-1.8091,-1.7917,-1.8081,-1.7559,-1.7339,-1.7495,-1.6753,-1.6611,-1.7089,-1.6705,-1.6588,-1.6726,-1.681,-1.7549,-1.8834,-1.9562,-2.0366,-2.119,-2.119,-2.119,-2.119,-2.119,-2.1075,-2.0891,-2.0891,-2.1066,-2.131,0.0,0.0,0.0,0.0,0.0,0.0,0.0,0.0,0.0,0.0,0.0,0.0,0.0,0.0,0.0,0.0,0.0,0.0,0.0,0.0,0.0,0.0,0.0,0.0,0.0,0.0,0.0,0.0,0.0,0.0,0.0,0.0,-2.9521,-2.8634,0.0,-2.9612,0.0,0.0,0.0,0.0,0.0,0.0,0.0,0.0,0.0,0.0,0.0,0.0,0.0,0.0,0.0,0.0,0.0,0.0,-2.868,-2.868,-2.74,-2.5965,-2.5868,-2.583,0.0,-2.5732,-2.5693,0.0,-2.5693,-2.5693,-2.5605,-2.5166,0.0,-2.3756,-2.4249,-2.3327,-2.2657,-2.3226,-2.2809,-2.2189,-2.1592,-2.1043,-2.0666,-2.0508,-2.0118,-1.982,-1.9783,-1.9146,-1.8696,-1.866,-1.8255,-1.8045,-1.8091,-1.7724,-1.7669,-1.8017,-1.7348,-1.7101,-1.7385,-1.649,-1.629,-1.6789,-1.6245,-1.6263,-1.6807,-1.7141,-1.7853,-1.9,-2.0483,-2.1132,-2.1132,-2.1132,-2.1098,-2.1063,-2.1109,-2.0791,-2.0343,-2.0343,-2.0373,-2.0396,0.0,0.0,0.0,0.0,0.0,0.0,0.0,0.0,0.0,0.0,0.0,0.0,0.0,0.0,0.0,0.0,0.0,0.0,0.0,0.0,0.0,0.0,0.0,0.0,0.0,0.0,0.0,0.0,0.0,0.0,0.0,0.0,0.0,-2.7605,0.0,-2.9189,0.0,0.0,0.0,0.0,0.0,0.0,0.0,0.0,0.0,0.0,0.0,0.0,0.0,0.0,0.0,0.0,-2.9601,-2.905,-2.868,-2.868,-2.8402,-2.7898,-2.7105,-2.6877,0.0,0.0,-2.5693,-2.5693,-2.5693,-2.5693,-2.5605,-2.5166,-2.4598,-2.4146,-2.3949,-2.3364,-2.2865,-2.2722,-2.2457,-2.2083,-2.1558,-2.084,-2.0331,-2.0249,-1.9767,-1.9311,-1.9008,-1.8815,-1.8586,-1.8237,-1.7862,-1.777,-1.8072,-1.7724,-1.7541,-1.7623,-1.7458,-1.711,-1.6578,-1.6327,-1.6127,-1.5945,-1.583,-1.583,-1.6006,-1.7258,-1.8556,-1.9846,-2.0358,-2.0572,-2.0572,-2.0572,-2.0343,-2.0044,-2.0423,-2.0274,-1.9849,-1.9849,-2.0075,-2.0469,0.0,0.0,0.0,0.0,0.0,0.0,0.0,0.0,0.0,0.0,0.0,0.0,0.0,0.0,0.0,0.0,0.0,0.0,0.0,0.0,0.0,0.0,0.0,0.0,0.0,0.0,0.0,0.0,0.0,0.0,0.0,0.0,0.0,-2.7284,0.0,-2.8355,0.0,0.0,0.0,0.0,0.0,0.0,0.0,0.0,0.0,-2.6552,-2.7568,0.0,0.0,0.0,0.0,0.0,0.0,0.0,-2.9418,-2.9418,-2.9096,-2.8588,-2.8075,0.0,0.0,-2.6648,0.0,-2.5693,-2.5693,-2.5693,-2.5499,-2.4893,-2.458,-2.4228,-2.3594,-2.3247,-2.2955,-2.2578,-2.2259,-2.1852,-2.1284,-2.0659,-2.0078,-1.9673,-1.9342,-1.8977,-1.8467,-1.8247,-1.8128,-1.8091,-1.7734,-1.7587,-1.7807,-1.7614,-1.7495,-1.7495,-1.7128,-1.6826,-1.6606,-1.6019,-1.5725,-1.5689,-1.5496,-1.5696,-1.6243,-1.7071,-1.7973,-1.8956,-1.9393,-1.9761,-2.0067,-2.0067,-1.9918,-1.9711,-1.9964,-1.9757,-1.931,-1.931,-1.9661,-2.0225,0.0,0.0,0.0,0.0,0.0,0.0,0.0,0.0,0.0,0.0,0.0,0.0,0.0,0.0,0.0,0.0,0.0,0.0,0.0,0.0,0.0,0.0,0.0,0.0,0.0,0.0,0.0,0.0,0.0,0.0,0.0,0.0,0.0,-2.701,0.0,0.0,0.0,0.0,0.0,0.0,0.0,0.0,0.0,0.0,0.0,-2.7057,-2.7887,-2.8866,-2.9749,-2.9749,0.0,0.0,0.0,0.0,-3.0498,-3.0453,-2.9886,-2.9189,-2.9004,0.0,-2.8495,-2.7652,-2.6686,0.0,-2.5965,-2.583,-2.544,-2.46,-2.4414,-2.4105,-2.3247,-2.3091,-2.2935,-2.248,-2.2119,-2.1639,-2.0825,-2.0409,-1.9879,-1.9108,-1.8976,-1.8704,-1.8165,-1.7779,-1.7678,-1.8027,-1.7697,-1.7523,-1.7596,-1.7605,-1.7568,-1.7495,-1.6798,-1.6514,-1.6697,-1.5634,-1.523,-1.5478,-1.5157,-1.5486,-1.6401,-1.6401,-1.6937,-1.7893,-1.8386,-1.8944,-1.9551,-1.9551,-1.9505,-1.9436,-1.9516,-1.9229,-1.8759,-1.8759,-1.9183,-1.9799,0.0,0.0,0.0,0.0,0.0,0.0,0.0,0.0,0.0,0.0,0.0,0.0,0.0,0.0,0.0,0.0,0.0,0.0,-3.3086,0.0,0.0,-3.1193,-3.2016,0.0,0.0,0.0,0.0,0.0,0.0,0.0,0.0,0.0,0.0,-2.5965,0.0,0.0,0.0,0.0,0.0,0.0,0.0,0.0,0.0,0.0,0.0,0.0,-2.6052,-2.6897,-2.7955,-2.7955,-2.9292,0.0,0.0,0.0,-3.1705,-3.1572,-3.1383,-3.1104,0.0,0.0,-2.868,0.0,-2.7746,-2.701,0.0,0.0,-2.544,0.0,-2.4414,-2.4105,-2.3247,-2.3091,-2.2838,-2.21,-2.1924,-2.1465,-2.0216,-1.9859,-1.9515,-1.9065,-1.8842,-1.8561,-1.8137,-1.79,-1.7792,-1.7848,-1.764,-1.7651,-1.7981,-1.7999,-1.7871,-1.7504,-1.7064,-1.6514,-1.5863,-1.5349,-1.4955,-1.4671,-1.4616,-1.4646,-1.4821,-1.4821,-1.6167,-1.8561,-1.8217,-1.8431,-1.9,-1.9,-1.8736,-1.8364,-1.8827,-1.869,-1.8215,-1.8215,-1.8654,-1.9377,0.0,0.0,0.0,0.0,0.0,0.0,0.0,0.0,0.0,0.0,0.0,0.0,0.0,0.0,0.0,-3.1414,-3.143,-3.1448,-3.1444,-3.1766,-3.1483,-3.0514,-3.1337,-3.0774,0.0,0.0,0.0,0.0,0.0,0.0,0.0,-2.8147,-2.7265,0.0,0.0,0.0,0.0,0.0,0.0,0.0,0.0,0.0,0.0,0.0,0.0,0.0,-2.6169,-2.686,-2.7882,-2.8412,-2.9303,-3.0283,-3.1294,0.0,0.0,0.0,-3.2069,-3.1981,-3.1383,-3.0396,-2.9567,0.0,-2.8762,-2.7887,-2.7321,-2.6867,-2.6109,-2.4683,-2.4414,-2.4105,-2.3247,-2.3091,-2.2896,-2.2334,-2.2041,-2.1514,-2.043,-1.9992,-1.9492,-1.8735,-1.8596,-1.8316,-1.7808,-1.7873,-1.8001,-1.8126,-1.8063,-1.8036,-1.8119,-1.7899,-1.7587,-1.7183,-1.6551,-1.6056,-1.5689,-1.5084,-1.468,-1.4515,-1.4515,-1.4515,-1.4515,-1.4515,-1.5527,-1.7331,-1.714,-1.758,-1.8444,-1.8444,-1.8318,-1.8107,-1.8352,-1.8306,-1.8084,-1.8084,-1.8602,-1.9397,0.0,0.0,0.0,0.0,0.0,0.0,0.0,0.0,0.0,0.0,0.0,0.0,0.0,0.0,0.0,0.0,-3.0844,-3.0324,-2.967,-3.0249,-3.0292,-2.9642,-3.0297,-2.9989,-2.8462,0.0,0.0,0.0,0.0,0.0,-2.8935,-2.871,-2.8444,0.0,-2.7898,-2.7201,0.0,0.0,0.0,0.0,0.0,0.0,0.0,0.0,0.0,0.0,0.0,-2.7013,-2.7809,-2.8516,-2.9165,-2.9932,-3.1294,-3.1548,0.0,0.0,0.0,-3.2344,0.0,0.0,-3.0722,-3.0678,-2.9886,-2.8958,0.0,0.0,-2.7071,0.0,-2.4945,-2.4776,-2.3676,-2.3266,-2.2955,-2.2578,-2.2246,-2.166,-2.0595,-2.0117,-1.9487,-1.8447,-1.8296,-1.8174,-1.7814,-1.8011,-1.8339,-1.8676,-1.8573,-1.8406,-1.8193,-1.7797,-1.731,-1.6771,-1.6065,-1.5643,-1.5542,-1.4854,-1.4515,-1.4515,-1.4405,-1.4359,-1.435,-1.4249,-1.4783,-1.5774,-1.6151,-1.6905,-1.7881,-1.803,-1.8084,-1.8084,-1.8084,-1.8084,-1.8123,-1.8166,-1.8789,-1.9683,0.0,0.0,0.0,0.0,0.0,0.0,0.0,0.0,0.0,0.0,0.0,0.0,-3.0509,-3.1433,-3.1707,-3.0748,-3.0335,-2.9566,-2.8173,-2.8967,-2.9063,-2.8077,-2.8683,0.0,-2.767,0.0,0.0,0.0,0.0,0.0,-2.935,-2.8928,-2.8301,-2.7631,-2.7386,-2.6947,-2.6496,0.0,0.0,0.0,0.0,0.0,0.0,0.0,0.0,0.0,-2.6496,-2.6699,-2.6948,-2.6986,-2.8445,-3.0125,-2.9988,-3.1169,-3.2581,0.0,0.0,0.0,0.0,-3.2344,0.0,-3.1981,-3.1149,0.0,0.0,0.0,-2.8085,-2.6201,-2.6551,-2.6572,-2.475,-2.3691,-2.2955,-2.2578,-2.249,-2.1894,-2.0185,-1.9932,-1.9416,-1.8159,-1.8013,-1.8159,-1.8494,-1.8431,-1.8726,-1.9496,-1.903,-1.8618,-1.8406,-1.7988,-1.7341,-1.6376,-1.5918,-1.5505,-1.5129,-1.4717,-1.4515,-1.4506,-1.4112,-1.3938,-1.3929,-1.3534,-1.3723,-1.4389,-1.5706,-1.6669,-1.7285,-1.7854,-1.8084,-1.8084,-1.8084,-1.8084,-1.8111,-1.8313,-1.9148,-2.0181,0.0,0.0,0.0,0.0,0.0,0.0,0.0,0.0,0.0,0.0,0.0,0.0,0.0,-3.1302,-3.1561,-3.0658,-2.9996,-2.899,-2.7664,-2.7873,-2.7872,-2.7548,-2.7992,-2.7994,-2.7414,0.0,0.0,0.0,0.0,-3.0136,-3.1321,-3.1112,-3.0882,-3.0591,-2.8264,-2.7091,-2.6747,-2.7034,0.0,0.0,0.0,0.0,0.0,0.0,0.0,-2.7023,-2.7023,-2.7071,-2.7262,-2.7857,-2.8175,-2.8631,-3.0396,-3.1036,-3.1347,-3.2494,-3.2736,-3.2593,0.0,0.0,0.0,-3.2257,-3.1849,-3.1327,-3.0767,-3.0249,-2.9376,-2.7568,-2.7371,-2.7074,-2.5761,-2.4691,-2.3932,-2.3823,-2.2832,-2.1689,-2.0498,-1.9863,-1.9238,-1.8471,-1.8383,-1.8549,-1.9014,-1.9234,-1.9414,-1.9601,-1.9457,-1.9134,-1.8627,-1.7825,-1.6922,-1.5882,-1.5077,-1.4273,-1.3453,-1.3731,-1.3728,-1.3491,-1.3755,-1.3745,-1.3506,-1.336,-1.3422,-1.3666,-1.458,-1.5652,-1.684,-1.7055,-1.7332,-1.7645,-1.7645,-1.7645,-1.7717,-1.8213,-1.8948,-1.9747,0.0,0.0,0.0,0.0,0.0,0.0,0.0,0.0,0.0,0.0,0.0,0.0,0.0,0.0,-3.1766,-3.0343,-2.966,-2.8644,-2.7144,-2.7216,-2.7309,-2.7309,-2.7589,-2.762,-2.732,0.0,0.0,0.0,0.0,0.0,0.0,-3.1634,-3.1634,-3.1553,-2.8948,-2.7857,0.0,0.0,0.0,-2.7762,0.0,0.0,-2.7309,-2.7309,-2.7309,-2.7309,-2.7309,-2.7309,-2.7441,-2.8362,-2.8161,-2.7961,-3.0383,-3.0902,-3.0991,-3.2624,-3.2982,-3.2853,-3.2853,0.0,0.0,0.0,-3.2388,-3.2064,-3.1265,-3.0953,-3.0338,-2.85,-2.8251,-2.803,-2.6896,-2.6099,-2.5368,-2.4627,-2.3417,-2.2147,-2.0957,-2.0176,-1.9502,-1.8926,-1.8822,-1.9023,-1.9453,-1.9746,-1.9905,-1.9936,-1.982,-1.9484,-1.883,-1.8038,-1.6917,-1.5444,-1.4192,-1.3217,-1.2512,-1.3014,-1.3173,-1.2896,-1.3299,-1.336,-1.3075,-1.2974,-1.2883,-1.2936,-1.3484,-1.4716,-1.6321,-1.6528,-1.7019,-1.7634,-1.7634,-1.7686,-1.7785,-1.8282,-1.8881,-1.9553,0.0,0.0,0.0,0.0,0.0,0.0,0.0,0.0,0.0,-3.1902,0.0,0.0,0.0,0.0,0.0,-2.9767,-2.9445,-2.8601,-2.681,-2.7144,-2.7404,-2.7404,-2.7493,-2.7523,-2.7415,0.0,0.0,0.0,0.0,0.0,0.0,0.0,-3.0306,-3.026,-2.9268,-2.936,-3.0215,0.0,-2.8678,-2.8585,0.0,-2.7309,-2.7309,-2.7309,-2.7309,-2.7309,-2.7309,-2.7309,-2.7441,-2.8362,-2.8361,-2.8227,-2.9738,-3.0845,-3.1801,-3.2785,-3.3056,-3.3056,0.0,0.0,0.0,0.0,0.0,0.0,-3.1718,0.0,-3.0955,-2.9035,-2.9338,-2.9476,-2.8106,-2.7839,-2.7139,-2.4956,-2.4179,-2.3238,-2.1549,-2.0918,-2.0311,-1.9441,-1.9343,-1.9473,-1.9893,-1.9932,-2.0107,-2.0576,-2.0176,-1.9634,-1.9033,-1.8545,-1.7254,-1.5015,-1.3309,-1.2451,-1.2451,-1.273,-1.2876,-1.285,-1.2762,-1.2698,-1.2661,-1.2275,-1.2101,-1.2126,-1.2589,-1.3866,-1.5706,-1.6299,-1.7142,-1.8077,-1.8088,-1.8197,-1.8375,-1.8548,-1.904,-1.9708,0.0,0.0,0.0,0.0,0.0,0.0,-3.287,-3.3064,-3.313,0.0,0.0,0.0,-3.188,-3.1914,-3.1712,-3.1073,-3.0656,-3.0059,-2.9262,-2.9328,-2.9395,-2.9395,-2.9437,-2.9448,-2.9406,0.0,0.0,0.0,0.0,0.0,0.0,0.0,0.0,0.0,-3.2033,-3.2033,-3.212,-2.8991,0.0,-2.7668,-2.7404,-2.7309,-2.7309,-2.7309,-2.7309,-2.7309,-2.7309,-2.7309,-2.7357,-2.7584,-2.7584,-2.7817,-2.9624,-3.0845,-3.1728,-3.2269,-3.2453,-3.2365,-3.1964,0.0,0.0,0.0,0.0,0.0,-3.2,0.0,-3.0984,-3.0211,-3.0103,-2.993,-2.9113,-2.8831,-2.8343,-2.7098,-2.5646,-2.4366,-2.3419,-2.2059,-2.1028,-2.0661,-2.0098,-1.9912,-2.038,-2.0429,-2.0478,0.0,-2.0488,-2.0068,-1.9253,-1.6897,-1.4922,-1.3455,-1.2033,-1.1233,-1.1139,-1.2119,-1.2338,-1.1752,-1.2695,-1.2836,-1.2257,-1.2147,-1.2101,-1.2101,-1.224,-1.3238,-1.4794,-1.5315,-1.6115,-1.7057,-1.7566,-1.7552,-1.7373,-1.8369,-1.9105,-1.9708,0.0,0.0,0.0,0.0,0.0,0.0,-3.3537,-3.3705,-3.3718,0.0,0.0,0.0,-3.253,-3.2483,-3.2068,-3.1089,-3.0708,-3.0128,-2.9061,-2.9349,-2.9578,-2.9578,-2.9988,-3.0215,-3.0215,0.0,0.0,0.0,0.0,0.0,0.0,0.0,0.0,0.0,0.0,0.0,0.0,0.0,0.0,0.0,-2.762,-2.7309,-2.7309,-2.7309,-2.7309,-2.7309,-2.7309,-2.7309,-2.7373,-2.7939,-2.8407,-2.8877,-2.9418,-3.0537,-3.1692,-3.207,-3.239,-3.2453,-3.1888,-3.2152,-3.2516,-3.2277,0.0,0.0,-3.132,-3.0879,-3.0361,0.0,-2.9438,-2.9261,-2.8924,-2.8946,-2.8864,-2.8321,-2.7326,-2.6108,-2.4684,-2.3196,-2.2218,-2.2118,-2.1676,-2.1381,-2.1364,-2.1231,-2.1049,-2.0731,-2.0644,-2.0145,-1.9072,-1.6451,-1.4537,-1.3487,-1.2077,-1.1216,-1.1053,-1.1796,-1.1949,-1.1508,-1.2276,-1.2455,-1.2101,-1.2101,-1.2101,-1.2101,-1.2101,-1.2847,-1.4108,-1.4606,-1.5529,-1.6633,-1.7095,-1.7254,-1.7332,-1.8161,-1.8833,-1.9474,0.0,0.0,0.0,-3.4417,-3.4397,-3.4397,-3.4397,-3.4397,-3.4228,0.0,-3.3682,-3.3513,-3.3154,-3.352,-3.2911,-3.0701,-3.0531,-2.9806,-2.8081,-2.8724,-2.9176,-2.9176,-3.0034,-3.0531,-3.0531,-3.1347,0.0,0.0,0.0,0.0,0.0,0.0,0.0,0.0,0.0,0.0,0.0,0.0,0.0,-3.0089,-2.8136,-2.7321,-2.7226,-2.7226,-2.7226,-2.7237,-2.7289,-2.7278,-2.7379,-2.8544,-2.9584,-3.0233,-2.9195,-2.9977,-3.1404,-3.2033,-3.2541,-3.278,-3.2265,-3.2541,-3.2842,-3.2265,-3.2164,0.0,-3.0244,-2.988,-2.9578,0.0,-2.8247,-2.8197,-2.8197,-2.8562,-2.8875,-2.8813,-2.885,-2.806,-2.5654,-2.4412,-2.3728,-2.3635,-2.3551,-2.3231,-2.2574,-2.2226,-2.1756,-2.1128,-2.076,-1.9951,-1.856,-1.6731,-1.5256,-1.4288,-1.2807,-1.1942,-1.1737,-1.1707,-1.1752,-1.1805,-1.1746,-1.1861,-1.2101,-1.2101,-1.2101,-1.2101,-1.2101,-1.2644,-1.3535,-1.4086,-1.5156,-1.648,-1.6806,-1.7235,-1.7765,-1.8035,-1.8498,-1.9146,0.0,0.0,0.0,-3.4334,-3.4397,-3.4397,-3.4397,-3.4397,-3.4275,-3.4059,-3.3674,-3.3356,-3.3111,-3.3169,-3.3052,-3.2581,-3.2525,-3.2351,-3.1977,-3.212,-3.2251,-3.2251,-3.2438,-3.2525,-3.2525,-3.2711,-3.2797,0.0,0.0,0.0,0.0,0.0,0.0,0.0,0.0,0.0,0.0,0.0,0.0,-3.0497,-2.8622,-2.7423,-2.675,-2.675,-2.675,-2.6801,-2.7175,-2.7071,-2.6723,-2.6599,-2.7147,-2.8076,-2.9072,-2.9332,-2.966,-3.1628,-3.1976,-3.17,-3.1587,-3.1951,-3.224,-3.1687,-3.1888,0.0,-3.0721,-3.0457,-3.0269,0.0,-2.9089,-2.8725,-2.8725,-2.8813,-2.875,-2.8335,-2.8599,-2.85,-2.7396,-2.6151,-2.5142,-2.4539,-2.3891,-2.3441,-2.3305,-2.2713,-2.2247,-2.2107,-2.0984,-1.9545,-1.7792,-1.6519,-1.5118,-1.3477,-1.2646,-1.2153,-1.1942,-1.1843,-1.1852,-1.1953,-1.1883,-1.1938,-1.2101,-1.2101,-1.2101,-1.2101,-1.2101,-1.2425,-1.2998,-1.3518,-1.4476,-1.5695,-1.7062,-1.7494,-1.7429,-1.844,-1.8876,-1.9146,0.0,0.0,0.0,-3.4306,-3.4397,-3.4397,-3.4397,-3.4397,-3.4356,0.0,0.0,-3.3758,-3.3149,-3.3571,-3.3595,-3.2801,-3.3034,-3.2849,-3.2123,-3.2499,-3.2609,-3.2363,-3.2853,-3.3124,-3.3124,-3.3124,-3.3124,-3.3124,0.0,0.0,0.0,0.0,0.0,0.0,0.0,0.0,0.0,0.0,-3.1874,-3.1029,-2.9327,-2.7929,-2.6889,-2.6889,-2.6627,-2.6304,-2.6532,-2.6851,-2.7029,-2.5928,-2.7195,-2.9253,-2.8881,-2.9526,-3.0574,-3.1187,-3.1399,-3.1336,-3.1072,-3.1399,-3.1738,-3.1461,-3.1399,0.0,0.0,-2.998,-2.9616,-2.9063,-2.8499,-2.8109,-2.8109,-2.8335,-2.8423,-2.8147,-2.8561,-2.87,-2.8025,-2.7162,-2.6406,-2.6043,-2.5409,-2.4838,-2.4445,-2.3599,-2.2723,-2.1852,-2.1126,-1.9803,-1.7756,-1.6991,-1.5679,-1.3643,-1.3157,-1.2798,-1.2586,-1.2231,-1.2099,-1.2182,-1.1902,-1.1959,-1.2341,-1.2184,-1.2211,-1.2386,-1.2183,-1.2264,-1.2613,-1.3386,-1.4116,-1.4907,-1.6459,-1.7118,-1.7312,-1.8238,-1.8758,-1.9109,-3.4308,0.0,0.0,0.0,0.0,-3.428,-3.4384,-3.4397,0.0,0.0,0.0,-3.4048,-3.3248,-3.3916,-3.3886,-3.2633,-3.2953,-3.2801,-3.1632,-3.2151,-3.2374,-3.2071,-3.2729,-3.3124,-3.3124,-3.3124,-3.3124,-3.3124,0.0,0.0,0.0,0.0,0.0,0.0,0.0,0.0,0.0,0.0,0.0,-3.1438,-3.0107,-2.8682,-2.7314,-2.705,-2.6494,-2.591,-2.5996,-2.6802,-2.7561,-2.6088,-2.7812,-3.0294,-2.8733,-2.9719,-3.1394,-3.0919,-3.0997,-3.1173,-3.0846,-3.1072,-3.1361,-3.1273,-3.0997,-3.0595,0.0,0.0,0.0,-2.8549,-2.7984,-2.757,-2.7457,-2.7808,-2.8034,-2.7821,0.0,0.0,0.0,-2.7557,0.0,-2.7165,-2.6763,-2.6245,-2.5594,-2.4516,-2.3206,-2.1606,-2.1359,-2.0303,-1.8084,-1.7623,-1.6407,-1.422,-1.3812,-1.3492,-1.3273,-1.2605,-1.2358,-1.2466,-1.1978,-1.2005,-1.2452,-1.2326,-1.2374,-1.256,-1.2264,-1.22,-1.2372,-1.3399,-1.3967,-1.4336,-1.5752,-1.6693,-1.7313,-1.7951,-1.8521,-1.9057,-3.3027,-3.2869,0.0,0.0,0.0,0.0,0.0,-3.4397,0.0,0.0,0.0,-3.3474,-3.3368,-3.3311,-3.3188,-3.3039,-3.3089,-3.3258,-3.355,-3.3215,-3.3214,-3.3608,-3.3289,-3.3124,-3.3124,-3.3124,-3.3124,-3.3124,0.0,0.0,0.0,0.0,0.0,0.0,-3.2503,0.0,0.0,0.0,-3.1546,0.0,-3.0714,-2.9449,-2.7782,-2.6518,-2.601,-2.5958,-2.6312,-2.7023,-2.7714,-2.7103,-2.7195,-2.7749,-2.8826,-2.9056,-2.9217,-3.0845,-3.1022,-3.0783,-3.1198,-3.1348,-3.1286,-3.0821,-3.0997,-3.1035,-3.0018,0.0,-3.0269,-2.9716,0.0,-2.8549,-2.8109,0.0,0.0,-2.6839,-2.7519,-2.8009,-2.7457,-2.7318,-2.714,-2.665,-2.6537,-2.6452,-2.6383,-2.4957,-2.3647,-2.2622,-2.1863,-2.0621,-1.8699,-1.8119,-1.6912,-1.4863,-1.4286,-1.3848,-1.3455,-1.2674,-1.2424,-1.2667,-1.2426,-1.2197,-1.199,-1.2558,-1.2561,-1.2165,-1.2243,-1.2283,-1.2397,-1.3505,-1.4071,-1.4359,-1.5811,-1.6788,-1.7447,-1.8013,-1.8508,-1.8996,-3.326,-3.347,-3.3835,0.0,0.0,0.0,0.0,0.0,0.0,0.0,0.0,-3.4193,-3.435,-3.4168,-3.4035,-3.4035,-3.4324,-3.4474,-3.4387,-3.4161,-3.4135,-3.4361,-3.4161,-3.3884,-3.3558,-3.3558,-3.3395,-3.3124,-3.3124,0.0,0.0,0.0,0.0,0.0,-3.1989,0.0,-3.2064,0.0,-3.1386,0.0,0.0,-2.981,-2.8982,-2.7231,-2.627,-2.5862,-2.6031,-2.7005,-2.8023,-2.6768,-2.7777,-2.9414,-2.8368,-2.9011,-3.0217,-3.0428,-3.0306,-3.0181,-3.0407,-3.047,-3.0482,-3.0595,-3.0545,-3.0432,-3.0294,-3.0206,-3.0068,-2.9842,0.0,0.0,0.0,0.0,0.0,0.0,-2.7914,-2.8273,-2.8428,0.0,-2.7863,-2.7571,-2.6917,0.0,-2.5851,-2.5182,-2.416,-2.2575,-2.2172,-2.0979,-1.8646,-1.796,-1.691,-1.5303,-1.4517,-1.4021,-1.3848,-1.3108,-1.2772,-1.2856,-1.2597,-1.251,-1.2603,-1.2641,-1.2664,-1.266,-1.2476,-1.2455,-1.2618,-1.3681,-1.4165,-1.4373,-1.5578,-1.6417,-1.7039,-1.7893,-1.8522,-1.8931,-3.4018,-3.4123,-3.4228,0.0,0.0,0.0,0.0,0.0,0.0,0.0,-3.4989,-3.4906,-3.5137,-3.4906,-3.468,-3.468,-3.5044,-3.5107,-3.4751,-3.468,-3.4605,-3.45,-3.4638,-3.4399,-3.3684,-3.3822,-3.3633,-3.3124,-3.3124,0.0,0.0,0.0,0.0,0.0,0.0,-3.1386,-3.1386,0.0,-3.1173,-3.1132,-3.0425,-2.9999,-2.9612,-2.7934,-2.7069,-2.6745,-2.6569,-2.7383,-2.8343,-2.7273,-2.8537,-3.0301,-2.8409,-2.9274,-3.0796,-3.0018,-2.9792,-2.9792,-2.9792,-2.9792,-2.9892,-3.0281,-3.0093,-2.9892,-3.0294,-3.008,-2.9792,-2.9792,-2.9177,0.0,0.0,0.0,-2.7911,-2.8061,0.0,-2.8558,-2.9077,-2.8763,-2.846,-2.8371,-2.7408,-2.653,0.0,-2.5546,-2.4614,-2.3007,-2.2521,-2.1371,-1.9158,-1.8161,-1.7124,-1.593,-1.4903,-1.431,-1.4093,-1.3572,-1.3151,-1.2862,-1.279,-1.2783,-1.2784,-1.2689,-1.2748,-1.2932,-1.2677,-1.2666,-1.2958,-1.3871,-1.4328,-1.4617,-1.5621,-1.6175,-1.6499,-1.7411,-1.8265,-1.8883,-3.5129,-3.4358,-3.3783,-3.4306,0.0,0.0,0.0,0.0,0.0,-3.6005,-3.5657,-3.5372,-3.5398,-3.4996,-3.468,-3.468,-3.4738,-3.4738,-3.468,-3.468,-3.4487,-3.3947,-3.4437,-3.4211,-3.3174,-3.3621,-3.3633,-3.3124,-3.3124,0.0,0.0,0.0,0.0,0.0,-3.1637,-3.1386,-3.1361,-3.0859,-3.0645,-3.0633,-3.0593,-3.0087,-2.9227,0.0,-2.8344,-2.9107,-2.8603,0.0,0.0,-2.9417,-2.9194,0.0,0.0,0.0,0.0,-2.9804,-2.9792,-2.9792,-2.9792,-2.9792,-2.9792,-2.9817,-2.9804,-2.9792,-2.9817,-2.9804,-2.9792,-2.9792,-2.9947,-2.9656,-2.8334,-2.8769,-2.893,-2.7714,-2.8078,0.0,0.0,-2.8615,-2.8505,-2.8487,-2.7868,-2.7451,0.0,-2.6126,-2.506,-2.4451,-2.3115,-2.1854,-2.0781,-1.9049,-1.7699,-1.6881,-1.5754,-1.4804,-1.4093,-1.4086,-1.3537,-1.2533,-1.3145,-1.2947,-1.2069,-1.2684,-1.2819,-1.2524,-1.2637,-1.2958,-1.3433,-1.4037,-1.4605,-1.5177,-1.6183,-1.6271,-1.5888,-1.6451,-1.7611,-1.8823,0.0,-3.5273,-3.5312,-3.5495,-3.475,0.0,0.0,-3.594,-3.6488,-3.6671,-3.6443,-3.6328,-3.6506,-3.5925,-3.5436,-3.5219,-3.4893,-3.468,-3.468,-3.468,-3.4638,-3.4449,-3.5328,-3.529,-3.4186,-3.4655,-3.4537,-3.3621,-3.3621,0.0,0.0,0.0,0.0,0.0,0.0,-3.0532,0.0,0.0,0.0,0.0,0.0,-3.0536,-3.0976,0.0,-2.8486,-2.8743,-2.8562,-2.887,0.0,-2.904,-2.9364,-2.9769,-2.915,-2.9586,-3.0269,-2.9892,-2.9792,-2.9792,0.0,0.0,-2.9792,-2.9792,-2.9792,-2.9792,-2.9792,-2.9792,-2.9792,-2.9792,-2.9631,-2.939,-2.8923,-2.8613,-2.8564,-2.9018,-2.8957,-2.9174,0.0,-3.0251,-3.0206,-3.0206,-2.9205,-2.8266,-2.7703,-2.6447,-2.5259,-2.4138,-2.2795,-2.1543,-2.0413,-1.9002,-1.7929,-1.7235,-1.6254,-1.5444,-1.4848,-1.4346,-1.4157,-1.4268,-1.3884,-1.3785,-1.3909,-1.3524,-1.3272,-1.3156,-1.2924,-1.3104,-1.3563,-1.4095,-1.4605,-1.5165,-1.5827,-1.5948,-1.5897,-1.6755,-1.7609,-1.8442,-3.5822,-3.5861,-3.5874,-3.607,-3.5495,0.0,0.0,0.0,-3.709,-3.7299,-3.7144,-3.7045,-3.7222,-3.6683,-3.6205,-3.5831,-3.5398,-3.5062,-3.4828,-3.4861,-3.4728,-3.4526,-3.5519,-3.5527,-3.4369,-3.509,-3.4893,-3.3726,-3.4016,-3.3738,0.0,0.0,0.0,0.0,0.0,-3.0325,-3.049,-3.0234,-3.0006,0.0,0.0,-3.0532,0.0,0.0,-2.9193,-2.9462,0.0,-2.9326,-2.9702,-2.917,-2.9574,-3.0177,-2.9229,-2.9574,-3.0256,-2.9892,-2.9792,-2.9792,-2.9792,-2.9792,0.0,-2.9792,-2.9792,-2.983,-2.9908,-2.9895,-2.9934,-3.0011,-2.9859,-2.9577,-2.9108,-2.8993,-2.9133,-2.9517,-2.9659,-3.007,0.0,-3.1161,-3.122,-3.119,-3.0086,-2.8951,-2.7854,-2.7027,-2.5795,-2.4022,-2.3084,-2.1955,-2.0518,-1.9309,-1.825,-1.7442,-1.6638,-1.5903,-1.5204,-1.4875,-1.4668,-1.4646,-1.4438,-1.4343,-1.432,-1.4007,-1.3724,-1.3496,-1.3223,-1.3389,-1.3905,-1.4372,-1.4888,-1.5402,-1.5884,-1.6068,-1.616,-1.6799,-1.7453,-1.8208,0.0,-3.6149,0.0,0.0,-3.6188,0.0,0.0,0.0,-3.726,-3.7835,-3.7657,-3.7505,-3.7505,-3.7235,-3.6852,-3.6359,-3.6029,-3.5638,-3.5085,-3.506,-3.4806,-3.421,-3.4933,-3.4873,-3.379,-3.4822,-3.476,-3.3479,-3.4216,0.0,0.0,0.0,0.0,0.0,-3.0953,0.0,-3.0407,-3.0566,-3.0476,-3.0164,-2.9882,-3.0143,-3.0595,-3.0018,-3.0444,-3.121,-3.0168,-2.9792,-2.9792,-2.9792,-2.9792,-2.9792,-2.9792,-2.9792,-2.9792,-2.9792,-2.9792,-2.9792,-2.9792,-2.9792,-2.9792,-2.9793,-2.9805,0.0,0.0,-3.0088,-3.019,-3.0368,-3.0545,-3.0285,-2.9006,-2.9931,-3.051,-2.9269,-3.0221,-3.1117,-3.1117,-3.1336,-3.1438,-3.1322,-3.0555,-2.9466,-2.8109,-2.7761,-2.6629,-2.4236,-2.3879,-2.2992,0.0,-2.0031,-1.8818,-1.7476,-1.6978,-1.6272,-1.5303,-1.5657,-1.5155,-1.3812,-1.4857,-1.4698,-1.3535,-1.4228,-1.4185,-1.3603,-1.36,-1.3899,-1.4426,-1.4989,-1.5472,-1.5924,-1.6451,-1.6666,-1.671,-1.6607,-1.7199,-1.8184,-3.6946,-3.7129,-3.7273,0.0,-3.7442,-3.7351,0.0,0.0,0.0,0.0,-3.7854,-3.7703,-3.7505,-3.7058,-3.6599,-3.6334,-3.5462,-3.4881,-3.474,-3.4727,-3.4472,-3.3828,-3.486,-3.5065,-3.4379,-3.5027,-3.504,-3.4293,-3.4041,0.0,-3.2781,0.0,0.0,0.0,0.0,-3.0471,-3.0445,-3.0854,-3.1183,-3.1282,-3.0235,-3.0357,-3.1085,0.0,-3.0218,-3.0721,-3.0043,-2.9792,-2.9792,-2.9792,-2.9792,-2.9792,-2.9792,-2.9792,-2.9792,-2.9792,-2.9792,-2.9792,-2.9792,-2.9792,-2.973,-2.9441,-2.9682,-2.9973,0.0,0.0,0.0,-3.0406,-3.0186,-2.991,-2.9576,-2.9683,-2.9849,-3.0021,-3.0783,-3.1395,-3.1395,-3.1453,-3.1511,-3.1438,-3.0732,-2.9885,-2.9031,-2.7561,-2.6146,-2.4906,-2.3808,-2.2579,-2.1169,-2.1041,-2.0091,-1.812,-1.8232,-1.7849,-1.6846,-1.6698,-1.6644,-1.6638,-1.6346,-1.6252,-1.6324,-1.5529,-1.509,-1.493,-1.5117,-1.529,-1.5479,-1.6483,-1.693,-1.6991,-1.7135,-1.7718,-1.8393,-1.7878,-1.8057,-1.8659,-3.6907,0.0,0.0,-3.7861,0.0,0.0,-3.7416,-3.7691,0.0,-3.79,-3.79,0.0,-3.7703,-3.7358,-3.6897,-3.6289,-3.5535,-3.5028,-3.474,-3.4525,-3.4315,-3.4225,-3.4684,-3.4805,-3.4525,-3.5081,-3.5063,-3.4397,-3.4146,0.0,-3.2656,0.0,0.0,0.0,0.0,-3.0558,-3.066,-3.0778,-3.0879,-3.0844,-3.0108,-3.0156,0.0,-3.0018,-2.998,-3.0218,-2.9905,-2.9792,-2.9792,-2.9792,-2.9792,-2.9792,-2.9792,-2.9792,-2.9741,-2.949,-2.9415,-2.9365,-2.9126,-2.9139,-2.9139,-2.8909,-2.9363,-2.9756,-2.9378,-2.9917,-3.0429,0.0,-2.9906,-2.9772,-2.9265,-2.9536,-3.0053,-3.0781,-3.122,-3.1511,-3.1511,-3.1511,-3.1511,-3.1511,-3.1081,-3.0572,-2.9875,-2.7864,-2.6333,-2.566,-2.4576,-2.3359,0.0,-2.2124,-2.12,-1.9128,-1.9129,-1.8736,-1.7707,-1.7697,-1.7533,-1.7226,-1.7263,-1.713,-1.6864,-1.6444,-1.6064,-1.5743,-1.6171,-1.6259,-1.6157,-1.7368,-1.7678,-1.746,-1.7971,-1.8603,-1.9244,-1.9342,-1.9329,-1.9295,0.0,0.0,0.0,0.0,0.0,0.0,0.0,-3.79,0.0,-3.79,0.0,-3.79,-3.79,-3.7756,-3.7246,-3.6188,-3.5804,-3.5375,-3.4882,-3.439,-3.4338,-3.483,-3.4546,-3.4397,-3.4397,-3.4907,-3.4809,-3.4014,-3.4131,-3.3545,0.0,0.0,0.0,0.0,0.0,0.0,0.0,-3.0635,-3.0267,-2.9996,-2.9933,-2.9869,-2.9869,-2.9869,-2.9869,-2.9869,-2.983,-2.9792,-2.9792,-2.9792,-2.9792,-2.9792,-2.983,-2.978,-2.9617,-2.9114,-2.8913,-2.8749,-2.8296,-2.8292,-2.8401,-2.8361,-2.8901,-2.9353,-2.898,-2.9751,-3.0268,-2.9483,-2.9614,-2.9588,-2.8707,-2.9558,-3.0651,-3.1382,-3.1511,-3.1511,-3.1511,-3.1511,-3.1511,-3.1511,-3.1392,0.0,-3.0673,-2.8524,-2.6988,-2.6484,-2.5714,-2.4651,0.0,0.0,-2.2196,-2.0152,-1.9844,-1.9298,-1.8408,-1.8619,-1.817,-1.6998,-1.7915,-1.7716,-1.6507,-1.7152,-1.7081,-1.6496,-1.7171,-1.7191,-1.6899,-1.8147,-1.8253,-1.7763,-1.8919,-1.9478,-1.9773,-2.0771,-2.0684,-2.0027,0.0,0.0,0.0,0.0,0.0,-3.7782,-3.7887,-3.79,-3.79,-3.79,-3.79,-3.79,-3.79,-3.7011,-3.6332,-3.6123,-3.5204,-3.4617,-3.4512,-3.4421,-3.4395,-3.4499,-3.445,-3.4397,-3.4397,-3.4502,-3.428,-3.369,-3.3234,-3.2607,-3.1902,0.0,0.0,0.0,0.0,0.0,-3.1628,-3.093,0.0,-3.1164,-3.0548,-3.0292,-3.0292,-3.0113,-3.0152,-3.0254,-2.9934,-2.9792,-2.9792,-2.9792,-2.9792,-2.983,-3.0011,-2.9707,-2.9302,-2.9375,-2.9092,-2.8696,-2.8545,-2.8556,-2.8513,-2.8206,-2.8611,-2.9003,-2.8604,-2.9043,-2.9487,-2.9314,-2.8996,-2.8828,-2.9168,0.0,-3.0715,-3.1395,-3.1511,-3.1511,-3.1511,-3.1511,-3.1511,-3.1511,-3.0903,-3.0727,-3.1262,-2.9414,-2.7878,-2.7274,-2.6472,-2.5196,0.0,0.0,-2.3072,0.0,-2.0383,-2.0175,0.0,0.0,-1.9029,-1.8978,-1.8812,-1.8499,-1.8073,-1.7741,-1.7872,-1.8459,-1.8989,-1.9104,-1.895,-2.0069,-1.9946,-1.9112,-1.9876,-2.0486,-2.0975,-2.1727,-2.1495,-2.0735,0.0,0.0,0.0,0.0,0.0,0.0,0.0,-3.7639,-3.7547,-3.7861,-3.79,-3.79,-3.79,-3.7377,-3.6789,-3.6162,-3.56,-3.5038,-3.4437,-3.4397,-3.4397,-3.4397,-3.4397,-3.4397,-3.4397,-3.4397,-3.4136,-3.3587,-3.2986,-3.2555,-3.2267,0.0,0.0,0.0,0.0,-3.1106,0.0,0.0,0.0,-3.0894,-3.0547,-3.0406,-3.0406,-3.0292,-3.033,-3.0368,-3.019,-3.0113,-3.0113,-2.9972,-2.9972,-2.9922,-2.9808,-2.9604,-2.9259,-2.8782,-2.8446,-2.8177,-2.7847,-2.784,-2.7868,-2.7713,-2.8179,-2.8556,-2.8038,-2.8634,-2.921,-2.8957,-2.8905,-2.9134,-2.9847,-3.0256,0.0,-3.138,-3.1511,-3.1511,-3.1511,-3.1511,-3.1511,-3.1511,-3.0841,-3.0692,-3.1436,-2.9973,-2.8681,-2.7982,-2.7228,-2.5902,0.0,0.0,-2.3791,0.0,0.0,0.0,-2.0431,0.0,-1.9541,-1.9134,-1.892,-1.8674,-1.8472,-1.8195,-1.8494,-1.9286,-1.9895,-1.9988,-1.9728,-2.0031,-2.0074,-1.9978,-2.0585,-2.1202,-2.1738,-2.2002,-2.1621,-2.0959,0.0,-3.6998,0.0,0.0,-3.7129,-3.6972,-3.7442,-3.7116,-3.7037,-3.7639,-3.7599,-3.7521,-3.7521,-3.7416,-3.6972,-3.6018,-3.5809,-3.5365,-3.4463,-3.4397,-3.4397,-3.4397,-3.4397,-3.4397,-3.4397,-3.4397,-3.4136,-3.3587,-3.2986,-3.262,-3.2489,-3.1588,0.0,0.0,0.0,0.0,0.0,0.0,-3.0685,-3.052,-3.052,-3.052,-3.052,-3.0482,-3.0482,-3.052,-3.0444,-3.0444,-3.0432,-3.0126,-3.0012,-2.991,-2.9498,-2.9316,-2.9034,-2.8193,-2.7833,-2.7653,-2.7228,-2.7214,-2.7335,-2.7335,-2.7775,-2.8072,-2.7594,-2.8344,-2.9014,-2.8587,-2.9094,-2.9821,-3.0385,-3.0614,0.0,0.0,-3.1511,-3.1511,-3.1511,-3.1511,-3.1451,-3.1301,-3.0943,-3.0821,-3.1062,-3.0381,-2.9448,-2.8302,-2.7728,-2.6529,-2.4542,0.0,0.0,0.0,0.0,-2.1919,-2.0816,0.0,-1.9983,-1.9018,-1.8916,-1.8774,-1.8617,-1.8573,-1.9054,-1.9955,-2.043,-2.0527,-2.0294,-1.9851,-1.9978,-2.051,-2.1164,-2.1732,-2.217,-2.2046,-2.1569,-2.0973,0.0,0.0,0.0,0.0,0.0,-3.6201,-3.6266,-3.6227,-3.6397,-3.7011,-3.6606,-3.6279,-3.6279,-3.5835,-3.5495,-3.5378,-3.4868,-3.4515,-3.441,-3.4397,-3.4397,-3.4397,-3.4397,-3.4397,-3.4397,-3.4397,-3.4136,-3.3587,-3.2986,-3.2424,-3.1876,-3.1771,-3.1745,0.0,0.0,0.0,0.0,-3.0986,-3.0949,-3.0949,-3.0949,-3.0949,-3.0911,-3.0736,-3.0811,-3.0911,-3.052,-3.0533,-3.0582,-3.004,-2.9711,-2.9523,-2.9153,-2.8682,-2.8265,-2.8308,-2.7952,-2.7535,-2.7482,-2.7469,-2.7503,-2.7503,-2.7529,-2.7555,-2.7503,-2.8053,-2.8552,-2.8509,-2.9512,-3.0431,-3.0494,-3.0999,-3.1438,0.0,-3.1511,-3.1511,-3.1511,-3.1511,-3.1271,-3.0672,-3.1062,-3.0972,-2.9864,-3.072,-3.0265,-2.7788,-2.7452,-2.6746,0.0,0.0,0.0,-2.3535,-2.3547,-2.3105,-2.2132,-2.1296,-2.0477,-1.9696,-1.9272,-1.9075,-1.9042,-1.8875,-1.9584,-2.0965,-2.0835,-2.1005,-2.1309,-2.0733,-2.051,-2.0684,-2.1708,-2.2147,-2.217,-2.2046,-2.1569,-2.0915,0.0,0.0,0.0,0.0,0.0,0.0,0.0,-3.5822,-3.5704,-3.5953,-3.6057,-3.6109,-3.6109,-3.5913,-3.5652,-3.5325,-3.5077,-3.4789,-3.4424,-3.4397,-3.4397,-3.4397,-3.4397,-3.4241,-3.3927,-3.3914,-3.3626,-3.3051,-3.2463,-3.2241,-3.2333,-3.1653,-3.1326,0.0,0.0,-3.1196,-3.0986,-3.0986,-3.0986,-3.0986,-3.0986,-3.0986,-3.0986,-3.0911,-3.0911,-3.0986,-3.0823,-3.0577,-3.0238,-2.9702,-2.957,-2.9553,-2.8863,-2.8478,-2.8204,-2.7934,-2.7673,-2.749,-2.749,-2.749,-2.749,-2.749,-2.749,-2.7623,-2.8006,-2.832,-2.8725,-2.9532,-3.0434,-3.1087,-3.1087,-3.1322,-3.1511,-3.1511,0.0,-3.1511,-3.1511,-3.1152,-3.0806,-3.0537,-3.0073,-2.9729,-2.9621,-3.0058,-2.972,-2.8196,-2.8452,-2.7669,0.0,0.0,0.0,-2.446,0.0,-2.3477,-2.3127,-2.1929,-2.1043,-2.0445,-1.9551,-1.9108,-1.9098,-1.9419,-2.0344,-2.1674,-2.135,-2.1313,-2.1461,-2.0836,-2.0795,-2.1151,-2.1912,-2.237,-2.2575,-2.2156,-2.1569,-2.0901,-3.59,0.0,-3.5809,0.0,-3.56,-3.56,-3.56,-3.5273,-3.5038,-3.5038,-3.5365,-3.56,-3.56,-3.56,-3.5443,-3.5064,-3.5038,-3.4855,-3.4424,-3.4241,-3.4162,-3.4162,-3.3992,0.0,-3.3339,-3.3326,-3.3208,-3.2947,-3.2163,-3.2098,-3.2672,-3.1692,-3.1235,0.0,-3.1235,-3.1143,-3.0986,-3.0986,-3.0986,-3.0986,-3.0986,-3.0986,-3.0986,-3.0986,-3.0882,-3.0738,-3.0738,-3.0372,-2.9797,-2.9209,-2.9203,-2.924,-2.8404,-2.8137,-2.8046,-2.762,-2.749,-2.749,-2.749,-2.749,-2.749,-2.749,-2.7656,-2.7908,-2.8384,-2.8821,-2.9407,-3.0554,-3.1161,-3.1511,-3.1511,-3.1511,-3.1511,-3.1511,0.0,0.0,-3.1511,-3.0913,-3.0507,-3.0507,-2.9714,-2.9205,-2.928,-2.9624,-2.9407,-2.8322,-2.8848,0.0,0.0,0.0,0.0,0.0,0.0,0.0,-2.4046,-2.2834,-2.18,-2.0873,-1.9873,-1.9386,-1.9419,-2.0279,-2.1195,-2.2084,-2.1832,-2.1744,-2.1682,-2.1237,-2.1287,-2.1694,-2.2194,-2.2615,-2.2801,-2.2004,-2.1409,-2.0886,-3.5417,-3.5312,-3.5116,-3.4515,-3.441,-3.441,-3.441,-3.441,-3.441,-3.441,-3.441,-3.441,-3.441,-3.441,-3.441,-3.441,-3.441,-3.441,-3.4397,-3.3901,-3.36,0.0,0.0,-3.2712,-3.2698,-3.2698,-3.2986,-3.3587,-3.2372,-3.2098,-3.2685,-3.2058,-3.1797,-3.1797,-3.1797,-3.1522,-3.0986,-3.0986,-3.0986,-3.0986,-3.0986,-3.0986,-3.0986,-3.0986,-3.0634,-3.0113,-3.0113,-2.9784,-2.9231,-2.8595,-2.8399,-2.8294,-2.7686,-2.7503,-2.7503,-2.749,-2.749,-2.749,-2.749,-2.749,-2.749,-2.749,-2.8006,-2.8481,-2.8514,-2.9532,-3.0673,-3.1351,-3.1511,-3.1511,-3.1511,-3.1511,-3.1511,-3.1511,0.0,0.0,-3.1511,-3.0913,-3.0507,-3.0507,-3.0492,-2.9998,-2.8727,-2.9759,-2.9705,-2.7768,0.0,0.0,0.0,0.0,0.0,-2.5307,-2.5813,0.0,-2.4878,-2.4144,-2.2809,-2.0873,-2.0369,-2.0107,-2.0128,-2.1479,-2.207,-2.2108,-2.2228,-2.2296,-2.2282,-2.2201,-2.2182,-2.2254,-2.2706,-2.2888,-2.2765,-2.1481,-2.1003,-2.0834,-3.4724,-3.4685,-3.462,-3.4437,-3.4397,-3.4397,-3.4397,-3.4397,-3.4397,-3.4397,-3.4397,-3.4254,-3.3888,-3.4175,-3.4241,0.0,-3.3849,-3.3679,0.0,-3.3064,-3.2986,-3.2986,-3.279,-3.2515,-3.2084,-3.2071,-3.2398,-3.2986,0.0,0.0,0.0,-3.1339,-3.1261,-3.1261,-3.1261,-3.1156,-3.0986,-3.0986,-3.0986,-3.0986,-3.0986,-3.0986,-3.0947,-3.0555,-3.0529,-3.0607,-2.9836,-2.9431,-2.9231,-2.8582,-2.8124,-2.7771,-2.7555,-2.749,-2.749,-2.749,-2.749,-2.749,-2.749,-2.749,-2.7623,-2.8072,-2.8352,-2.8725,-2.9656,-3.0569,-3.1248,-3.1467,-3.1511,-3.1511,-3.1511,-3.1511,-3.1511,-3.1511,-3.1511,0.0,-3.1511,-3.0582,-2.9906,-2.9906,-2.9097,-2.8364,-2.7959,-2.9101,-2.9438,-2.8347,0.0,0.0,0.0,0.0,0.0,0.0,-2.6193,0.0,-2.5777,-2.46,-2.3448,-2.2327,-2.1268,-2.1017,-2.1479,-2.1928,-2.2341,-2.2756,-2.243,-2.2308,-2.2295,-2.2241,-2.2196,-2.2254,-2.2729,-2.2649,-2.2251,-2.183,-2.116,-2.0391,-3.4397,-3.4397,-3.4332,-3.4123,-3.4097,-3.4018,-3.3796,-3.3757,-3.3757,-3.3757,-3.3757,-3.3626,-3.33,-3.3548,0.0,-3.3287,-3.3247,-3.3091,-3.2712,-3.2489,-3.2372,-3.2372,-3.2372,-3.211,-3.1497,-3.1693,0.0,-3.2372,-3.1653,-3.1196,-3.0986,-3.0986,-3.0986,-3.0986,-3.0986,-3.0986,-3.0986,-3.0986,-3.0986,-3.096,-3.0751,-3.066,-3.0607,-3.0032,-2.9889,-2.9915,-2.9231,-2.8804,-2.8569,-2.819,-2.7824,-2.749,-2.749,-2.749,-2.749,-2.749,-2.749,-2.749,-2.749,-2.7689,-2.7973,-2.8384,-2.8885,-2.9532,-3.0614,-3.119,-3.1511,-3.1511,-3.1511,-3.1511,-3.1511,-3.1511,-3.1511,-3.1511,-3.1511,-3.1406,-3.1152,-3.0238,-2.9696,-2.9909,-2.9007,-2.8438,-2.8678,-2.9457,-2.9578,0.0,0.0,0.0,0.0,0.0,-2.6841,-2.6706,-2.6427,-2.6347,-2.6499,-2.5151,-2.4091,-2.3284,-2.2064,-2.171,-2.2101,-2.2359,-2.2689,-2.3113,-2.2997,-2.2827,-2.2578,-2.2765,-2.2557,-2.2144,-2.2451,-2.2207,-2.1676,-2.1428,-2.1038,-2.0582,-3.4345,-3.4371,-3.4214,0.0,-3.3561,-3.3391,-3.2777,-3.2685,-3.2685,-3.2685,-3.2685,-3.2672,-3.2633,-3.2633,-3.262,-3.2581,0.0,0.0,-3.2568,-3.2071,-3.1745,-3.1745,-3.1745,-3.1497,-3.0999,-3.1509,-3.1745,-3.1745,-3.1784,-3.151,-3.0986,-3.0986,-3.0986,-3.0986,-3.0986,-3.0986,-3.0986,-3.0986,-3.096,-3.0882,-3.0309,-3.0074,-2.9983,-2.9431,-2.893,-2.8472,-2.8381,-2.8007,-2.7555,-2.7503,-2.749,-2.749,-2.749,-2.749,-2.749,-2.749,-2.749,-2.749,-2.7556,-2.8039,-2.8514,-2.861,-2.9625,-3.0748,-3.1351,-3.1511,-3.1511,-3.1511,-3.1511,-3.1511,-3.1511,-3.1511,-3.1511,-3.1511,-3.1466,-3.1212,-3.0597,-2.9968,-2.9804,-3.0372,0.0,0.0,-3.0387,-3.0432,-2.9968,0.0,0.0,0.0,0.0,0.0,-2.7485,-2.6706,-2.6564,-2.6626,-2.6947,-2.5728,-2.4648,-2.3736,-2.2689,-2.2175,-2.2206,-2.2811,-2.3108,-2.3138,-2.3809,-2.3675,-2.3028,-2.3608,-2.3098,-2.1989,-2.1967,-2.1603,-2.1059,-2.045,-2.0661,-2.1099,0.0,0.0,-3.4084,-3.3077,-3.3287,-3.3391,-3.2777,-3.2685,-3.2685,-3.2685,-3.2685,-3.2515,-3.2045,-3.2006,-3.1862,-3.1431,-3.1797,-3.1862,-3.1418,-3.1261,-3.1196,-3.1196,-3.1196,-3.1117,-3.0986,-3.1117,-3.1196,-3.1196,-3.1588,-3.151,-3.0986,-3.0986,-3.0986,-3.0986,-3.0986,-3.0986,-3.0986,-3.0986,-3.0725,-3.0283,-3.0153,-2.9826,-2.9418,-2.8852,-2.8826,-2.8948,-2.8046,-2.7928,-2.8111,-2.7646,-2.749,-2.749,-2.749,-2.749,-2.749,-2.749,-2.749,-2.7623,-2.8137,-2.8384,-2.8757,-2.978,-3.0658,-3.1307,-3.1467,-3.1511,-3.1511,-3.1511,-3.1511,-3.1511,-3.1511,-3.1511,-3.1511,-3.1511,-3.1062,-3.0687,-3.0522,-2.9968,-2.9666,0.0,-2.9696,-2.9666,-2.9789,-2.9804,-2.9864,0.0,0.0,-3.0057,-2.9621,-2.9261,-2.8351,-2.6751,-2.7072,-2.7018,-2.653,-2.5672,-2.4576,-2.3269,-2.3008,-2.2854,-2.2884,-2.3035,-2.3108,-2.3138,-2.3809,-2.3675,-2.3001,-2.3153,-2.2743,-2.1967,-2.1551,-2.0994,-2.0435,-2.0372,-2.0203,-1.9987,-3.4018,-3.4201,-3.4031,-3.2894,-3.296,-3.2894,-3.2045,-3.1914,-3.1914,-3.1914,-3.1914,-3.1797,-3.1483,-3.1444,-3.1326,-3.1013,-3.1274,-3.1313,-3.0999,-3.0986,-3.0986,-3.0986,-3.1235,-3.1248,-3.0999,-3.1248,-3.1248,-3.0986,-3.13,-3.13,-3.0986,-3.0986,-3.0986,-3.0986,-3.0986,-3.0843,-3.0594,-3.0594,-3.0268,-2.9719,-2.9444,-2.9144,-2.8839,-2.8216,-2.819,-2.8399,-2.7725,-2.7699,-2.7941,-2.7594,-2.749,-2.749,-2.749,-2.7723,-2.7973,-2.7973,-2.7973,-2.8039,-2.8384,-2.8949,-2.9656,-3.0718,-3.1219,-3.1511,-3.1511,-3.1511,-3.1511,-3.1511,-3.1511,-3.1511,-3.1511,-3.1511,-3.1406,-3.1077,-3.0746,-3.0298,-2.9714,-2.9609,-2.9606,-2.9606,-2.9834,-3.0118,-3.0447,-3.0477,-3.0477,-3.0507,-3.0763,0.0,-3.0089,-2.999,-2.9209,-2.7573,-2.7519,-2.728,-2.6822,-2.5814,-2.4606,-2.3241,-2.3241,-2.3241,-2.3241,-2.3138,-2.3305,-2.3679,-2.4337,-2.3986,-2.3045,-2.3346,-2.2571,-2.1137,-2.0863,-2.0401,-1.9944,-2.0,-2.0065,-2.0065,-3.4293,-3.428,-3.3914,-3.2764,-3.2555,-3.2215,-3.1143,-3.0986,-3.0986,-3.0986,-3.0986,-3.0986,-3.0986,-3.0986,-3.0986,-3.0986,-3.0986,-3.0986,-3.0986,-3.0986,-3.0986,-3.0986,-3.1457,-3.1483,-3.0999,-3.147,-3.147,-3.0986,-3.0986,-3.0986,-3.0986,-3.0986,-3.0986,-3.0986,-3.0895,-3.0594,-3.0087,-3.0009,-2.9666,-2.914,-2.8616,-2.8368,-2.8203,-2.7686,-2.749,-2.749,-2.749,-2.749,-2.749,-2.749,-2.7556,-2.7656,-2.7656,-2.8039,-2.8514,-2.8629,-2.8661,-2.8661,-2.8757,-2.9718,-3.0807,-3.1351,-3.1511,-3.1511,-3.1511,-3.1511,-3.1511,-3.1511,-3.1511,-3.1511,-3.1511,-3.1511,-3.1316,-3.0746,-3.0567,-3.0088,-2.8921,0.0,-2.9711,-2.9621,-3.0223,-3.0853,-3.1451,-3.1406,-3.1152,-3.0702,-3.1077,-3.0907,-2.9871,-3.0263,-2.9934,-2.8693,-2.7993,-2.7445,-2.7056,-2.582,-2.4622,-2.3433,-2.3433,-2.3433,-2.342,-2.3258,-2.3603,-2.4366,-2.4869,-2.4319,-2.3094,-2.3603,-2.2402,-2.0221,-2.0133,-1.99,-1.9593,-1.9611,-2.0023,-2.0483,-3.3809,-3.3718,-3.3352,-3.2137,-3.1941,-3.1706,-3.1091,-3.0986,-3.0986,-3.0986,-3.0986,-3.0986,-3.0986,-3.0986,-3.0986,-3.0986,-3.0986,-3.0986,-3.0986,-3.0986,-3.0986,-3.0986,-3.1065,-3.1078,-3.0986,-3.1065,-3.1065,-3.0986,-3.0986,-3.0986,-3.0986,-3.0986,-3.0986,-3.096,-3.049,-3.0179,-3.0061,-2.9627,-2.9065,-2.8551,-2.8446,-2.8085,-2.762,-2.7529,-2.749,-2.749,-2.749,-2.749,-2.749,-2.749,-2.7875,-2.8352,-2.8352,-2.8417,-2.8597,-2.9174,-2.9348,-2.9487,-3.0056,-3.0748,-3.138,-3.1467,-3.1511,-3.1511,-3.1511,-3.1511,-3.1511,-3.1511,-3.1511,-3.1511,-3.1511,-3.1511,-3.1466,-3.1361,-3.0881,-3.0253,-2.952,0.0,-3.0163,-2.9666,-3.0642,-3.1391,-3.1496,-3.0972,-3.0866,-3.1316,-3.0926,-3.081,-3.1172,-3.0748,-3.0147,-2.9362,-2.8693,-2.756,-2.589,-2.5141,-2.4378,-2.3569,-2.3569,-2.3569,-2.3569,-2.3539,-2.3868,-2.4454,-2.4504,-2.4034,-2.3226,-2.2767,-2.1707,-2.0327,-1.9871,-1.9645,-1.9611,-1.9654,-1.9765,-1.9824,-3.3156,-3.3104,-3.2842,-3.1954,-3.1797,-3.1602,-3.1065,-3.0986,-3.0986,-3.0986,-3.0986,-3.0986,-3.0986,-3.0986,-3.0986,-3.0986,-3.0986,-3.0986,-3.0986,-3.0986,-3.0986,-3.0986,-3.0986,-3.0986,-3.0986,-3.0986,-3.0986,-3.0986,-3.0673,-3.0529,-3.0516,-3.0215,-3.0072,-3.0045,-2.9797,-2.9497,-2.917,-2.8908,-2.8464,-2.7928,-2.7928,-2.7771,-2.749,-2.749,-2.749,-2.749,-2.749,-2.749,-2.7556,-2.7908,-2.8222,-2.8565,-2.8935,-2.9282,-2.9656,-2.995,-3.0042,-3.0178,-3.0866,-3.101,-3.0957,-3.0957,-3.0957,-3.0896,-3.0552,-3.1002,-3.1406,-3.1032,-3.1241,-3.1511,-3.1511,-3.1511,-3.1376,-3.1017,-3.0717,-3.0283,-2.9669,-3.0118,-3.0402,-3.0118,-3.0913,-3.1511,-3.1511,-3.1212,-3.1167,-3.1481,-3.1212,-3.1167,-3.1481,-3.1219,-3.0557,-2.9525,-2.8202,-2.6937,-2.5724,-2.514,-2.4494,-2.376,-2.376,-2.376,-2.376,-2.3998,-2.4264,-2.4573,-2.4864,-2.4152,-2.2751,-2.251,-2.1445,-1.9934,-1.9693,-1.9629,-1.9669,-1.969,-1.9708,-1.9708,-3.2685,-3.2594,-3.2346,-3.1876,-3.1693,-3.1496,-3.1052,-3.0986,-3.0986,-3.0986,-3.0986,-3.0986,-3.0986,-3.0986,-3.0986,-3.0986,-3.0986,-3.0986,-3.0986,-3.0986,-3.0986,-3.0986,-3.0986,-3.0986,-3.0986,-3.0986,-3.0921,-3.079,-3.0309,-3.0035,-2.9892,-2.9483,-2.931,-2.931,-2.9131,-2.8852,-2.8407,-2.8242,-2.7928,-2.749,-2.749,-2.749,-2.749,-2.749,-2.749,-2.749,-2.749,-2.749,-2.759,-2.8105,-2.8468,-2.8807,-2.9331,-2.995,-3.0524,-3.0673,-3.0748,-3.0837,-3.1351,-3.1122,-3.0746,-3.0746,-3.0627,-3.0372,-2.9909,-3.0567,-3.1077,-3.0432,-3.0821,-3.1271,-3.1271,-3.1271,-3.1152,-3.0806,0.0,-3.0522,-2.9906,-3.0342,-3.0687,-3.0522,-3.1077,-3.1511,-3.1511,-3.1511,-3.1511,-3.1511,-3.1511,-3.1436,-3.1271,-3.1271,-3.0655,-2.9345,-2.7613,-2.6338,-2.5625,-2.5193,-2.4633,-2.3949,-2.3949,-2.3949,-2.3949,-2.4392,-2.4639,-2.4673,-2.5143,-2.42,-2.2387,-2.2337,-2.1248,-1.9629,-1.9629,-1.965,-1.9708,-1.9708,-1.9708,-1.9708,-3.2685,-3.2267,-3.185,-3.181,-3.1405,-3.1039,-3.0999,-3.0986,-3.0986,-3.0986,-3.0986,-3.0986,-3.0986,-3.0986,-3.0986,-3.0986,-3.0986,-3.0986,-3.0986,-3.0986,-3.0986,-3.0986,-3.0986,-3.0986,-3.0986,-3.0986,-3.0725,-3.0166,-3.0113,-2.9862,-2.9375,-2.9336,-2.931,-2.9297,-2.8734,-2.8459,-2.8381,-2.7811,-2.7529,-2.749,-2.749,-2.749,-2.749,-2.749,-2.749,-2.749,-2.749,-2.749,-2.749,-2.7556,-2.839,-2.9442,-2.9473,-2.995,-3.0614,-3.1248,-3.1438,-3.1438,-3.1511,-3.1466,-3.1436,-3.1436,-3.0943,-3.0492,-3.0447,-3.0507,-3.0402,-2.9774,-3.0148,-3.0582,-3.0582,-3.0582,-3.0776,-3.1331,0.0,0.0,-3.0537,-3.1002,-3.1197,-3.0582,-3.1077,-3.1511,-3.1511,-3.1511,-3.1511,-3.1511,-3.1511,-3.1227,-3.0612,-3.0582,-2.9986,-2.8692,-2.7382,-2.6175,-2.5082,-2.5012,-2.4689,-2.4083,-2.4083,-2.4083,-2.4112,-2.4692,-2.4929,-2.487,-2.4787,-2.3969,-2.2622,-2.2009,-2.0946,-1.969,-1.969,-1.9708,-1.9708,-1.9708,-1.9708,-1.9708,-3.164,-3.1457,-3.1313,-3.1313,-3.113,-3.0986,-3.0986,-3.0986,-3.0986,-3.0986,-3.0986,-3.0986,-3.0986,-3.0986,-3.0986,-3.0986,-3.0986,-3.0986,-3.0986,-3.0986,-3.0986,-3.0986,-3.0986,-3.0986,-3.0986,-3.0986,-3.0699,-3.01,-2.9784,-2.9301,-2.8747,-2.836,-2.819,-2.8177,-2.7954,-2.785,-2.7837,-2.7594,-2.749,-2.749,-2.749,-2.749,-2.749,-2.749,-2.749,-2.7556,-2.7973,-2.8137,-2.8254,-2.9093,-2.9704,-3.0208,-3.0614,-3.0925,-3.1161,-3.1438,-3.1511,-3.1511,-3.1511,-3.1197,-3.0896,-3.0896,-3.0702,-3.0298,-2.9505,-2.9939,-3.0208,-2.919,-2.949,-2.9924,-2.9924,-2.9924,-3.0028,-3.0283,0.0,-3.0238,-2.9968,-3.0163,-3.0372,-3.0492,-3.0731,-3.1032,-3.1466,-3.1511,-3.1331,-3.0898,-3.0896,-3.0612,-2.9968,-2.9549,-2.8925,-2.8074,-2.718,-2.6313,-2.5503,-2.48,-2.4345,-2.4083,-2.4083,-2.4316,-2.4677,-2.5231,-2.5223,-2.4776,-2.5126,-2.4297,-2.2643,-2.1984,-2.1156,-2.0288,-1.9854,-1.9708,-1.9708,-1.9708,-1.9708,-1.9708,-3.0986,-3.0986,-3.0986,-3.0986,-3.0986,-3.0986,-3.0986,-3.0986,-3.0986,-3.0986,-3.0986,-3.0986,-3.0986,-3.0986,-3.0986,-3.0986,-3.0986,-3.0986,-3.0986,-3.0986,-3.0986,-3.0986,-3.0986,-3.0986,-3.0986,-3.0986,-3.062,-2.9826,-2.947,-2.8882,-2.8111,-2.7673,-2.749,-2.749,-2.749,-2.749,-2.749,-2.749,-2.749,-2.749,-2.749,-2.749,-2.7523,-2.7723,-2.7809,-2.7908,-2.8565,-2.8807,-2.8935,-2.9858,-3.0329,-3.0584,-3.1029,-3.1322,-3.1511,-3.1511,-3.1511,-3.1511,-3.1511,-3.1152,-3.0821,-3.0821,-3.0507,-2.9983,-2.9101,-2.943,-2.9594,-2.8502,-2.8801,-2.9307,-2.9307,-2.9307,-2.9367,-2.9577,-2.9606,-2.9606,-2.9606,-2.9606,-2.9744,-3.0163,-3.0387,-3.0612,-3.0896,-3.1062,-3.0913,-3.0268,-3.0223,-2.9939,-2.931,-2.8637,-2.8107,-2.7683,-2.7033,-2.6404,-2.581,-2.485,-2.4476,-2.4635,-2.4476,-2.4692,-2.5272,-2.5824,-2.5583,-2.4728,-2.5349,-2.4492,-2.2643,-2.1984,-2.1306,-2.0628,-1.9959,-1.9708,-1.9738,-1.9947,-1.9887,-1.9738,-3.0986,-3.0986,-3.0986,-3.0986,-3.0986,-3.0986,-3.0986,-3.0986,-3.0986,-3.0986,-3.0986,-3.0986,-3.0986,-3.0986,-3.0986,-3.0986,-3.0986,-3.0986,-3.0986,-3.0986,-3.0986,-3.0986,-3.0986,-3.0986,-3.0973,-3.0973,-3.0411,-2.931,-2.931,-2.8673,-2.749,-2.749,-2.749,-2.749,-2.749,-2.749,-2.749,-2.749,-2.749,-2.749,-2.749,-2.749,-2.759,-2.8254,-2.85,-2.8597,-2.9268,-2.9504,-2.9504,-2.9504,-2.995,-3.0524,-3.051,-3.0955,-3.1496,-3.1496,-3.1496,-3.1496,-3.1496,-3.1496,-3.1496,-3.1496,-3.0552,-2.9606,-2.9606,-2.9071,-2.8412,-2.7735,-2.8113,-2.8592,-2.8592,-2.8592,-2.8801,-2.9487,-2.9592,-2.9592,-2.9592,-2.9592,-2.9592,-2.9592,-3.0118,-3.0253,-2.9666,-3.0133,-3.0238,-2.9651,-2.9592,-2.9307,-2.8622,-2.7974,-2.76,-2.76,-2.7008,-2.6416,-2.581,-2.5272,-2.5258,-2.5783,-2.5272,-2.5286,-2.581,-2.6416,-2.5959,-2.4728,-2.5334,-2.4492,-2.2643,-2.1984,-2.1321,-2.0643,-1.9959,-1.9708,-1.9783,-2.0453,-2.0273,-1.9813,-3.0986,-3.0986,-3.0986,-3.0986,-3.0986,-3.0986,-3.0986,-3.0986,-3.0986,-3.0986,-3.0986,-3.0986,-3.0986,-3.0986,-3.0986,-3.0986,-3.0986,-3.0986,-3.0986,-3.0986,-3.0986,-3.0986,-3.0986,-3.079,-3.0361,-3.0348,-2.981,-2.8682,-2.8682,-2.8268,-2.749,-2.749,-2.749,-2.749,-2.749,-2.749,-2.749,-2.749,-2.7776,-2.8189,-2.8189,-2.8468,-2.8921,-2.9142,-2.8903,-2.8661,-2.9797,-2.9889,-2.9628,-3.0584,-3.1029,-3.113,-3.0656,-3.0622,-3.0731,-3.0298,-3.0163,-3.0163,-3.0163,-3.0163,-3.0268,-3.0702,-3.0507,-2.9998,-2.9101,-2.8742,-2.8412,-2.7735,-2.7764,-2.7899,-2.7899,-2.7899,-2.7959,-2.8169,-2.8199,-2.8199,-2.8199,-2.8199,-2.8378,-2.8831,-2.9056,-2.928,-2.9577,-2.9771,-2.9594,-2.8951,-2.8468,-2.8109,-2.7914,-2.7705,-2.76,-2.76,-2.7008,-2.6826,-2.706,-2.6054,-2.5453,-2.5244,-2.5453,-2.5612,-2.5727,-2.5922,-2.5491,-2.4644,-2.482,-2.4313,-2.3236,-2.2143,-2.1575,-2.1291,-2.0157,-1.9708,-1.9723,-1.9914,-1.9872,-1.9738,-3.0986,-3.0986,-3.0986,-3.0986,-3.0986,-3.0986,-3.0986,-3.0986,-3.0986,-3.0986,-3.0986,-3.0986,-3.0986,-3.0986,-3.0986,-3.0986,-3.0986,-3.0986,-3.0986,-3.0986,-3.0986,-3.0986,-3.0764,-3.049,-3.0113,-3.01,-2.9562,-2.842,-2.842,-2.8085,-2.749,-2.749,-2.749,-2.749,-2.749,-2.7656,-2.7875,-2.7623,-2.7875,-2.8481,-2.8189,-2.8338,-2.873,-2.8985,-2.903,-2.903,-3.0117,-3.0419,-3.0419,-3.1219,-3.1316,-3.1017,-3.0642,-3.0342,-3.0058,-2.9726,-2.9606,-2.9606,-2.9606,-2.9606,-2.9609,-2.9714,-2.9759,-2.9549,-2.8786,-2.8382,-2.8094,-2.769,-2.76,-2.76,-2.76,-2.76,-2.76,-2.76,-2.76,-2.76,-2.76,-2.76,-2.775,-2.8169,-2.8427,-2.8652,-2.8798,-2.9052,-2.8921,-2.8248,-2.7839,-2.76,-2.76,-2.76,-2.76,-2.76,-2.7255,-2.7126,-2.7229,-2.6759,-2.6363,-2.6014,-2.6122,-2.6138,-2.605,-2.605,-2.5529,-2.4605,-2.4605,-2.4081,-2.3146,-2.2113,-2.1545,-2.1201,-2.0127,-1.9708,-1.9738,-1.9989,-1.9932,-1.9738,-3.0986,-3.0986,-3.0986,-3.0986,-3.0986,-3.0986,-3.0986,-3.0986,-3.0986,-3.0986,-3.0986,-3.0986,-3.0986,-3.0986,-3.0986,-3.0986,-3.0986,-3.0986,-3.0986,-3.0986,-3.0986,-3.0986,-3.0438,-3.0074,-3.0022,-2.997,-2.9396,-2.8307,-2.8307,-2.8033,-2.749,-2.749,-2.749,-2.749,-2.749,-2.7842,-2.8384,-2.7756,-2.7875,-2.8449,-2.7908,-2.7709,-2.7842,-2.85,-2.9083,-2.9588,-3.0273,-3.0837,-3.1319,-3.1377,-3.0957,-3.0417,-3.0357,-2.9939,-2.9517,-2.9442,-2.9427,-2.9427,-2.9427,-2.9427,-2.9277,-2.8652,-2.8502,-2.8502,-2.8502,-2.8049,-2.76,-2.76,-2.76,-2.76,-2.76,-2.76,-2.76,-2.76,-2.76,-2.76,-2.76,-2.76,-2.76,-2.76,-2.8128,-2.8263,-2.766,-2.8143,-2.8248,-2.7645,-2.76,-2.76,-2.76,-2.76,-2.76,-2.76,-2.76,-2.7331,-2.6788,-2.7331,-2.7575,-2.7524,-2.6964,-2.6623,-2.6497,-2.6437,-2.5719,-2.4515,-2.4455,-2.3774,-2.2643,-2.1904,-2.1261,-2.0628,-1.9959,-1.9708,-1.9783,-2.0393,-2.0228,-1.9798,-3.0986,-3.0986,-3.0986,-3.0986,-3.0986,-3.0986,-3.0986,-3.0986,-3.0986,-3.0986,-3.0986,-3.0986,-3.0986,-3.0986,-3.0986,-3.0986,-3.0986,-3.0986,-3.0986,-3.0986,-3.0986,-3.0986,-3.0438,-2.9879,-2.947,-2.9,-2.8412,-2.7686,-2.7686,-2.762,-2.749,-2.749,-2.749,-2.749,-2.749,-2.759,-2.7723,-2.7556,-2.7875,-2.8532,-2.8921,-2.9393,-2.9934,-3.0598,-3.0279,-2.9593,-3.0276,-3.0247,-3.0017,-3.0547,-3.0313,-2.9684,-2.9175,-2.8921,-2.8712,-2.8199,-2.8034,-2.8034,-2.8034,-2.8034,-2.8004,-2.7854,-2.7824,-2.7824,-2.7824,-2.7705,-2.76,-2.76,-2.76,-2.76,-2.76,-2.76,-2.76,-2.76,-2.76,-2.76,-2.76,-2.76,-2.76,-2.76,-2.7735,-2.7764,-2.76,-2.7735,-2.7764,-2.76,-2.76,-2.76,-2.76,-2.76,-2.76,-2.76,-2.76,-2.7549,-2.7423,-2.7534,-2.7357,-2.6878,-2.6712,-2.6331,-2.5809,-2.5262,-2.4575,-2.3789,-2.331,-2.2957,-2.2613,-2.141,-2.0823,-2.0628,-1.9959,-1.9708,-1.9723,-1.9854,-1.9828,-1.9723,-3.0986,-3.0986,-3.0986,-3.0986,-3.0986,-3.0986,-3.0986,-3.0986,-3.0986,-3.0986,-3.0986,-3.0986,-3.0986,-3.0986,-3.0986,-3.0986,-3.0986,-3.0986,-3.0986,-3.0986,-3.0986,-3.0986,-3.0176,-2.9588,-2.9323,-2.8425,-2.7837,-2.749,-2.749,-2.749,-2.749,-2.749,-2.749,-2.749,-2.749,-2.7689,-2.7973,-2.7973,-2.8371,-2.903,-2.9362,-2.952,-2.9568,-2.9941,-2.9639,-2.916,-2.9781,-3.0012,-2.9997,-3.0052,-2.9639,-2.9056,-2.8712,-2.8368,-2.8064,-2.7705,-2.76,-2.76,-2.76,-2.76,-2.76,-2.76,-2.76,-2.76,-2.76,-2.76,-2.76,-2.76,-2.76,-2.76,-2.76,-2.76,-2.76,-2.76,-2.76,-2.76,-2.76,-2.76,-2.76,-2.76,-2.76,-2.76,-2.76,-2.76,-2.76,-2.76,-2.76,-2.76,-2.76,-2.76,-2.76,-2.76,-2.76,-2.76,-2.76,-2.7285,-2.6971,-2.6655,-2.6629,-2.6078,-2.5113,-2.4769,-2.4231,-2.358,-2.3272,-2.2972,-2.2628,-2.1605,-2.0991,-2.0628,-1.9959,-1.9708,-1.9708,-1.9708,-1.9708,-1.9708,-3.0986,-3.0986,-3.0986,-3.0986,-3.0986,-3.0986,-3.0986,-3.0986,-3.0986,-3.0986,-3.0986,-3.0986,-3.0986,-3.0986,-3.0986,-3.0986,-3.0986,-3.0986,-3.0986,-3.0895,-3.0843,-3.0843,-2.9732,-2.9166,-2.9166,-2.8072,-2.749,-2.749,-2.749,-2.749,-2.749,-2.749,-2.749,-2.749,-2.749,-2.7809,-2.832,-2.832,-2.8593,-2.9039,-2.9257,-2.8954,-2.8376,-2.8615,-2.8656,-2.869,-2.9187,-2.9643,-2.9939,-2.9549,-2.8966,-2.8427,-2.8427,-2.8064,-2.76,-2.76,-2.76,-2.76,-2.76,-2.76,-2.76,-2.76,-2.76,-2.76,-2.76,-2.76,-2.76,-2.76,-2.76,-2.76,-2.76,-2.769,-2.7735,-2.7615,-2.7705,-2.7735,-2.7615,-2.76,-2.76,-2.76,-2.76,-2.76,-2.76,-2.76,-2.76,-2.76,-2.76,-2.76,-2.76,-2.76,-2.76,-2.76,-2.76,-2.76,-2.76,-2.6941,-2.6587,-2.6587,-2.6363,-2.5689,-2.4605,-2.4485,-2.4126,-2.3595,-2.349,-2.3167,-2.2643,-2.1984,-2.1306,-2.0643,-2.0094,-1.9813,-1.9708,-1.9708,-1.9708,-1.9708,-3.0986,-3.0986,-3.0986,-3.0986,-3.0986,-3.0986,-3.0986,-3.0986,-3.0986,-3.0986,-3.0986,-3.0986,-3.0986,-3.0986,-3.0986,-3.0986,-3.0986,-3.0986,-3.0986,-3.0516,-3.0218,-3.0218,-2.9131,-2.8503,-2.8503,-2.7863,-2.749,-2.749,-2.749,-2.749,-2.749,-2.749,-2.749,-2.749,-2.749,-2.7556,-2.7656,-2.7656,-2.7433,-2.7184,-2.8229,-2.8292,-2.7921,-2.9021,-2.9107,-2.8595,-2.8684,-2.842,-2.8079,-2.8562,-2.8304,-2.7735,-2.7735,-2.7675,-2.76,-2.76,-2.76,-2.76,-2.76,-2.76,-2.76,-2.76,-2.76,-2.76,-2.76,-2.76,-2.76,-2.76,-2.76,-2.76,-2.76,-2.8053,-2.8263,-2.769,-2.8094,-2.8248,-2.7675,-2.76,-2.76,-2.76,-2.76,-2.76,-2.76,-2.76,-2.76,-2.76,-2.76,-2.76,-2.76,-2.76,-2.76,-2.76,-2.76,-2.76,-2.76,-2.6941,-2.6587,-2.6572,-2.5412,-2.4784,-2.459,-2.4014,-2.3684,-2.3565,-2.3062,-2.2778,-2.2643,-2.1984,-2.1306,-2.0688,-2.0598,-2.0213,-1.9708,-1.9708,-1.9708,-1.9708,-3.0986,-3.0986,-3.0986,-3.0986,-3.0986,-3.0986,-3.0986,-3.0986,-3.0986,-3.0986,-3.0986,-3.0986,-3.0986,-3.0986,-3.0986,-3.0986,-3.0699,-3.0516,-3.0516,-2.998,-2.9653,-2.9653,-2.8843,-2.842,-2.842,-2.7824,-2.749,-2.749,-2.749,-2.749,-2.749,-2.749,-2.749,-2.749,-2.749,-2.749,-2.753,-2.7892,-2.7931,-2.7783,-2.874,-2.875,-2.8265,-2.8824,-2.8622,-2.8049,-2.8049,-2.8094,-2.8154,-2.8079,-2.7839,-2.76,-2.76,-2.76,-2.76,-2.76,-2.76,-2.76,-2.76,-2.76,-2.76,-2.76,-2.76,-2.76,-2.76,-2.76,-2.76,-2.76,-2.76,-2.76,-2.76,-2.7839,-2.7944,-2.7645,-2.7854,-2.7944,-2.7645,-2.76,-2.76,-2.76,-2.76,-2.76,-2.76,-2.76,-2.76,-2.76,-2.76,-2.76,-2.76,-2.76,-2.76,-2.76,-2.724,-2.7225,-2.76,-2.6557,-2.6228,-2.6572,-2.5232,-2.4605,-2.459,-2.3924,-2.3595,-2.3595,-2.331,-2.3191,-2.3146,-2.2523,-2.1859,-2.1231,-2.0838,-2.0288,-1.9708,-1.9708,-1.9708,-1.9708]}]]